[[{"header":{"parameterUnit":"m.s-1","parameterCategory":1,"la1":30.6,"la2":28.766,"lo1":-90.7593,"lo2":-88.6598,"dy":0.0162,"dx":0.0183,"nx":116,"ny":114,"refTime":"2023-10-24T06:00:00:Z","depth":0,"parameterNumber":2,"parameterNumberName":"U-component_of_WINDS"},"data":[0.0,0.0,0.0,0.0,0.0,0.0,0.0,0.0,0.0,0.0,0.0,0.0,0.0,0.0,0.0,0.0,0.0,0.0,0.0,0.0,0.0,0.0,0.0,0.0,0.0,0.0,0.0,0.0,0.0,0.0,0.0,0.0,0.0,0.0,0.0,0.0,0.0,0.0,0.0,0.0,0.0,0.0,0.0,0.0,0.0,0.0,0.0,0.0,0.0,0.0,0.0,0.0,0.0,0.0,0.0,0.0,0.0,0.0,0.0,0.0,0.0,0.0,0.0,0.0,0.0,0.0,0.0,0.0,0.0,0.0,0.0,0.0,0.0,0.0,0.0,0.0,0.0,0.0,0.0,0.0,0.0,0.0,0.0,0.0,0.0,0.0,0.0,0.0,0.0,0.0,0.0,0.0,0.0,0.0,0.0,0.0,0.0,0.0,0.0,0.0,0.0,0.0,0.0,0.0,0.0,0.0,0.0,0.0,0.0,0.0,0.0,0.0,0.0,0.0,0.0,0.0,0.0,0.0,0.0,0.0,0.0,0.0,0.0,0.0,0.0,0.0,0.0,0.0,0.0,0.0,0.0,0.0,0.0,0.0,0.0,0.0,0.0,0.0,0.0,0.0,0.0,0.0,0.0,0.0,0.0,0.0,0.0,0.0,0.0,0.0,0.0,0.0,0.0,0.0,0.0,0.0,0.0,0.0,0.0,0.0,0.0,0.0,0.0,0.0,0.0,0.0,0.0,0.0,0.0,0.0,0.0,0.0,0.0,0.0,0.0,0.0,0.0,0.0,0.0,0.0,0.0,0.0,0.0,0.0,0.0,0.0,0.0,0.0,0.0,0.0,0.0,0.0,0.0,0.0,0.0,0.0,0.0,0.0,0.0,0.0,0.0,0.0,0.0,0.0,0.0,0.0,0.0,0.0,0.0,0.0,0.0,0.0,0.0,0.0,0.0,0.0,0.0,0.0,0.0,0.0,0.0,0.0,0.0,0.0,0.0,0.0,0.0,0.0,0.0,0.0,0.0,0.0,0.0,0.0,0.0,0.0,0.0,0.0,0.0,0.0,0.0,0.0,0.0,0.0,0.0,0.0,0.0,0.0,0.0,0.0,0.0,0.0,0.0,0.0,0.0,0.0,0.0,0.0,0.0,0.0,0.0,0.0,0.0,0.0,0.0,0.0,0.0,0.0,0.0,0.0,0.0,0.0,0.0,0.0,0.0,0.0,0.0,0.0,0.0,0.0,0.0,0.0,0.0,0.0,0.0,0.0,0.0,0.0,0.0,0.0,0.0,0.0,0.0,0.0,0.0,0.0,0.0,0.0,0.0,0.0,0.0,0.0,0.0,0.0,0.0,0.0,0.0,0.0,0.0,0.0,0.0,0.0,0.0,0.0,0.0,0.0,0.0,0.0,0.0,0.0,0.0,0.0,0.0,0.0,0.0,0.0,0.0,0.0,0.0,0.0,0.0,0.0,0.0,0.0,0.0,0.0,0.0,0.0,0.0,0.0,0.0,0.0,0.0,0.0,0.0,0.0,0.0,0.0,0.0,0.0,0.0,0.0,0.0,0.0,0.0,0.0,0.0,0.0,0.0,0.0,0.0,0.0,0.0,0.0,0.0,0.0,0.0,0.0,0.0,0.0,0.0,0.0,0.0,0.0,0.0,0.0,0.0,0.0,0.0,0.0,0.0,0.0,0.0,0.0,0.0,0.0,0.0,0.0,0.0,0.0,0.0,0.0,0.0,0.0,0.0,0.0,0.0,0.0,0.0,0.0,0.0,0.0,0.0,0.0,0.0,0.0,0.0,0.0,0.0,0.0,0.0,0.0,0.0,0.0,0.0,0.0,0.0,0.0,0.0,0.0,0.0,0.0,0.0,0.0,0.0,0.0,0.0,0.0,0.0,0.0,0.0,0.0,0.0,0.0,0.0,0.0,0.0,0.0,0.0,0.0,0.0,0.0,0.0,0.0,0.0,0.0,0.0,0.0,0.0,0.0,0.0,0.0,0.0,0.0,0.0,0.0,0.0,0.0,0.0,0.0,0.0,0.0,0.0,0.0,0.0,0.0,0.0,0.0,0.0,0.0,0.0,0.0,0.0,0.0,0.0,0.0,0.0,0.0,0.0,0.0,0.0,0.0,0.0,0.0,0.0,0.0,0.0,0.0,0.0,0.0,0.0,0.0,0.0,0.0,0.0,0.0,0.0,0.0,0.0,0.0,0.0,0.0,0.0,0.0,0.0,0.0,0.0,0.0,0.0,0.0,0.0,0.0,0.0,0.0,0.0,0.0,0.0,0.0,0.0,0.0,0.0,0.0,0.0,0.0,0.0,0.0,0.0,0.0,0.0,0.0,0.0,0.0,0.0,0.0,0.0,0.0,0.0,0.0,0.0,0.0,0.0,0.0,0.0,0.0,0.0,0.0,0.0,0.0,0.0,0.0,0.0,0.0,0.0,0.0,0.0,0.0,0.0,0.0,0.0,0.0,0.0,0.0,0.0,0.0,0.0,0.0,0.0,0.0,0.0,0.0,0.0,0.0,0.0,0.0,0.0,0.0,0.0,0.0,0.0,0.0,0.0,0.0,0.0,0.0,0.0,0.0,0.0,0.0,0.0,0.0,0.0,0.0,0.0,0.0,0.0,0.0,0.0,0.0,0.0,0.0,0.0,0.0,0.0,0.0,0.0,0.0,0.0,0.0,0.0,0.0,0.0,0.0,0.0,0.0,0.0,0.0,0.0,0.0,0.0,0.0,0.0,0.0,0.0,0.0,0.0,0.0,0.0,0.0,0.0,0.0,0.0,0.0,0.0,0.0,0.0,0.0,0.0,0.0,0.0,0.0,0.0,0.0,0.0,0.0,0.0,0.0,0.0,0.0,0.0,0.0,0.0,0.0,0.0,0.0,0.0,0.0,0.0,0.0,0.0,0.0,0.0,0.0,0.0,0.0,0.0,0.0,0.0,0.0,0.0,0.0,0.0,0.0,0.0,0.0,0.0,0.0,0.0,0.0,0.0,0.0,0.0,0.0,0.0,0.0,0.0,0.0,0.0,0.0,0.0,0.0,0.0,0.0,0.0,0.0,0.0,0.0,0.0,0.0,0.0,0.0,0.0,0.0,0.0,0.0,0.0,0.0,0.0,0.0,0.0,0.0,0.0,0.0,0.0,0.0,0.0,0.0,0.0,0.0,0.0,0.0,0.0,0.0,0.0,0.0,0.0,0.0,0.0,0.0,0.0,0.0,0.0,0.0,0.0,0.0,0.0,0.0,0.0,0.0,0.0,0.0,0.0,0.0,0.0,0.0,0.0,0.0,0.0,0.0,0.0,0.0,0.0,0.0,0.0,0.0,0.0,0.0,0.0,0.0,0.0,0.0,0.0,0.0,0.0,0.0,0.0,0.0,0.0,0.0,0.0,0.0,0.0,0.0,0.0,0.0,0.0,0.0,0.0,0.0,0.0,0.0,0.0,0.0,0.0,0.0,0.0,0.0,0.0,0.0,0.0,0.0,0.0,0.0,0.0,0.0,0.0,0.0,0.0,0.0,0.0,0.0,0.0,0.0,0.0,0.0,0.0,0.0,0.0,0.0,0.0,0.0,0.0,0.0,0.0,0.0,0.0,0.0,0.0,0.0,0.0,0.0,0.0,0.0,0.0,0.0,0.0,0.0,0.0,0.0,0.0,0.0,0.0,0.0,0.0,0.0,0.0,0.0,0.0,0.0,0.0,0.0,0.0,0.0,0.0,0.0,0.0,0.0,0.0,0.0,0.0,0.0,0.0,0.0,0.0,0.0,0.0,0.0,0.0,0.0,0.0,0.0,0.0,0.0,0.0,0.0,0.0,0.0,0.0,0.0,0.0,0.0,0.0,0.0,0.0,0.0,0.0,0.0,0.0,0.0,0.0,0.0,0.0,0.0,0.0,0.0,0.0,0.0,0.0,0.0,0.0,0.0,0.0,0.0,0.0,0.0,0.0,0.0,0.0,0.0,0.0,0.0,0.0,0.0,0.0,0.0,0.0,0.0,0.0,0.0,0.0,0.0,0.0,0.0,0.0,0.0,0.0,0.0,0.0,0.0,0.0,0.0,0.0,0.0,0.0,0.0,0.0,0.0,0.0,0.0,0.0,0.0,0.0,0.0,0.0,0.0,0.0,0.0,0.0,0.0,0.0,0.0,0.0,0.0,0.0,0.0,0.0,0.0,0.0,0.0,0.0,0.0,0.0,0.0,0.0,0.0,0.0,0.0,0.0,0.0,0.0,0.0,0.0,0.0,0.0,0.0,0.0,0.0,0.0,0.0,0.0,0.0,0.0,0.0,0.0,0.0,0.0,0.0,0.0,0.0,0.0,0.0,0.0,0.0,0.0,0.0,0.0,0.0,0.0,0.0,0.0,0.0,0.0,0.0,0.0,0.0,0.0,0.0,0.0,0.0,0.0,0.0,0.0,0.0,0.0,0.0,0.0,0.0,0.0,0.0,0.0,0.0,0.0,0.0,0.0,0.0,0.0,0.0,0.0,0.0,0.0,0.0,0.0,0.0,0.0,0.0,0.0,0.0,0.0,0.0,0.0,0.0,0.0,0.0,0.0,0.0,0.0,0.0,0.0,0.0,0.0,0.0,0.0,0.0,0.0,0.0,0.0,0.0,0.0,0.0,0.0,0.0,0.0,0.0,0.0,0.0,0.0,0.0,0.0,0.0,0.0,0.0,0.0,0.0,0.0,0.0,0.0,0.0,0.0,0.0,0.0,0.0,0.0,0.0,0.0,0.0,0.0,0.0,0.0,0.0,0.0,0.0,0.0,0.0,0.0,0.0,0.0,0.0,0.0,0.0,0.0,0.0,0.0,0.0,0.0,0.0,0.0,0.0,0.0,0.0,0.0,0.0,0.0,0.0,0.0,0.0,0.0,0.0,0.0,0.0,0.0,0.0,0.0,0.0,0.0,0.0,0.0,0.0,0.0,0.0,0.0,0.0,0.0,0.0,0.0,0.0,0.0,0.0,0.0,0.0,0.0,0.0,0.0,0.0,0.0,0.0,0.0,0.0,0.0,0.0,0.0,0.0,0.0,0.0,0.0,0.0,0.0,0.0,0.0,0.0,0.0,0.0,0.0,0.0,0.0,0.0,0.0,0.0,0.0,0.0,0.0,0.0,0.0,0.0,0.0,0.0,0.0,0.0,0.0,0.0,0.0,0.0,0.0,0.0,0.0,0.0,0.0,0.0,0.0,0.0,0.0,0.0,0.0,0.0,0.0,0.0,0.0,0.0,0.0,0.0,0.0,0.0,0.0,0.0,0.0,0.0,0.0,0.0,0.0,0.0,0.0,0.0,0.0,0.0,0.0,0.0,0.0,0.0,0.0,0.0,0.0,0.0,0.0,0.0,0.0,0.0,0.0,0.0,0.0,0.0,0.0,0.0,0.0,0.0,0.0,0.0,0.0,0.0,0.0,0.0,0.0,0.0,0.0,0.0,0.0,0.0,0.0,0.0,0.0,0.0,0.0,0.0,0.0,0.0,0.0,0.0,0.0,0.0,0.0,0.0,0.0,0.0,0.0,0.0,0.0,0.0,0.0,0.0,0.0,0.0,0.0,0.0,0.0,0.0,0.0,0.0,0.0,0.0,0.0,0.0,0.0,0.0,0.0,0.0,0.0,0.0,0.0,0.0,0.0,0.0,0.0,0.0,0.0,0.0,0.0,0.0,0.0,0.0,0.0,0.0,0.0,0.0,0.0,0.0,0.0,0.0,0.0,0.0,0.0,0.0,0.0,0.0,0.0,0.0,0.0,0.0,0.0,0.0,0.0,0.0,0.0,0.0,0.0,0.0,0.0,0.0,0.0,0.0,0.0,0.0,0.0,0.0,0.0,0.0,0.0,0.0,0.0,0.0,0.0,0.0,0.0,0.0,0.0,0.0,0.0,0.0,0.0,0.0,0.0,0.0,0.0,0.0,0.0,0.0,0.0,0.0,0.0,0.0,0.0,0.0,0.0,0.0,0.0,0.0,0.0,0.0,0.0,0.0,0.0,0.0,0.0,0.0,0.0,0.0,0.0,0.0,0.0,0.0,0.0,0.0,0.0,0.0,0.0,0.0,0.0,0.0,0.0,0.0,0.0,0.0,0.0,0.0,-3.0943,0.0,0.0,0.0,0.0,0.0,0.0,0.0,0.0,0.0,0.0,0.0,0.0,0.0,0.0,0.0,0.0,0.0,0.0,0.0,0.0,0.0,0.0,0.0,0.0,0.0,0.0,0.0,0.0,0.0,0.0,0.0,0.0,0.0,0.0,0.0,0.0,0.0,0.0,-4.1681,-3.9768,-3.8849,-3.8972,-4.0148,-4.0427,-4.0014,0.0,0.0,0.0,0.0,0.0,0.0,0.0,0.0,0.0,0.0,0.0,0.0,0.0,0.0,0.0,0.0,0.0,0.0,0.0,0.0,0.0,0.0,0.0,0.0,0.0,0.0,0.0,0.0,0.0,0.0,0.0,0.0,0.0,0.0,0.0,0.0,0.0,0.0,0.0,0.0,0.0,0.0,0.0,0.0,0.0,0.0,0.0,0.0,0.0,0.0,0.0,0.0,0.0,0.0,0.0,0.0,0.0,0.0,0.0,0.0,0.0,0.0,0.0,0.0,0.0,0.0,0.0,0.0,0.0,0.0,0.0,-2.9293,0.0,0.0,0.0,0.0,0.0,0.0,0.0,0.0,0.0,0.0,0.0,0.0,0.0,0.0,0.0,0.0,0.0,0.0,0.0,0.0,0.0,0.0,0.0,0.0,-3.4203,-3.5701,-3.6297,0.0,0.0,0.0,0.0,0.0,0.0,0.0,0.0,-3.8118,-3.9603,-4.1881,-3.8898,-3.7499,-3.7589,-3.8636,-3.9244,-3.9497,-3.9628,0.0,0.0,0.0,0.0,0.0,0.0,0.0,0.0,0.0,0.0,0.0,0.0,0.0,0.0,0.0,0.0,0.0,0.0,0.0,0.0,0.0,0.0,0.0,0.0,0.0,0.0,0.0,0.0,0.0,0.0,0.0,0.0,0.0,0.0,0.0,0.0,0.0,0.0,0.0,0.0,0.0,0.0,0.0,0.0,0.0,0.0,0.0,0.0,0.0,0.0,0.0,0.0,0.0,0.0,0.0,0.0,0.0,0.0,0.0,0.0,0.0,0.0,0.0,-2.5458,-2.4971,-2.4698,-2.6253,-2.6437,-2.5567,-2.6082,-2.7135,-2.857,-2.9037,0.0,0.0,0.0,0.0,0.0,0.0,0.0,0.0,0.0,0.0,0.0,0.0,0.0,0.0,0.0,0.0,0.0,0.0,0.0,0.0,0.0,-3.3908,-3.4767,-3.7358,-3.695,-3.6872,0.0,0.0,0.0,0.0,0.0,0.0,-3.6206,-3.6281,-3.6524,-3.7042,-3.6174,-3.5742,-3.576,-3.6348,-3.7144,-3.7988,-3.6981,-3.6913,-3.7434,0.0,0.0,0.0,0.0,0.0,0.0,0.0,0.0,0.0,0.0,0.0,0.0,0.0,0.0,0.0,0.0,0.0,0.0,0.0,0.0,0.0,0.0,0.0,0.0,0.0,0.0,0.0,0.0,0.0,0.0,0.0,0.0,0.0,0.0,0.0,0.0,0.0,0.0,0.0,0.0,0.0,-3.2054,-3.1991,0.0,0.0,0.0,0.0,0.0,0.0,0.0,0.0,0.0,0.0,0.0,0.0,0.0,-2.5315,-2.5275,-2.5179,-2.5126,-2.5051,-2.4882,-2.444,-2.3921,-2.4402,-2.4557,-2.4431,-2.4483,0.0,-2.8263,-2.7241,0.0,0.0,0.0,0.0,0.0,0.0,0.0,0.0,0.0,0.0,0.0,0.0,0.0,0.0,0.0,0.0,0.0,0.0,0.0,0.0,0.0,-3.0874,-3.1323,-3.3001,-3.3509,-3.3611,-3.3351,0.0,0.0,0.0,0.0,-3.5021,-3.663,-3.5505,-3.4818,-3.4721,-3.6417,-3.6758,-3.578,-3.5815,-3.603,-3.6405,-3.5439,-3.6066,-3.7735,-3.5231,0.0,0.0,0.0,0.0,0.0,0.0,0.0,0.0,0.0,0.0,0.0,0.0,0.0,0.0,0.0,0.0,0.0,0.0,0.0,0.0,0.0,0.0,0.0,0.0,0.0,0.0,0.0,0.0,0.0,0.0,0.0,0.0,0.0,0.0,0.0,0.0,0.0,0.0,0.0,-3.1447,-3.195,-3.0489,-3.0572,-3.0159,0.0,0.0,0.0,0.0,0.0,0.0,0.0,0.0,0.0,-2.335,-2.3874,-2.3997,-2.3408,-2.3315,-2.339,-2.3612,-2.3411,-2.3332,-2.3306,-2.3903,-2.4228,-2.4338,-2.4744,-2.5619,-2.6648,-2.5685,-2.5487,-2.5746,0.0,0.0,0.0,0.0,-2.6064,-2.6198,0.0,0.0,0.0,0.0,0.0,0.0,0.0,0.0,0.0,0.0,0.0,0.0,-2.809,-2.7911,-2.8162,-2.9281,-3.0357,-3.0687,-3.0064,-3.0607,0.0,-3.1564,-3.2018,-3.3085,-3.4874,-3.323,-3.2213,-3.2034,-3.4934,-3.5687,-3.4491,-3.4699,-3.497,-3.5237,-3.4386,-3.5504,-3.7864,-3.5336,-3.4162,-3.3784,0.0,0.0,0.0,0.0,0.0,0.0,0.0,0.0,0.0,0.0,0.0,0.0,0.0,0.0,0.0,0.0,0.0,0.0,0.0,0.0,0.0,0.0,0.0,0.0,0.0,0.0,0.0,0.0,0.0,0.0,0.0,0.0,0.0,0.0,0.0,0.0,0.0,-3.0425,-3.0605,-2.8938,-2.8642,-2.807,0.0,0.0,0.0,0.0,0.0,0.0,-2.421,-2.4339,-2.395,-2.3083,-2.321,-2.2826,-2.1631,-2.1533,-2.1529,-2.1513,-2.1617,-2.1869,-2.2123,-2.2974,-2.3446,-2.3592,-2.4151,-2.4441,-2.4376,-2.449,-2.4465,-2.4285,-2.4492,-2.4605,-2.4808,-2.4667,-2.4921,-2.5031,0.0,0.0,0.0,0.0,0.0,0.0,0.0,0.0,0.0,0.0,0.0,-2.4951,-2.6409,-2.6427,-2.7104,-2.9054,-2.9372,-2.9817,-3.0483,-2.9633,-2.9071,-2.9093,-2.9077,-2.8916,-2.8765,-2.8053,-2.7728,-2.7806,-2.9058,-2.9903,-3.0224,-3.1808,-3.3359,-3.4813,-3.3712,-3.462,-3.6736,-3.4523,-3.4609,-3.6061,-3.2719,0.0,0.0,0.0,0.0,0.0,0.0,0.0,0.0,0.0,0.0,0.0,0.0,0.0,0.0,0.0,0.0,0.0,0.0,0.0,0.0,0.0,0.0,0.0,0.0,0.0,0.0,0.0,0.0,0.0,0.0,0.0,0.0,0.0,0.0,0.0,0.0,0.0,0.0,-2.7709,-2.6014,0.0,0.0,0.0,0.0,-2.4616,-2.4663,-2.4245,-2.3445,-2.3526,-2.2855,-2.1001,-2.1401,-2.1133,-2.0015,-2.0191,-1.9725,-1.8625,-1.9544,-1.9926,-1.9869,-2.089,-2.1363,-2.1363,-2.1353,-2.1446,-2.1592,-2.3805,-2.4934,-2.54,-2.5341,-2.5624,-2.5838,-2.4001,-2.3464,-2.3478,0.0,0.0,0.0,0.0,0.0,0.0,0.0,0.0,-2.4595,-2.4334,-2.4133,-2.3809,-2.3501,-2.315,-2.3271,-2.4103,-2.4448,-2.4747,-2.5024,-2.5295,-2.5965,-2.7261,-2.7508,-2.7646,-2.7647,-2.7658,-2.7423,-2.7144,-2.7489,-2.803,-2.8663,-2.9145,-2.969,-3.0502,-3.0604,-3.1681,-3.3236,-3.3238,-3.3497,-3.3858,-3.2682,-3.1658,0.0,0.0,0.0,0.0,0.0,0.0,0.0,0.0,0.0,0.0,0.0,0.0,0.0,0.0,0.0,0.0,0.0,0.0,0.0,0.0,0.0,0.0,0.0,0.0,0.0,0.0,0.0,0.0,0.0,0.0,0.0,0.0,0.0,0.0,0.0,0.0,0.0,-2.6336,-2.5706,0.0,-2.431,-2.3268,-2.2719,-2.2847,-2.2102,-2.17,-2.1898,-2.1312,-2.0676,-2.0295,-1.9669,-1.9261,-1.8995,-1.8953,-1.8764,-1.8436,-1.8698,-1.8852,-1.8997,-1.982,-2.0304,-2.0403,-2.0797,-2.1036,-2.1242,-2.193,-2.2252,-2.2455,-2.233,-2.2399,-2.2411,-2.1017,-2.0594,-2.0533,0.0,0.0,0.0,0.0,0.0,0.0,0.0,0.0,-2.3593,-2.283,-2.2701,-2.2248,-2.1126,-2.0671,-2.0568,-2.0982,-2.1306,-2.1498,-2.1643,-2.2541,-2.3778,-2.5304,-2.5582,-2.5494,-2.506,-2.5268,-2.5137,-2.4748,-2.5384,-2.6042,-2.6652,-2.7091,-2.7755,-2.8528,-2.908,-2.9867,-3.0872,-3.1712,-3.2295,-3.2665,-3.2358,-3.1533,-3.0371,0.0,0.0,0.0,0.0,0.0,0.0,0.0,0.0,0.0,0.0,0.0,0.0,0.0,0.0,0.0,0.0,0.0,0.0,0.0,0.0,0.0,0.0,0.0,0.0,0.0,0.0,0.0,0.0,0.0,0.0,0.0,0.0,0.0,0.0,-2.5058,-2.4424,-2.5271,-2.453,-2.3794,-2.3315,-2.221,-2.151,-2.1491,-2.074,-2.0507,-2.114,-2.0105,-1.9622,-1.9938,-1.8886,-1.8158,-1.8042,-1.7939,-1.7718,-1.7489,-1.7663,-1.7828,-1.7962,-1.8794,-1.9456,-1.9935,-2.0161,-2.0501,-2.0686,-2.0474,-2.0144,-2.0015,-2.0526,-2.0752,-2.0561,-1.9118,-1.8638,-1.8547,0.0,0.0,0.0,0.0,0.0,0.0,0.0,-2.1725,-2.1198,-2.0468,-2.0368,-2.0078,-1.9495,-1.9181,-1.9383,-2.0188,-2.0329,-2.0615,-2.1076,-2.177,-2.2518,-2.3229,-2.3197,-2.2371,-2.0586,-2.0597,-2.0609,-2.0565,-2.2373,-2.3484,-2.3952,-2.5801,-2.7538,-2.9039,-2.9138,-2.9512,-2.9938,-2.9953,-3.1146,-3.2874,-3.183,-3.1131,-3.0663,0.0,0.0,0.0,0.0,0.0,0.0,0.0,0.0,0.0,0.0,0.0,0.0,0.0,0.0,0.0,0.0,0.0,0.0,0.0,0.0,0.0,0.0,0.0,0.0,0.0,0.0,0.0,0.0,0.0,0.0,0.0,0.0,0.0,-2.4082,-2.372,-2.3421,-2.4407,-2.2321,-2.0958,-2.1421,-2.0685,-2.0412,-2.0809,-2.0837,-2.0932,-2.1149,-2.0223,-1.9745,-1.9835,-1.8814,-1.7851,-1.7047,-1.7047,-1.6501,-1.5404,-1.6349,-1.6743,-1.6681,-1.7709,-1.8735,-1.9657,-1.9455,-1.9481,-1.9657,-1.9455,-1.8937,-1.8363,-2.0325,-2.1075,-2.0862,-1.8702,-1.78,-1.7516,0.0,0.0,0.0,0.0,0.0,0.0,0.0,-2.1411,-2.1198,-2.0443,-2.0243,-1.9726,-1.8509,-1.8036,-1.8049,-1.8592,-1.8613,-1.9233,-2.07,-2.1186,-2.1811,-2.2645,-2.1698,-2.1007,-2.08,-2.0342,-2.0283,-2.0565,-2.1252,-2.1634,-2.1793,-2.2964,-2.4326,-2.5801,-2.6653,-2.7876,-2.9218,-2.9689,-3.0178,-3.0481,-3.0759,-3.1019,-3.1081,0.0,0.0,0.0,0.0,0.0,0.0,0.0,0.0,0.0,0.0,0.0,0.0,0.0,0.0,0.0,0.0,0.0,0.0,0.0,0.0,0.0,0.0,0.0,0.0,0.0,0.0,0.0,0.0,0.0,0.0,0.0,-1.9727,-2.0018,-2.2259,-2.1525,-2.0979,-2.1562,-2.1303,-2.1128,-2.1279,-2.1086,-2.0885,-2.0847,-2.0837,-2.0866,-2.0932,-1.9271,-1.8525,-1.8615,-1.703,-1.5922,-1.5681,-1.5681,-1.5566,-1.5248,-1.5524,-1.5692,-1.565,-1.6681,-1.7616,-1.8634,-1.9179,-1.9481,-1.9657,-1.9455,-1.8937,-1.8269,-1.8828,-1.9015,-1.8803,-1.7411,-1.6278,-1.534,0.0,0.0,0.0,0.0,0.0,0.0,0.0,-2.1332,-2.1029,-1.9191,-1.9616,-1.9288,-1.7113,-1.7086,-1.7319,-1.7672,-1.8386,-1.9074,-1.958,-2.029,-2.0731,-2.0838,-2.0217,-1.981,-1.9682,-1.9653,-1.9895,-2.033,-2.0712,-2.0899,-2.0899,-2.1565,-2.2625,-2.4239,-2.5448,-2.672,-2.8081,-2.9022,-2.9289,-2.9027,-2.9472,-3.0249,-3.1079,-3.1061,-3.1005,-3.0922,-3.0616,-3.1271,-3.226,-3.1931,0.0,0.0,0.0,0.0,0.0,0.0,0.0,0.0,0.0,0.0,0.0,0.0,0.0,0.0,0.0,0.0,0.0,0.0,0.0,0.0,0.0,0.0,0.0,0.0,-1.7927,-1.7998,-1.9738,-2.0019,-2.0195,-2.062,-2.0809,-2.0941,-2.1026,-2.096,-2.0856,-2.0724,-2.0624,-2.0624,-2.0624,-1.8866,-1.7981,-1.8168,-1.6278,-1.5276,-1.5276,-1.5276,-1.5248,-1.5181,-1.5181,-1.5181,-1.5275,-1.6213,-1.7242,-1.8261,-1.9087,-1.9297,-1.9099,-1.8811,-1.8005,0.0,0.0,0.0,0.0,0.0,-1.5723,-1.4597,0.0,0.0,0.0,0.0,0.0,0.0,0.0,-2.1462,-2.0886,-1.7683,-1.8901,-1.8885,-1.581,-1.6372,-1.7036,-1.7178,-1.8877,-1.9419,-1.817,-1.9127,-1.9286,-1.8309,-1.8605,-1.8527,-1.7873,-1.8683,-1.9357,-1.9897,-2.0543,-2.0819,-2.091,-2.1136,-2.2081,-2.3691,-2.4988,-2.6037,-2.6987,-2.8264,-2.8583,-2.8197,-2.8281,-2.9174,-3.0574,-3.0942,-3.1576,-3.2125,-3.2143,-3.1941,-3.1646,-3.1718,0.0,0.0,0.0,0.0,0.0,0.0,0.0,0.0,0.0,0.0,0.0,0.0,0.0,0.0,0.0,0.0,0.0,0.0,0.0,0.0,0.0,0.0,0.0,0.0,-1.5897,-1.5555,-1.7157,-1.8891,-2.0159,-2.0671,-2.0629,-2.0592,-2.0818,-2.0658,-2.0535,-2.0507,-2.0507,-2.0507,-2.0507,-1.8871,0.0,0.0,0.0,-1.5479,-1.5384,-1.5384,-1.5316,-1.5181,-1.5181,-1.5181,-1.5275,-1.6213,-1.7149,-1.8075,-1.9021,-1.8853,-1.8067,-1.7997,-1.6818,-1.5368,-1.7149,-1.788,-1.7755,-1.6649,-1.5568,-1.4713,0.0,0.0,0.0,0.0,0.0,0.0,0.0,-2.1964,-2.1471,-1.9139,-1.9387,-1.871,-1.6009,-1.6263,-1.6656,-1.6599,-1.7938,-1.861,-1.8237,-1.7832,-1.716,-1.617,-1.5963,-1.6168,-1.7035,-1.8213,-1.905,-1.9646,-2.0153,-2.0591,-2.0899,-2.0953,-2.1814,-2.3326,-2.4621,-2.5897,-2.7073,-2.8025,-2.8181,-2.7748,-2.7947,-2.8538,-2.9271,-2.9297,-2.9853,-3.0577,-3.0515,-3.1927,-3.3731,-3.3731,-3.3819,-3.4008,-3.3775,-3.2664,0.0,0.0,0.0,0.0,0.0,0.0,0.0,0.0,0.0,0.0,0.0,0.0,0.0,0.0,0.0,0.0,0.0,0.0,0.0,-1.584,-1.5579,-1.5737,-1.6514,-1.7551,-1.8796,-2.0365,-2.0412,-2.0431,-2.08,-2.0658,-2.0469,-2.0289,-2.028,-2.028,-2.028,-1.9303,-1.8499,-1.7949,-1.7009,-1.6068,-1.5228,-1.5228,-1.5215,-1.5181,0.0,0.0,-1.5275,-1.6213,-1.6774,-1.7048,-1.8879,-1.8609,-1.7048,-1.7856,-1.7025,-1.5275,-1.565,-1.5673,-1.5547,-1.5202,-1.4867,-1.4536,0.0,0.0,0.0,0.0,0.0,0.0,0.0,-2.1793,-2.1473,-1.9378,-1.9923,-1.9518,-1.7076,-1.7506,-1.7876,-1.7771,-1.7792,-1.7882,-1.801,-1.6118,-1.4669,-1.3862,-1.3815,-1.4338,-1.5532,-1.7456,-1.8641,-1.9145,-2.0255,-2.0932,-2.1093,-2.1093,-2.1468,-2.2303,-2.3576,-2.4853,-2.6122,-2.7231,-2.7721,-2.7692,-2.7611,-2.7583,-2.76,-2.8535,-2.9326,-3.0002,-3.0002,-3.1192,-3.273,-3.2555,-3.2932,-3.3458,-3.3664,-3.2484,-3.1102,0.0,0.0,0.0,0.0,0.0,0.0,0.0,0.0,0.0,0.0,0.0,0.0,0.0,0.0,-1.9352,-1.8637,0.0,-1.7663,-1.6832,-1.6191,-1.6164,-1.7137,-1.7668,-1.8574,-2.0327,-2.0261,-2.0233,-2.0648,-2.0412,-2.0185,-2.0081,-2.0072,-2.0072,-2.0072,-1.9284,-1.8484,-1.7762,-1.6934,-1.6133,-1.5181,-1.5181,-1.5181,-1.5181,-1.5181,-1.5181,-1.5275,-1.6213,-1.6962,-1.7523,-1.9015,-1.9159,-1.8306,-1.7844,-1.6661,-1.5181,-1.5181,-1.5099,-1.4964,-1.4882,-1.5034,-1.5326,0.0,0.0,0.0,0.0,0.0,0.0,0.0,-2.179,-2.1358,-1.9471,-2.0269,-2.0283,-1.8118,-1.8743,-1.9323,-1.9539,-1.8145,-1.7295,-1.734,-1.4679,-1.2692,-1.1947,-1.2357,-1.3269,-1.4479,-1.6695,-1.8098,-1.8516,-2.011,-2.0952,-2.1033,-2.1195,-2.1276,-2.1357,-2.2625,-2.3736,-2.4853,-2.6306,-2.7125,-2.7488,-2.715,-2.6704,-2.6328,-2.786,-2.8904,-2.9435,-2.9435,-3.0061,-3.0748,-3.0551,-3.0838,-3.1449,-3.2264,-3.1601,-3.062,-3.1152,-3.0946,0.0,0.0,0.0,0.0,0.0,0.0,0.0,0.0,-2.1018,-2.0037,-1.9167,-1.9304,-1.9473,-1.889,-1.868,-1.839,-1.7781,-1.6708,-1.6546,-1.7848,-1.8017,-1.8627,-2.0271,-2.0148,-2.0081,-2.0507,-2.0166,-1.994,-1.9977,-1.994,-1.9921,-1.9921,-1.9353,-1.8561,-1.7541,-1.7026,-1.6268,-1.5181,-1.5181,-1.5181,-1.5181,-1.5181,-1.5181,-1.5275,-1.6213,-1.7149,-1.7989,-1.8922,-1.9567,-1.98,-1.8017,-1.6517,-1.5462,-1.5744,-1.5666,-1.5561,-1.5348,-1.5717,-1.6211,0.0,0.0,0.0,0.0,0.0,0.0,0.0,0.0,-2.1635,-2.0459,-2.0484,-1.9856,-1.7987,-1.8597,-1.9654,-2.1019,-1.913,-1.7257,-1.5875,-1.4104,-1.2407,-1.0744,-1.2387,-1.3889,-1.5112,-1.6455,-1.7369,-1.7826,-1.8985,-1.9723,-2.013,-2.0952,-2.1276,-2.1357,-2.2625,-2.3256,-2.3564,-2.5688,-2.6575,-2.6554,-2.6454,-2.6454,-2.6562,-2.6522,-2.7115,-2.7982,-2.7982,-2.8532,-2.9345,-2.9597,-2.9493,-2.9453,-3.0031,-3.007,-2.9931,-3.0654,-3.0813,-3.0733,-3.1055,-2.8842,-2.6084,-2.456,-2.2362,-2.0714,0.0,-2.0128,-1.9026,-1.8567,-1.8679,-1.85,-1.7391,-1.7341,-1.7248,-1.6122,-1.5927,-1.6329,-1.768,-1.7831,-1.8435,-2.0055,-2.0053,-2.0081,-2.0507,-2.0166,-1.9996,-2.0176,-2.0015,-1.9921,-1.9921,-2.0112,-1.9428,-1.764,-1.7873,-1.7126,-1.5181,-1.5181,-1.5181,-1.5181,-1.5181,-1.5181,-1.5275,-1.6213,-1.6774,-1.6962,-1.7896,-1.8938,-1.9608,-1.8489,-1.7445,-1.6587,-1.7523,-1.7779,-1.7638,-1.6665,-1.642,-1.6536,0.0,0.0,0.0,0.0,0.0,0.0,0.0,0.0,0.0,-2.2804,-2.1921,-2.1072,-2.0323,-2.0566,-2.1055,-2.1599,-1.9575,-1.7619,-1.6102,-1.4322,-1.2615,-1.101,-1.237,-1.3403,-1.3886,-1.5714,-1.6875,-1.715,-1.8861,-1.9805,-2.0049,-2.0871,-2.1276,-2.1357,-2.1831,-2.2545,-2.3324,-2.4727,-2.561,-2.6144,-2.6156,-2.6432,-2.6659,-2.5954,-2.6583,-2.7878,-2.8335,-2.9121,0.0,-2.9668,-2.9913,-3.0329,-2.9981,-2.9167,-2.8425,-2.9275,-2.8982,-2.8302,-2.7613,-2.6507,-2.5135,-2.2955,-2.212,-2.1611,-2.0837,-2.0333,-1.9739,-1.8751,-1.8702,-1.8782,-1.8509,-1.8714,-1.875,-1.8529,-1.8552,-1.8714,-1.914,-1.9111,-1.9241,-1.9946,-2.0289,-2.0501,-2.0318,-2.0091,-1.9959,-2.0044,-1.9968,-1.9921,-1.9921,-2.0195,-1.9509,-1.7632,-1.7884,-1.7134,-1.5181,-1.5744,-1.5744,-1.5181,-1.5838,-1.5744,-1.5181,-1.565,-1.6494,-1.7709,-1.9406,-1.9958,-1.9683,-1.9967,-1.91,-1.7709,-1.9276,-1.9546,-1.8888,-1.8441,-1.8626,-1.904,0.0,0.0,0.0,0.0,0.0,0.0,0.0,0.0,0.0,0.0,-2.3696,-2.3036,-2.3057,-2.2415,-2.2223,-2.2659,-2.0617,-1.8552,-1.7029,-1.5293,-1.3619,-1.1893,-1.2653,-1.3422,-1.3902,-1.5635,-1.6798,-1.7264,-1.9062,-1.9967,-2.0049,-2.0871,-2.1276,-2.1276,-2.1276,-2.1831,-2.2786,-2.4215,-2.5176,-2.575,-2.6468,-2.6861,-2.6952,-2.6301,-2.6784,-2.7819,-2.8164,-2.8985,-2.9797,-2.8801,-2.9135,-2.9837,-2.891,-2.7827,-2.7162,-2.808,-2.7676,-2.6535,-2.4715,-2.4356,-2.3951,-2.164,-2.1527,-2.1621,-2.038,-2.0229,-2.0101,-1.9008,-1.9119,-1.9487,-1.9711,-2.0199,-2.0558,-2.093,-2.1038,-2.1018,-2.095,-2.0743,-2.0519,-2.0519,-2.1009,-2.1104,-2.0802,-2.0492,-2.023,-2.0081,-1.9987,-1.9921,-1.9921,-2.011,-1.9391,-1.7469,-1.8234,-1.7772,-1.5953,-1.7204,-1.7507,-1.6853,-1.76,-1.7507,-1.6853,-1.7133,-1.7632,-1.8445,-2.1049,-2.157,-2.0603,-2.1673,-2.1077,-1.9555,-2.1306,-2.149,-2.0844,-2.1121,-2.1128,-2.0866,0.0,0.0,0.0,0.0,0.0,0.0,0.0,0.0,0.0,0.0,0.0,0.0,0.0,-2.3505,-2.2813,-2.4803,-2.2604,-2.0271,-1.8358,-1.734,-1.5682,-1.3245,-1.3404,-1.4381,-1.6061,-1.6495,-1.7337,-1.8654,-1.9551,-1.9967,-2.0049,-2.0871,-2.1276,-2.1276,-2.1276,-2.1357,-2.1518,-2.4442,-2.5465,-2.5413,-2.7597,-2.8074,-2.7548,-2.7858,-2.782,-2.74,-2.6733,-2.7154,-2.7802,-2.6027,-2.5862,-2.6344,-2.5466,-2.5594,-2.6264,-2.743,-2.7493,-2.6569,-2.3916,-2.2692,-2.1857,-2.0395,-1.9732,-1.9391,-1.9372,-1.9524,-1.9467,-1.9051,-1.9639,-2.0228,-2.0249,-2.117,-2.1988,-2.2235,-2.2471,-2.2611,-2.2611,-2.2407,-2.2257,-2.2257,-2.2042,-2.1988,-2.2246,-2.1611,-2.1046,-2.0488,-2.0148,-1.9921,-1.9921,-2.011,-1.9328,-1.7372,-1.9518,-1.9806,-1.7792,-1.9903,-2.0936,-2.0927,-2.0936,-2.0936,-2.0927,-2.1942,-2.0955,-1.8617,-2.2337,-2.3454,-2.2616,-2.3638,-2.3444,-2.2596,-2.3617,-2.3984,-2.4064,-2.5092,-2.3617,-2.1166,0.0,0.0,0.0,0.0,0.0,0.0,0.0,0.0,0.0,0.0,0.0,0.0,0.0,0.0,0.0,0.0,-2.4314,-2.2343,-2.1687,-2.0005,-1.8527,-1.7334,-1.7645,-1.7961,-1.8442,-1.8327,-1.8468,-1.8946,-1.9504,-1.9745,-1.9755,-2.1442,-2.2075,-2.1918,-2.3008,-2.3471,-2.3605,-2.5542,-2.6366,-2.652,-2.698,-2.7695,-2.8495,-2.7705,-2.8259,-2.9287,0.0,-2.8801,-2.9243,-2.7209,-2.6645,-2.6588,-2.5019,-2.4502,-2.4695,-2.5505,-2.535,-2.4489,-2.2518,-2.1356,-2.0488,-1.9437,-1.9234,-1.9297,-1.9297,-1.9354,-1.9485,-1.9791,-1.9779,-1.9965,-2.093,-2.1189,-2.1535,-2.2182,-2.2535,-2.2686,-2.2686,-2.2837,-2.2772,-2.2374,-2.2906,-2.3154,-2.2557,-2.215,-2.1977,-2.1942,-2.1296,-2.1128,-2.1735,-2.1329,-2.0822,-2.0097,-2.1132,-2.1072,-1.9788,-2.1283,-2.1757,-2.1121,-2.1121,-2.1121,-2.1121,-2.2126,-2.2162,-2.1536,-2.351,-2.4138,-2.3942,-2.497,-2.4686,-2.38,-2.5366,-2.5651,-2.5183,-2.6197,-2.5468,-2.4043,0.0,0.0,0.0,0.0,0.0,0.0,0.0,0.0,0.0,0.0,0.0,0.0,0.0,0.0,0.0,0.0,0.0,-2.4967,-2.4753,-2.3187,-2.204,-2.1629,-2.0935,-2.09,-2.1588,-2.0887,-2.0995,-2.1881,-2.2117,-2.2237,-2.228,-2.3545,-2.3774,-2.314,-2.4212,-2.4611,-2.4559,-2.6279,-2.7061,-2.7211,-2.761,-2.8325,-2.9017,-2.818,-2.8544,0.0,-2.9181,-2.9413,-2.9572,-2.7677,-2.6954,-2.6608,-2.4945,-2.4237,-2.3914,-2.353,-2.346,-2.3097,-2.0991,-2.0363,-2.0005,-1.8957,-1.9042,-1.9382,-1.9316,-1.9608,-1.9887,-2.0096,-2.0252,-2.0593,-2.1464,-2.1717,-2.2018,-2.2933,-2.341,-2.3604,-2.3424,-2.3861,-2.3847,-2.3016,-2.3716,-2.4079,-2.3488,-2.3098,-2.2631,-2.2349,-2.1762,-2.1644,-2.2168,-2.1782,-2.1494,-2.1386,-2.2459,-2.2599,-2.167,-2.3178,-2.3577,-2.3034,-2.3198,-2.2913,-2.2245,-2.3546,-2.3744,-2.3023,-2.4888,-2.5408,-2.5224,-2.6156,-2.6155,-2.5457,-2.6573,-2.6664,-2.6209,-2.6755,-2.6664,-2.5889,0.0,0.0,0.0,0.0,0.0,0.0,0.0,0.0,0.0,0.0,0.0,0.0,0.0,0.0,0.0,0.0,0.0,0.0,-2.7567,-2.6647,-2.6019,-2.5682,-2.3461,-2.3193,-2.53,-2.4102,-2.4559,-2.6939,-2.6866,-2.685,-2.6934,-2.6942,-2.621,-2.4842,-2.4917,-2.4756,-2.4563,-2.6865,-2.7707,-2.7614,-2.9437,-2.9764,-2.9179,-2.9123,-2.8862,-2.8613,-2.8937,-2.903,-2.8833,-2.7427,-2.6734,-2.618,-2.5099,-2.448,-2.3833,-2.1793,-2.202,-2.2358,-1.9541,-1.9755,-2.039,-1.9178,-1.9285,-1.9676,-1.9485,-2.0164,-2.0695,-2.012,-2.1097,-2.1975,-2.1869,-2.2466,-2.3381,-2.4338,-2.4963,-2.516,-2.478,-2.5278,-2.5216,-2.4064,-2.4303,-2.4615,-2.4855,-2.4144,-2.306,-2.1663,-2.1605,-2.1612,-2.1486,-2.1389,-2.1379,-2.1542,-2.3511,-2.4269,-2.3499,-2.5325,-2.6363,-2.6616,-2.6882,-2.612,-2.4469,-2.6176,-2.5559,-2.3179,-2.637,-2.7184,-2.6446,-2.7377,-2.7752,-2.7649,-2.7208,-2.7027,-2.7027,-2.7027,-2.7027,-2.6719,0.0,0.0,0.0,0.0,0.0,0.0,0.0,0.0,0.0,0.0,0.0,0.0,0.0,0.0,0.0,0.0,0.0,0.0,-2.9172,-2.8069,-2.7422,-2.7491,-2.6888,-2.6853,-2.739,-2.6753,-2.6703,-2.7322,-2.6465,-2.5996,-2.6035,-2.6367,-2.6222,-2.572,-2.6922,-2.7431,-2.7476,-2.8416,-2.8873,-2.9091,-2.8801,-2.8995,-2.9509,-2.8906,-2.8982,-2.9355,-2.9758,-2.969,-2.9179,-2.7435,-2.5899,-2.4622,-2.385,-2.3707,-2.3536,-2.253,-2.2259,-2.2035,-2.0789,-2.0727,-2.0963,-2.1028,-2.115,-2.1238,-2.1344,-2.1061,-2.0943,-2.1268,-2.1275,-2.1493,-2.2422,-2.2329,-2.231,-2.3281,-2.3238,-2.3198,-2.3249,-2.3721,-2.3775,-2.2834,-2.3223,-2.3331,-2.3043,-2.317,-2.2739,-2.147,-2.1383,-2.2307,-2.4235,-2.3106,-2.2934,-2.4309,-2.5083,-2.5422,-2.5219,-2.6061,-2.646,-2.6327,-2.6604,-2.6504,-2.5998,-2.6277,-2.6229,-2.6017,-2.722,-2.7546,-2.739,-2.8236,-2.8198,-2.7649,-2.7558,-2.7299,-2.7027,-2.7027,-2.7027,-2.6833,0.0,0.0,0.0,0.0,0.0,0.0,0.0,0.0,0.0,0.0,0.0,0.0,0.0,0.0,0.0,0.0,0.0,0.0,0.0,-3.0423,-3.0209,-3.0786,-2.9995,-2.973,-3.0156,-2.9484,-2.9217,-2.955,-2.9223,-2.8841,-2.8374,-2.8658,-2.8077,-2.6946,-2.7835,-2.8161,-2.8077,-2.8648,-2.9042,0.0,0.0,-2.911,-2.9627,-2.9179,-2.9355,-2.9878,-3.0303,-2.9984,-2.9276,-2.8104,-2.6543,-2.4905,-2.3865,-2.3538,-2.329,-2.2416,-2.1802,-2.1383,-2.1045,-2.0857,-2.0922,-2.1342,-2.134,-2.1203,-2.1224,-2.0941,-2.0759,-2.1239,-2.1254,-2.1446,-2.2353,-2.2076,-2.1897,-2.2758,-2.2609,-2.2353,-2.2263,-2.2973,-2.3104,-2.2092,-2.2523,-2.2772,-2.2514,-2.2718,-2.2826,-2.2524,-2.2263,-2.2707,-2.4149,-2.3634,-2.3978,-2.5348,-2.5578,-2.5651,-2.5651,-2.6194,-2.6315,-2.6049,-2.6447,-2.658,-2.646,-2.6423,-2.6496,-2.6677,0.0,-2.7553,-2.7578,-2.8123,-2.8148,-2.7649,-2.7468,-2.7208,-2.7027,-2.7027,-2.7027,-2.6936,0.0,0.0,0.0,0.0,0.0,0.0,0.0,0.0,0.0,0.0,0.0,0.0,0.0,0.0,0.0,0.0,0.0,0.0,0.0,0.0,-3.2963,-3.3726,-3.2248,-3.174,-3.2575,-3.1681,-3.1537,-3.215,-3.2645,-3.2459,-3.1755,-3.1421,-3.0176,-2.8179,-2.8002,-2.7813,-2.7582,-2.8192,-2.8648,-2.9048,-2.9319,-2.9452,-2.9512,0.0,-2.9711,-3.0158,-3.0717,-3.0165,-2.9221,-2.9064,-2.7795,-2.5951,-2.4507,-2.3756,-2.3265,-2.234,-2.1656,-2.1272,-2.1437,-2.1408,-2.1312,-2.1613,-2.1357,-2.0946,-2.0583,-2.0524,-2.0592,-2.0742,-2.1246,-2.1697,-2.2058,-2.191,-2.2006,-2.2702,-2.2523,-2.2129,-2.1782,-2.2448,-2.2599,-2.1555,-2.1981,-2.2395,-2.2514,-2.2514,-2.2945,-2.3806,-2.3478,-2.3163,-2.3042,-2.3754,-2.4527,-2.5348,-2.547,-2.547,-2.5433,-2.5953,-2.6073,-2.5784,-2.6291,-2.6423,-2.623,-2.6435,-2.6435,-2.6291,-2.6965,-2.733,-2.7355,-2.7718,-2.783,-2.7739,-2.739,-2.7118,-2.7118,-2.7027,-2.7027,-2.7027,0.0,0.0,0.0,0.0,0.0,0.0,0.0,0.0,0.0,0.0,0.0,0.0,0.0,0.0,0.0,0.0,0.0,0.0,0.0,0.0,0.0,-3.2183,-3.1868,-3.181,-3.1971,-3.1774,-3.1736,-3.1896,-3.1111,-3.0957,-3.1327,-2.9617,-2.8888,-2.9056,-2.8199,-2.7785,-2.773,-2.7846,-2.8141,-2.8523,-2.8568,-2.8792,-2.9067,-2.9071,0.0,0.0,-3.1686,-3.0696,-2.8869,-2.9603,-2.8354,-2.6128,-2.4998,-2.4354,-2.4112,-2.4278,-2.4048,-2.4022,-2.5393,-2.5589,-2.531,-2.4901,-2.4363,-2.3627,-2.2631,-2.1849,-2.1337,-2.1189,-2.1747,-2.2238,-2.2293,-2.2595,-2.2986,-2.3263,-2.2441,-2.1753,-2.1852,-2.1091,-2.0492,-2.0544,-2.0267,-2.0488,-2.1455,-2.1562,-2.1908,-2.2859,-2.3581,-2.4195,-2.4921,-2.4604,-2.4713,-2.536,-2.5651,-2.5651,-2.5446,-2.5953,-2.5977,-2.5506,-2.582,-2.6061,-2.6218,-2.6049,-2.6194,-2.6568,-2.7051,0.0,-2.7355,-2.8527,-2.8732,-2.8384,-2.8294,-2.7933,-2.7558,-2.7118,-2.7027,-2.7027,0.0,0.0,0.0,0.0,0.0,0.0,0.0,0.0,0.0,0.0,-4.0283,-3.8436,0.0,0.0,0.0,0.0,0.0,0.0,0.0,0.0,0.0,0.0,-3.196,-3.1556,-3.1556,-3.1776,-3.1796,-3.1556,0.0,-3.1286,-3.1073,-3.0084,-2.9316,-2.8834,-2.8341,-2.8037,-2.7846,-2.7846,-2.8199,-2.87,-2.87,-2.9057,-2.9545,0.0,0.0,0.0,-3.2655,-3.1321,-2.8964,-2.9834,-2.8247,-2.5881,-2.5413,-2.4933,-2.4611,-2.4752,-2.4927,-2.5316,-2.6233,-2.6584,-2.6626,-2.6584,-2.5303,-2.4017,-2.3956,-2.243,-2.1269,-2.1587,-2.1991,-2.2294,-2.2245,-2.2568,-2.2916,-2.3052,-2.2125,-2.1402,-2.1696,-2.1427,-2.1066,-2.083,-2.1047,-2.1426,-2.1807,-2.2353,-2.2945,-2.3376,-2.4436,-2.489,-2.4761,-2.4867,-2.5137,-2.536,-2.5687,-2.5771,-2.5639,-2.5892,-2.5953,-2.5844,-2.5977,-2.6097,-2.6218,-2.6242,-2.6315,-2.6435,-2.7251,0.0,-2.7023,-2.8229,-2.833,-2.7752,-2.801,-2.7739,-2.739,-2.7377,-2.7208,-2.7027,0.0,0.0,0.0,0.0,0.0,0.0,0.0,-4.1848,-4.2821,-4.2979,-4.2855,-4.1105,-3.6815,-3.478,0.0,0.0,0.0,0.0,0.0,0.0,0.0,0.0,0.0,0.0,-3.1208,0.0,0.0,-3.1208,-3.1758,0.0,0.0,0.0,0.0,0.0,-2.8586,-2.8242,-2.7893,-2.7951,-2.8305,0.0,0.0,-2.9412,0.0,0.0,0.0,0.0,0.0,-3.1843,-2.9576,-3.0299,-2.8462,-2.5949,-2.6101,-2.5672,-2.5114,-2.5114,-2.5715,-2.648,-2.6979,-2.7473,-2.7955,-2.7995,-2.6259,-2.4661,-2.4891,-2.3043,-2.1412,-2.1965,-2.2225,-2.2306,-2.2218,-2.2666,-2.3154,-2.3216,-2.2481,-2.2084,-2.2321,-2.2473,-2.2355,-2.1669,-2.2292,-2.2708,-2.2575,-2.3398,-2.4035,-2.4395,-2.5196,-2.533,-2.4499,-2.5042,-2.5433,-2.5433,-2.5747,-2.588,-2.5832,-2.594,-2.6073,-2.6218,-2.6218,-2.6254,-2.6315,-2.6544,-2.6544,-2.6423,-2.7345,0.0,0.0,-2.7768,-2.7805,-2.739,-2.7739,-2.7739,-2.748,-2.7739,-2.7558,-2.7118,0.0,0.0,0.0,0.0,0.0,0.0,0.0,-4.178,-4.2519,-4.3487,-4.2749,-4.1533,-4.0072,-3.9628,0.0,0.0,0.0,0.0,0.0,0.0,0.0,0.0,0.0,0.0,0.0,0.0,0.0,-3.0937,-3.0565,0.0,0.0,0.0,0.0,0.0,0.0,-2.8332,-2.782,-2.8048,0.0,0.0,0.0,0.0,0.0,0.0,0.0,0.0,0.0,-3.2442,-3.0835,-3.1582,-2.9806,-2.7258,-2.7242,-2.6537,-2.578,-2.631,-2.7403,-2.8681,-2.9656,-3.0537,-3.0956,-3.0228,-2.8923,-2.7453,-2.5827,-2.4093,-2.2759,-2.2405,-2.2378,-2.2498,-2.2752,-2.3723,-2.4494,-2.4847,-2.4791,-2.4698,-2.4798,-2.4045,-2.3295,-2.2792,-2.2486,-2.2593,-2.3484,-2.3409,-2.3897,-2.5141,-2.5372,-2.548,-2.561,-2.548,-2.5433,-2.5433,-2.5928,-2.6073,-2.5832,-2.6315,-2.6447,-2.6218,-2.6218,-2.6351,-2.6604,-2.6629,-2.6749,-2.6966,-2.7256,-2.7232,0.0,-2.775,-2.817,-2.8384,-2.8384,-2.8655,-2.8912,-2.8565,-2.8113,-2.7649,0.0,0.0,0.0,0.0,0.0,0.0,0.0,-4.2051,-4.2987,-4.3929,-4.3454,-4.2812,-4.2338,-4.1995,0.0,0.0,0.0,0.0,0.0,0.0,0.0,0.0,0.0,0.0,0.0,0.0,-3.0898,-3.0898,-3.0957,0.0,0.0,0.0,0.0,0.0,0.0,-2.8732,-2.8498,-2.8206,0.0,0.0,0.0,0.0,0.0,0.0,0.0,0.0,0.0,0.0,-3.0583,-3.0874,-2.9509,-2.7758,-2.7672,-2.6939,-2.6018,-2.5941,-2.6899,-2.8206,-2.9455,-3.0447,-3.113,-3.1259,-2.9336,-2.724,-2.6885,-2.4549,-2.2471,-2.2727,-2.27,-2.2672,-2.2605,-2.3434,-2.4275,-2.4743,-2.4657,-2.4685,-2.5069,-2.4621,-2.4118,-2.3913,-2.4,-2.4202,-2.4422,-2.4435,-2.4638,-2.4939,-2.4951,-2.5071,-2.5337,-2.5409,-2.5433,-2.5433,-2.5796,-2.6013,-2.6061,-2.6278,-2.6496,-2.6701,-2.6544,-2.6616,-2.687,-2.687,-2.693,-2.7051,-2.8118,0.0,0.0,-2.8377,-2.8419,-2.7884,-2.8357,-2.8384,-2.8372,-2.8732,-2.8372,-2.7739,0.0,0.0,0.0,0.0,0.0,0.0,-4.0628,-4.1842,-4.3029,-4.3927,-4.382,-4.3552,-4.3325,-4.2687,-4.1268,-3.8695,0.0,0.0,0.0,0.0,0.0,0.0,0.0,0.0,0.0,0.0,-3.0957,-3.1074,-3.1367,-3.1582,0.0,0.0,-3.1401,-3.0847,0.0,0.0,0.0,0.0,0.0,0.0,0.0,0.0,0.0,0.0,0.0,0.0,0.0,0.0,0.0,0.0,0.0,-2.849,-2.8377,-2.7423,-2.6293,-2.5802,-2.6782,-2.8139,-2.9181,-3.0405,-3.168,-3.2375,-3.016,-2.787,-2.7992,-2.5262,-2.2728,-2.2982,-2.2863,-2.2699,-2.2579,-2.322,-2.3928,-2.4422,-2.4623,-2.4825,-2.5205,-2.5319,-2.5293,-2.5063,-2.5371,-2.5448,-2.5207,-2.5268,-2.5059,-2.4407,-2.454,-2.4673,-2.4806,-2.5059,-2.5277,-2.5433,-2.5615,-2.5832,-2.6097,-2.6266,-2.6532,-2.6918,-2.681,-2.6846,-2.7208,-2.7208,-2.7299,-2.7517,-2.8783,0.0,0.0,-2.8811,-2.8656,-2.7861,-2.8405,-2.837,-2.801,-2.8912,-2.8552,-2.7739,0.0,0.0,0.0,0.0,0.0,0.0,0.0,-4.0956,-4.2386,-4.3385,-4.3505,-4.3313,-4.2891,-4.1822,-4.0763,-3.9681,0.0,0.0,0.0,0.0,0.0,0.0,0.0,0.0,0.0,0.0,-3.1094,-3.1504,-3.1523,-3.1738,-3.2168,-3.2168,-3.1934,-3.1523,0.0,0.0,0.0,0.0,0.0,0.0,0.0,0.0,-3.2038,0.0,0.0,0.0,0.0,0.0,0.0,0.0,0.0,0.0,0.0,-2.8147,-2.6687,-2.632,-2.7526,-2.9078,-2.9198,-3.1109,-3.3272,-3.3668,-3.2059,-3.0115,-2.9129,-2.6589,-2.4207,-2.3225,-2.2687,-2.2512,-2.2806,-2.3354,-2.3875,-2.4155,-2.5184,-2.5838,-2.5558,-2.6507,-2.6972,-2.629,-2.617,-2.6125,-2.6013,-2.5545,-2.4911,-2.3888,-2.4335,-2.4516,-2.4263,-2.4492,-2.4878,-2.5421,-2.5446,-2.5566,-2.5832,-2.6363,-2.6641,-2.6641,-2.6906,-2.7196,-2.7727,-2.7727,-2.801,-2.8513,-2.9059,0.0,0.0,-2.8931,-2.8937,-2.8894,-2.8881,-2.8716,-2.8565,-2.9002,-2.8552,-2.7739,0.0,0.0,0.0,0.0,0.0,0.0,0.0,-4.1111,-4.1849,-4.2867,-4.2687,-4.2543,-4.2795,-4.1485,-4.0523,-4.0186,0.0,0.0,0.0,0.0,0.0,0.0,0.0,0.0,0.0,0.0,-3.125,-3.1094,-3.1953,-3.2324,-3.2229,-3.2461,-3.2273,-3.1646,-3.0672,-2.9809,0.0,0.0,0.0,0.0,0.0,-3.1176,-3.1983,0.0,0.0,0.0,0.0,0.0,0.0,0.0,0.0,0.0,0.0,0.0,0.0,-2.741,-2.7262,-2.7071,-2.682,-2.7804,-2.8982,-2.9305,-2.8423,-2.7278,-2.6428,-2.4787,-2.3311,-2.3011,-2.2633,-2.2579,-2.3086,-2.35,-2.3995,-2.469,-2.5277,-2.5758,-2.6066,-2.6092,-2.6107,-2.6334,-2.5816,-2.5295,-2.4982,-2.4578,-2.4102,-2.3852,-2.3997,-2.413,-2.4226,-2.4385,-2.4829,-2.5553,-2.5578,-2.5969,-2.6771,-2.6611,-2.6621,-2.6805,-2.7075,-2.7287,-2.7467,-2.8025,-2.8384,-2.8513,-2.9427,0.0,0.0,-2.9381,-2.9243,-2.8962,-2.8482,-2.8556,-2.8742,-2.8719,-2.886,-2.8924,0.0,0.0,0.0,0.0,0.0,0.0,0.0,-4.109,-4.1524,-4.2423,-4.1876,-4.1653,-4.2434,-4.086,-4.0042,-4.0643,0.0,0.0,0.0,0.0,0.0,0.0,0.0,0.0,0.0,-3.1152,-3.1387,-3.1621,-3.2402,-3.291,-3.3125,-3.3097,-3.2763,-3.2131,-3.0829,-2.9794,0.0,0.0,0.0,0.0,-3.0398,-3.0956,-3.1543,0.0,0.0,0.0,0.0,0.0,0.0,0.0,0.0,0.0,0.0,0.0,0.0,0.0,-2.7539,-2.7139,-2.6369,-2.6643,-2.7247,-2.7626,-2.7,-2.6128,-2.564,-2.4413,-2.3273,-2.2995,-2.2806,-2.2846,-2.31,-2.3581,-2.4035,-2.4369,-2.513,-2.5651,-2.5571,-2.5825,-2.6146,-2.6507,-2.5922,-2.5324,-2.4744,-2.4332,-2.4012,-2.384,-2.376,-2.3832,-2.4082,-2.4338,-2.4845,-2.5632,-2.5645,-2.5991,-2.6885,-2.6742,-2.6771,-2.7034,-2.7422,-2.7686,-2.7877,-2.8527,-2.8835,-2.9054,-2.9978,0.0,0.0,-3.0097,-2.9822,-2.9224,-2.8862,-2.8766,-2.8745,-2.8456,-2.8805,-2.9389,0.0,0.0,0.0,0.0,0.0,0.0,0.0,0.0,0.0,0.0,-4.1056,-4.0763,-4.1701,-4.0042,0.0,0.0,0.0,0.0,0.0,0.0,0.0,0.0,0.0,0.0,-3.0957,-3.0918,-3.1523,-3.2695,-3.2832,-3.3476,-3.4609,-3.4076,-3.3495,-3.2823,-3.1853,-3.0574,0.0,0.0,0.0,0.0,-3.0098,-3.0479,0.0,0.0,0.0,0.0,0.0,0.0,0.0,0.0,0.0,0.0,0.0,0.0,0.0,0.0,0.0,0.0,0.0,-2.7268,-2.7602,-2.7859,-2.7097,-2.6271,-2.6271,-2.5188,0.0,-2.3169,-2.314,-2.326,-2.3033,-2.3647,-2.4035,-2.3541,-2.4863,-2.5558,-2.4422,-2.5705,-2.6774,-2.6733,-2.6398,-2.5812,-2.5181,-2.4664,-2.4252,-2.384,-2.376,-2.384,-2.3852,-2.4252,-2.4844,-2.5592,-2.5592,-2.586,-2.6421,-2.6702,-2.697,-2.7152,-2.7724,-2.827,-2.8739,-2.9115,-2.9451,0.0,0.0,0.0,0.0,-3.087,-3.0462,-2.9746,-2.9721,-2.9287,-2.8663,-2.8272,-2.8624,-2.9288,0.0,0.0,0.0,0.0,0.0,0.0,0.0,0.0,0.0,0.0,0.0,-4.0331,-4.0186,-3.9705,0.0,0.0,0.0,0.0,0.0,0.0,0.0,0.0,0.0,0.0,-3.0957,-3.1211,-3.1523,-3.1816,-3.3125,-3.375,-3.375,-3.5244,-3.4696,-3.2636,-3.2717,-3.1425,0.0,0.0,0.0,0.0,-3.0534,-3.0882,0.0,0.0,0.0,0.0,-3.2203,-3.1983,0.0,0.0,0.0,0.0,0.0,0.0,0.0,0.0,-2.9478,-2.8415,-2.6777,0.0,-2.5197,-2.4078,-2.39,-2.4045,0.0,-2.3793,-2.3541,-2.3554,-2.3434,-2.3514,-2.4115,-2.4209,-2.4302,-2.4609,-2.5398,-2.5705,-2.4983,-2.5611,-2.6241,-2.6359,-2.5747,-2.5282,-2.4951,-2.4375,-2.3932,-2.384,-2.376,-2.3932,-2.4332,-2.4731,-2.5235,-2.5777,-2.6016,-2.6452,-2.7115,-2.7004,-2.7006,-2.7084,-2.7654,-2.813,-2.8539,-2.9181,-2.9744,-3.0274,0.0,0.0,-3.1062,-3.0949,-3.0782,-3.0501,-2.9526,-2.9306,-2.93,-2.8278,-2.8818,-3.0088,0.0,0.0,0.0,0.0,0.0,0.0,0.0,0.0,0.0,0.0,0.0,0.0,0.0,0.0,0.0,0.0,0.0,0.0,0.0,0.0,0.0,0.0,0.0,-3.1556,-3.0898,-3.1309,-3.1797,-3.2383,-3.3516,-3.4355,-3.4922,-3.5516,-3.4931,-3.3312,-3.2283,-3.1019,0.0,0.0,0.0,-3.0222,-3.0424,0.0,0.0,0.0,0.0,0.0,-3.2093,-3.1909,0.0,-3.2294,-3.2298,-3.2004,0.0,0.0,0.0,0.0,-2.9946,-2.8564,-2.6745,-2.5768,-2.4936,-2.3418,-2.3487,-2.3968,-2.4102,-2.3928,-2.3741,-2.3768,-2.3527,-2.3434,-2.3754,-2.3915,-2.4102,-2.4422,-2.497,-2.5384,-2.5464,-2.5985,-2.6387,-2.6466,-2.5959,-2.551,-2.5088,-2.438,-2.3977,-2.4214,-2.3927,-2.408,-2.4731,-2.497,-2.5289,-2.5753,-2.6228,-2.6613,-2.7054,-2.7115,-2.7162,-2.7293,-2.797,-2.8406,-2.8696,-2.9264,-2.9806,0.0,0.0,0.0,-3.1062,-3.1207,-3.1028,-3.0626,-3.0127,-2.9942,-2.999,-2.8981,-2.9594,-3.0767,0.0,0.0,0.0,0.0,0.0,0.0,0.0,0.0,0.0,0.0,0.0,0.0,0.0,0.0,0.0,0.0,0.0,0.0,0.0,0.0,0.0,0.0,0.0,-3.0918,-3.0996,-3.1269,-3.2051,-3.332,-3.3951,-3.5066,-3.6562,-3.5869,-3.5162,-3.4296,-3.1662,-3.042,0.0,0.0,-3.0319,-3.0204,-3.0204,0.0,0.0,0.0,0.0,0.0,0.0,0.0,0.0,-3.268,-3.2661,-3.2294,-3.2936,0.0,0.0,0.0,0.0,0.0,-2.6835,-2.6148,-2.561,-2.4069,-2.4142,-2.4636,-2.489,-2.4529,-2.4088,-2.3941,-2.3634,-2.334,-2.3166,-2.3594,-2.404,-2.4112,-2.4455,-2.5072,-2.5916,-2.6306,-2.6587,-2.668,-2.6241,-2.5805,-2.5361,-2.4541,-2.4215,-2.4634,-2.4227,-2.4308,-2.5066,-2.5184,-2.5448,-2.5911,-2.6228,-2.6507,-2.6747,-2.7054,-2.7321,-2.7575,-2.8177,-2.8617,-2.8911,-2.9259,-2.974,-3.0314,0.0,0.0,-3.0835,-3.1423,-3.1314,-3.0606,-3.0799,-3.076,-3.0457,-2.9879,-3.0256,-3.1102,0.0,0.0,0.0,0.0,0.0,0.0,0.0,0.0,0.0,0.0,0.0,0.0,0.0,0.0,0.0,0.0,0.0,0.0,0.0,0.0,0.0,-3.6531,-3.2901,-3.1055,-3.1406,-3.1133,-3.1621,-3.2891,-3.4384,-3.5468,-3.6152,-3.7744,-3.7144,-3.48,-3.2329,-3.1039,-3.0727,0.0,-3.0508,-3.0204,-3.0204,0.0,0.0,0.0,0.0,0.0,0.0,0.0,0.0,-3.2129,-3.257,-3.2991,-3.2771,0.0,0.0,0.0,0.0,0.0,-2.5937,-2.5912,-2.5755,-2.3866,-2.3834,-2.4289,-2.4329,-2.4075,-2.3968,-2.4409,-2.4075,-2.3834,-2.4275,-2.4649,-2.5026,-2.5384,-2.5452,-2.5677,-2.5943,-2.5611,-2.5531,-2.6026,-2.5555,-2.5153,-2.5309,-2.4854,-2.4518,-2.4277,-2.4667,-2.5015,-2.5244,-2.5543,-2.5911,-2.6307,-2.6386,-2.6413,-2.6453,-2.6747,-2.6907,-2.6961,-2.7562,-2.7989,-2.8297,-2.8858,-2.9432,-3.002,0.0,-3.0795,-3.0835,-3.1423,-3.149,-3.1075,-3.0988,-3.089,-3.0756,-2.9791,-3.0077,-3.1002,0.0,0.0,0.0,0.0,0.0,0.0,0.0,0.0,0.0,0.0,0.0,0.0,0.0,0.0,0.0,0.0,0.0,0.0,0.0,0.0,0.0,-3.8299,-3.4971,-3.298,-3.2725,-3.2555,-3.3091,-3.4402,-3.5671,-3.6582,-3.7321,-3.6769,-3.548,-3.3642,-3.1857,-3.1084,-3.1102,-3.1102,-3.0882,-3.0534,0.0,0.0,0.0,0.0,0.0,0.0,0.0,0.0,0.0,0.0,-3.0225,-3.048,-3.0293,0.0,0.0,0.0,0.0,0.0,-2.5319,-2.5143,-2.4939,-2.3803,-2.4008,-2.4476,-2.4636,-2.4088,-2.3701,-2.4289,-2.3941,-2.3607,-2.3875,-2.4168,-2.4369,-2.4356,-2.489,-2.5268,-2.5235,-2.5498,-2.5825,-2.5945,-2.5684,-2.5447,-2.5185,-2.4776,-2.4571,-2.467,-2.4662,-2.4906,-2.5634,-2.5596,-2.5833,-2.6386,-2.6386,-2.6386,-2.6386,-2.652,-2.6667,-2.6827,-2.7255,-2.7709,-2.8248,-2.8604,-2.9219,-2.9953,0.0,-3.0702,-3.0621,-3.137,-3.1303,-3.0822,-3.1154,-3.1099,-3.0822,-3.0353,-3.0642,-3.1339,0.0,0.0,0.0,0.0,0.0,0.0,0.0,0.0,0.0,0.0,0.0,0.0,0.0,0.0,0.0,0.0,0.0,0.0,0.0,0.0,-3.8581,-3.9198,-3.6582,-3.4922,-3.4463,-3.4003,-3.4485,-3.5836,-3.6567,-3.7159,-3.7628,-3.5257,-3.3576,-3.2441,-3.1441,-3.1111,-3.1249,-3.1341,-3.1157,-3.0809,0.0,0.0,0.0,0.0,0.0,0.0,0.0,0.0,0.0,0.0,0.0,0.0,0.0,0.0,0.0,-2.6775,-2.5599,-2.4495,-2.4567,-2.4302,-2.3968,-2.3808,-2.4209,-2.469,-2.493,-2.4222,-2.3674,-2.4195,-2.3834,-2.3447,-2.3527,-2.3839,-2.3995,-2.3556,-2.4302,-2.4822,-2.4318,-2.5198,-2.5814,-2.5678,-2.5651,-2.5464,-2.5024,-2.4737,-2.4661,-2.4983,-2.4696,-2.4906,-2.5838,-2.5594,-2.5766,-2.6386,-2.6386,-2.6386,-2.6386,-2.6386,-2.6507,-2.672,-2.7014,-2.7428,-2.8033,-2.8404,-2.9005,-2.9753,-3.0408,-3.0528,-3.0327,-3.1196,-3.1089,-3.0434,-3.1249,-3.1196,-3.0703,-3.0822,-3.1076,-3.1434,0.0,0.0,0.0,0.0,0.0,0.0,0.0,0.0,0.0,0.0,0.0,0.0,0.0,0.0,0.0,0.0,0.0,0.0,0.0,0.0,-3.7497,-3.8686,-3.6677,-3.5855,-3.6476,-3.4697,-3.4485,-3.5836,-3.6156,-3.6093,-3.5603,-3.4365,-3.3115,-3.2048,-3.1884,-3.1477,-3.0846,-3.1231,-3.1157,-3.0791,-3.0827,0.0,0.0,0.0,0.0,0.0,0.0,0.0,0.0,0.0,0.0,0.0,0.0,0.0,-2.5721,-2.5299,-2.4142,-2.3132,-2.3346,-2.341,-2.3447,-2.3714,-2.4209,-2.4649,-2.4663,-2.4396,-2.4222,-2.4543,-2.4142,-2.3821,-2.4088,-2.4734,-2.5018,-2.4481,-2.4812,-2.4741,-2.3831,-2.3953,-2.4298,-2.4655,-2.473,-2.4716,-2.4676,-2.4917,-2.497,-2.469,-2.5122,-2.5441,-2.5545,-2.5798,-2.6092,-2.6373,-2.6386,-2.6386,-2.6386,-2.6386,-2.64,-2.6426,-2.672,-2.7028,-2.7362,-2.8217,-2.8791,-2.9152,-3.002,-3.0221,-3.002,-3.0902,-3.0902,-3.0421,-3.1022,-3.0955,-3.0514,-3.0703,-3.0889,-3.0933,0.0,0.0,0.0,0.0,0.0,0.0,0.0,0.0,0.0,0.0,0.0,0.0,0.0,0.0,0.0,0.0,0.0,0.0,0.0,-3.5811,-3.7042,-3.856,-3.6428,-3.6329,-3.8694,-3.6264,-3.5572,-3.6848,-3.6347,-3.5701,-3.5007,-3.3053,-3.2008,-3.1598,-3.0806,-3.0858,-3.1477,-3.1193,-3.1193,-3.1495,-3.1285,-3.1102,0.0,0.0,0.0,0.0,0.0,0.0,0.0,0.0,-2.5023,-2.5166,-2.4951,-2.4551,-2.4136,-2.3762,-2.3202,-2.2645,-2.2953,-2.318,-2.3213,-2.2884,-2.3281,-2.3799,-2.4029,-2.3728,-2.3678,-2.4815,-2.4237,-2.3581,-2.3875,-2.379,-2.3628,-2.3336,-2.3447,-2.337,-2.3019,-2.33,-2.3655,-2.4029,-2.4102,-2.4168,-2.4356,-2.4476,-2.4569,-2.4636,-2.4836,-2.505,-2.5237,-2.5344,-2.5625,-2.6106,-2.6119,-2.6199,-2.6386,-2.6386,-2.6386,-2.6386,-2.6507,-2.68,-2.7281,-2.7802,-2.8404,-2.9085,-2.978,-3.002,-2.9967,-3.0662,-3.0608,-3.0127,-3.0528,-3.0703,-3.065,-3.0543,-3.0689,-3.0809,0.0,0.0,0.0,0.0,0.0,0.0,0.0,0.0,0.0,0.0,0.0,0.0,0.0,0.0,0.0,0.0,0.0,0.0,-3.3364,-3.4289,-3.5681,-3.7576,-3.5838,-3.6333,-3.9546,-3.7488,-3.6813,-3.7612,-3.6049,-3.4732,-3.3735,-3.1873,-3.0982,-3.0992,-3.0144,-3.0359,-3.1328,-3.0843,-3.0899,-3.1347,-3.1138,-3.0919,0.0,0.0,0.0,0.0,0.0,0.0,0.0,0.0,-2.3006,-2.3153,-2.3046,-2.3086,-2.314,-2.2926,-2.2712,-2.2605,-2.2806,-2.302,-2.3041,-2.2401,-2.2556,-2.291,-2.2839,-2.2815,-2.326,-2.453,-2.4022,-2.3394,-2.3594,-2.317,-2.2714,-2.2647,-2.2556,-2.2485,-2.2485,-2.2775,-2.3197,-2.3554,-2.3696,-2.3888,-2.4168,-2.4209,-2.4329,-2.4609,-2.4636,-2.477,-2.5064,-2.5077,-2.5304,-2.5798,-2.5812,-2.5959,-2.6253,-2.6253,-2.6306,-2.6386,-2.6386,-2.6653,-2.7134,-2.7522,-2.8083,-2.8791,-2.9486,-2.978,-2.982,-3.0408,-3.0421,-3.0074,-3.0274,-3.0488,-3.0635,-3.0434,-3.0541,-3.0782,0.0,0.0,0.0,0.0,0.0,0.0,0.0,0.0,0.0,0.0,0.0,0.0,0.0,0.0,0.0,0.0,0.0,0.0,-3.2352,-3.2156,-3.3056,-3.5565,-3.4831,-3.5771,-3.8712,-3.8331,-3.8049,-3.7906,-3.5169,-3.3014,-3.1484,-3.0761,-3.0316,-3.0185,-3.0148,-3.0124,-3.0204,-3.0204,-3.0204,-3.0204,-3.0204,-3.0424,-3.0681,0.0,0.0,0.0,0.0,0.0,0.0,0.0,-2.2928,-2.2913,-2.322,-2.3113,-2.2941,-2.2928,-2.2928,-2.2928,-2.2928,-2.2859,-2.2791,-2.2379,-2.2242,-2.1953,-2.0837,-2.1754,-2.2959,-2.363,-2.3527,-2.3327,-2.3327,-2.3073,-2.2884,-2.2828,-2.2447,-2.2167,-2.2167,-2.2421,-2.2742,-2.3112,-2.3541,-2.3875,-2.4168,-2.4195,-2.4315,-2.4609,-2.4636,-2.477,-2.5064,-2.5077,-2.5211,-2.5504,-2.5504,-2.5651,-2.6037,-2.6037,-2.6106,-2.6386,-2.6386,-2.6547,-2.6841,-2.7428,-2.7856,-2.8274,-2.9085,-2.9486,-2.9526,-3.0114,-3.0354,-3.0354,-3.0354,-3.0354,-3.0354,-3.0354,-3.0541,-3.0742,0.0,0.0,0.0,0.0,0.0,0.0,0.0,0.0,0.0,0.0,0.0,0.0,0.0,0.0,0.0,0.0,0.0,0.0,-3.1742,-3.1407,-3.2047,-3.3763,-3.3642,-3.4793,-3.7559,-3.7771,-3.7653,-3.7205,-3.5673,-3.4145,-3.2668,-3.1401,-3.0702,-3.0538,-3.027,-3.0097,-3.0087,-2.9886,-3.0113,-3.0538,-2.9996,-2.9837,-2.9874,0.0,0.0,0.0,0.0,0.0,0.0,0.0,0.0,0.0,-2.2726,-2.306,-2.338,-2.2739,-2.2859,-2.314,-2.2926,-2.2222,-2.1369,-2.0869,-2.0433,-1.9866,-1.917,-2.0281,-2.1564,-2.1984,-2.3177,-2.3852,-2.3142,-2.2752,-2.2443,-2.2196,-2.17,-2.1369,-2.1626,-2.1513,-2.1632,-2.2309,-2.2631,-2.2939,-2.3233,-2.3647,-2.4022,-2.4315,-2.4516,-2.4676,-2.4756,-2.4992,-2.5202,-2.5197,-2.5715,-2.5972,-2.6037,-2.6159,-2.6306,-2.6386,-2.6386,-2.6547,-2.6841,-2.7215,-2.7669,-2.8261,-2.8657,-2.9098,-2.9513,-2.99,-3.0047,-3.0047,-3.0047,-3.0047,-3.0047,-3.0047,-3.01,-3.0194,0.0,0.0,0.0,0.0,0.0,0.0,0.0,0.0,0.0,0.0,-3.6603,-3.5214,0.0,0.0,0.0,0.0,0.0,0.0,0.0,-3.1211,-3.1498,-3.2892,-3.3209,-3.4662,-3.7465,-3.7534,-3.7246,-3.6618,-3.5607,-3.469,-3.3776,-3.2137,-3.1298,-3.1091,-3.0391,-3.0023,-2.9883,-2.9536,-2.961,-2.9994,-2.9554,-2.9342,-2.9305,0.0,0.0,0.0,0.0,0.0,0.0,0.0,0.0,0.0,-2.2472,-2.2792,-2.3153,-2.2726,-2.2733,-2.2758,-2.2319,-2.1502,-2.0512,-1.9866,-1.932,-1.8857,-1.8106,-1.913,-2.0367,-2.0729,-2.1697,-2.245,-2.2362,-2.2071,-2.1846,-2.1898,-2.1434,-2.1185,-2.1384,-2.1251,-2.1264,-2.1714,-2.2071,-2.2405,-2.2887,-2.3263,-2.3581,-2.3995,-2.4302,-2.4462,-2.4462,-2.479,-2.4938,-2.4903,-2.5302,-2.5585,-2.5772,-2.5959,-2.6159,-2.6386,-2.6386,-2.648,-2.6667,-2.7081,-2.7455,-2.7913,-2.8497,-2.9045,-2.9499,-2.9793,-2.9913,-2.9927,-3.0047,-3.002,-2.9927,-3.0047,-3.002,-2.994,0.0,0.0,0.0,0.0,0.0,0.0,0.0,0.0,0.0,0.0,-3.4954,-3.4231,0.0,0.0,0.0,0.0,0.0,0.0,0.0,0.0,-3.146,-3.2571,-3.3367,-3.5114,-3.7983,-3.7366,-3.6738,-3.6263,-3.5404,-3.4812,-3.4518,-3.3,-3.2038,-3.1565,-3.0694,-3.0023,-2.9489,-2.92,-2.9016,-2.8938,-2.8938,-2.8938,-2.8938,-2.8938,0.0,0.0,0.0,0.0,0.0,0.0,0.0,0.0,-2.2324,-2.2284,-2.2364,-2.2657,-2.2384,-2.1798,-2.1269,-2.0589,-1.991,-1.9097,-1.8843,-1.8443,-1.7365,-1.802,-1.9038,-1.9669,-1.9652,-1.9973,-2.1279,-2.1228,-2.1176,-2.1832,-2.1595,-2.1306,-2.1371,-2.1371,-2.1306,-2.1371,-2.1727,-2.2151,-2.2753,-2.2887,-2.3155,-2.3647,-2.3981,-2.4168,-2.4209,-2.4449,-2.4609,-2.4636,-2.4663,-2.493,-2.5464,-2.5531,-2.5825,-2.6346,-2.6373,-2.6386,-2.6413,-2.6974,-2.7255,-2.7375,-2.8537,-2.9192,-2.9472,-2.978,-2.9913,-2.994,-3.0221,-3.0154,-2.9953,-3.0221,-3.0154,-2.9913,0.0,0.0,0.0,0.0,0.0,0.0,0.0,0.0,0.0,0.0,0.0,0.0,0.0,0.0,0.0,0.0,0.0,0.0,0.0,0.0,-3.1441,-3.196,-3.356,-3.5501,-3.7644,-3.677,-3.641,-3.6744,-3.6816,-3.5597,-3.331,-3.4169,-3.3366,-3.1161,-3.1552,-3.074,-2.9163,-2.9309,-2.9028,-2.8517,-2.8517,-2.8517,-2.8517,-2.8517,-2.8396,0.0,0.0,0.0,0.0,0.0,0.0,0.0,-2.1486,-2.1517,-2.1868,-2.1427,-2.1046,-2.0632,-2.0376,-1.9141,-1.7945,-1.8068,-1.7439,-1.6676,-1.6263,-1.6245,-1.6844,-1.8481,-1.9333,-2.0195,-2.1317,-2.1228,-2.1175,-2.163,-2.1199,-2.0849,-2.1104,-2.0913,-2.0849,-2.1104,-2.1432,-2.1762,-2.1882,-2.2526,-2.2913,-2.3046,-2.3554,-2.3968,-2.4195,-2.4539,-2.4674,-2.4636,-2.5161,-2.535,-2.517,-2.5625,-2.5932,0.0,-2.6279,-2.6386,-2.64,-2.676,-2.7175,-2.7655,-2.8617,-2.9072,-2.9179,-2.97,-2.9913,-2.9927,-2.998,-2.9967,-2.9927,-2.998,-2.9967,-2.9913,0.0,0.0,0.0,0.0,0.0,0.0,0.0,0.0,0.0,0.0,0.0,0.0,0.0,0.0,0.0,0.0,0.0,0.0,0.0,0.0,0.0,-3.2411,-3.3173,-3.4429,-3.6272,-3.5143,-3.4832,-3.5491,-3.6374,-3.6207,-3.5054,-3.5028,-3.4196,-3.2743,-3.1742,-3.0522,-2.9133,-2.883,-2.8452,-2.8113,-2.8315,-2.8388,-2.8388,-2.8388,-2.8517,-2.8392,-2.6025,0.0,0.0,0.0,0.0,0.0,0.0,0.0,-2.0921,-2.104,-2.0532,-1.9808,-1.939,-1.8384,-1.7356,-1.7127,-1.6596,-1.5999,-1.5955,-1.5775,-1.604,-1.7609,-1.8224,-1.8893,-2.0135,-2.0476,-2.0773,-2.1272,-2.1089,-2.0919,-2.1109,-2.0919,-2.0919,-2.1109,-2.1243,-2.1403,-2.1601,-2.203,-2.2352,-2.2632,-2.3073,-2.3527,-2.3968,-2.4332,-2.4547,-2.4623,-2.4932,-2.5167,-2.5077,-2.5384,-2.5611,-2.5745,-2.5892,-2.6039,-2.6199,-2.6774,-2.7281,-2.7736,-2.8511,-2.8831,-2.8885,-2.9472,-2.9713,-2.9726,-2.986,-2.9913,-2.9913,-2.9913,-2.9913,-2.9913,0.0,0.0,0.0,0.0,0.0,0.0,0.0,0.0,0.0,0.0,0.0,0.0,0.0,0.0,0.0,0.0,0.0,0.0,0.0,0.0,0.0,0.0,-3.2751,-3.3282,-3.4741,-3.3596,0.0,-3.3926,-3.5178,-3.6315,-3.7298,-3.5938,-3.5059,-3.4545,-3.2044,-3.0393,-2.9355,-2.8367,-2.784,-2.7748,-2.8113,-2.8242,-2.8187,-2.826,-2.8443,-2.8454,-2.6418,-2.514,-2.407,-2.2208,0.0,0.0,0.0,0.0,-1.9694,-2.0526,-1.9959,-1.8932,-1.8352,-1.7832,-1.7277,-1.6429,-1.6046,-1.5984,-1.5984,-1.5822,-1.5963,-1.6942,-1.7107,-1.7509,-1.8956,-1.9724,-2.0297,-2.0919,-2.1046,-2.1109,-2.1109,-2.1109,-2.1109,-2.1109,-2.1109,-2.1203,-2.1521,-2.1588,-2.175,-2.2231,-2.2592,-2.3033,-2.3581,-2.3888,-2.4182,-2.4476,-2.4489,-2.4623,-2.493,-2.4983,-2.5144,-2.5438,-2.5491,-2.5665,-2.6063,-2.676,-2.7295,-2.7655,-2.8257,-2.8564,-2.8644,-2.9192,-2.9432,-2.9513,-2.9753,-2.9873,-2.9913,-2.9913,-2.9913,-2.9913,0.0,0.0,0.0,0.0,0.0,0.0,0.0,0.0,0.0,0.0,-3.383,-3.2633,0.0,0.0,0.0,0.0,0.0,0.0,0.0,0.0,0.0,-3.2924,-3.3118,-3.3537,-3.417,-3.3617,-3.3406,-3.346,-3.3917,-3.5121,-3.7054,-3.777,-3.6765,-3.4393,-3.3593,-3.2101,-3.0036,-2.9051,-2.8103,-2.7344,-2.7748,-2.7636,-2.738,-2.7785,-2.773,-2.7286,-2.59,-2.5439,-2.4923,-2.1852,-2.1195,0.0,0.0,0.0,-1.8277,-1.8365,-1.784,-1.7283,-1.736,-1.6963,-1.6549,-1.6282,-1.616,-1.6141,-1.6141,-1.5971,-1.6038,-1.6573,-1.702,-1.7719,-1.9237,-1.9839,-2.0234,-2.0615,-2.0919,-2.1109,-2.1109,-2.1109,-2.1109,-2.1109,-2.1109,-2.1122,-2.1162,-2.1403,-2.1655,-2.1722,-2.2164,-2.2619,-2.3035,-2.3273,-2.3581,-2.3875,-2.3888,-2.4022,-2.4315,-2.4569,-2.4836,-2.5144,-2.5398,-2.5665,-2.605,-2.6346,-2.68,-2.7362,-2.8033,-2.8364,-2.8631,-2.8965,-2.9245,-2.9486,-2.9526,-2.97,-2.9913,-2.9913,-2.9913,-2.9913,0.0,0.0,0.0,0.0,0.0,0.0,0.0,0.0,0.0,0.0,0.0,-3.3089,0.0,0.0,0.0,-3.1411,0.0,0.0,0.0,0.0,0.0,-3.3173,-3.3083,-3.3223,-3.3679,-3.3244,-3.2892,-3.2623,-3.3415,-3.4428,-3.5591,-3.6749,-3.6556,-3.5278,-3.3634,-3.1539,-2.9269,-2.7827,-2.7124,-2.6866,-2.7031,-2.7456,-2.7826,-2.7586,-2.779,-2.7996,-2.6588,-2.5718,-2.4886,-2.2615,-2.1355,-2.0587,-1.9012,0.0,0.0,0.0,-1.7431,-1.692,-1.6887,-1.6712,-1.6432,-1.6091,-1.5999,-1.5999,-1.5999,-1.6018,-1.6151,-1.6508,-1.7203,-1.8006,-1.8835,-1.9647,-2.0234,-2.0552,-2.0856,-2.1109,-2.1109,-2.1109,-2.1109,-2.1109,-2.1109,-2.1109,-2.1109,-2.1229,-2.1376,-2.1601,-2.1937,-2.2378,-2.2832,-2.3153,-2.3531,-2.4039,-2.391,-2.4035,-2.4514,-2.4435,-2.4593,-2.4891,-2.5125,-2.5424,-2.5718,-2.6012,-2.6466,-2.7041,-2.7468,-2.7816,-2.8123,-2.8417,-2.8818,-2.9245,-2.9419,-2.9659,-2.99,-2.9726,-2.978,-2.99,0.0,0.0,0.0,0.0,0.0,0.0,0.0,0.0,0.0,0.0,0.0,0.0,0.0,0.0,0.0,0.0,-3.2085,0.0,0.0,0.0,0.0,-3.2901,-3.2773,-3.2757,-3.2971,-3.2674,-3.2205,-3.1518,-3.2361,-3.3265,-3.4229,-3.5024,-3.5379,-3.5269,-3.3212,-3.0984,-2.8644,-2.6915,-2.6352,-2.6646,-2.6791,-2.7373,-2.8106,-2.7897,-2.8327,-2.8865,-2.7544,-2.6495,-2.5394,-2.3504,-2.1829,-2.0345,-1.8714,-1.7702,0.0,0.0,0.0,-1.6882,-1.6624,-1.6577,-1.6523,-1.6001,-1.592,-1.5996,-1.5927,-1.6027,-1.6285,-1.6598,-1.735,-1.8058,-1.8446,-1.9426,-2.0259,-2.0437,-2.0856,-2.1109,-2.1109,-2.1109,-2.1109,-2.1109,-2.1109,-2.1109,-2.1109,-2.1109,-2.1203,-2.143,-2.1777,-2.2178,-2.2619,-2.3006,-2.3453,-2.395,-2.3752,-2.392,-2.4398,-2.4282,-2.4303,-2.4593,-2.4757,-2.501,-2.5304,-2.5678,-2.6119,-2.6627,-2.6987,-2.7362,-2.7722,-2.7936,-2.839,-2.8951,-2.9179,-2.9432,-2.9673,-2.9446,-2.9513,-2.9659,0.0,0.0,0.0,0.0,0.0,0.0,0.0,0.0,0.0,0.0,0.0,0.0,-3.2289,-3.2346,-3.2048,-3.124,-3.1446,-3.1431,-3.1038,-3.2061,0.0,-3.1712,-3.2329,0.0,-3.1885,-3.1973,-3.1482,-3.0309,-3.0113,-3.1201,-3.3434,-3.333,-3.3289,-3.3252,-3.2839,-3.1312,-2.888,-2.7241,-2.6573,-2.67,-2.7422,-2.7549,-2.7405,-2.8971,-2.9353,-2.9053,-2.8494,-2.8016,-2.723,-2.4279,-2.2855,-2.1715,-1.8313,-1.7202,-1.7033,0.0,0.0,0.0,-1.6537,-1.6626,-1.665,-1.5862,-1.605,-1.6283,-1.5996,-1.6027,-1.6324,-1.6787,-1.7261,-1.7792,-1.8324,-1.9524,-2.0412,-2.0144,-2.0666,-2.1109,-2.1109,-2.1109,-2.1109,-2.1109,-2.1109,-2.1109,-2.1109,-2.1109,-2.1122,-2.1136,-2.1657,-2.2004,-2.2031,-2.2579,-2.2968,-2.2981,-2.3242,-2.3391,-2.334,-2.3705,-2.3995,-2.4293,-2.4246,-2.4409,-2.4703,-2.5277,-2.5705,-2.6039,-2.66,-2.7175,-2.7696,-2.7722,-2.8083,-2.8631,-2.8644,-2.8831,-2.9085,-2.9072,-2.9072,-2.9085,0.0,0.0,0.0,0.0,0.0,0.0,0.0,0.0,0.0,0.0,0.0,0.0,0.0,-3.2744,-3.2782,-3.2178,-3.2251,-3.2102,-3.1649,-3.2262,0.0,-3.1875,-3.2421,-3.244,-3.1787,-3.1856,-3.1208,-2.9785,-2.9715,-3.0076,-3.0934,-3.0858,-3.0538,-3.0039,-3.1651,-3.0978,-2.8501,-2.6604,-2.6462,-2.7381,-2.7435,-2.8033,-2.8838,-2.9211,-2.9753,-3.0122,-2.8883,-2.8816,-2.9032,-2.6644,-2.4898,-2.3276,-2.026,-1.8374,-1.7111,-1.6254,-1.6259,-1.6516,-1.6118,-1.6245,-1.6381,-1.5949,-1.582,-1.5777,-1.5837,-1.5835,-1.5832,-1.602,-1.6556,-1.7084,-1.7202,-1.8715,-2.0016,-2.0374,-2.0602,-2.0982,-2.1677,-2.1362,-2.1172,-2.1425,-2.1235,-2.1109,-2.1109,-2.1109,-2.1109,-2.1109,-2.1483,-2.179,-2.1977,-2.2365,-2.2795,-2.3201,-2.3133,-2.3187,-2.3364,-2.3872,-2.4202,-2.4266,-2.4422,-2.4669,-2.493,-2.5331,-2.5678,-2.605,-2.6373,-2.6881,-2.7415,-2.7415,-2.7883,-2.8604,-2.8604,-2.8778,-2.9018,-2.8831,-2.8885,-2.9018,0.0,0.0,0.0,0.0,0.0,0.0,0.0,0.0,0.0,-3.1934,0.0,0.0,0.0,0.0,-3.3368,-3.2731,-3.2669,-3.2421,-3.1857,-3.2339,-3.2463,-3.2008,-3.2251,-3.2076,-3.1478,-3.106,-3.0226,-2.901,-2.8735,-2.8732,-2.8799,-2.8868,-2.8512,-2.7955,-2.9655,-2.943,-2.7691,-2.6353,-2.6389,-2.7418,-2.7964,-2.8514,-2.9149,-2.9937,-3.0515,-3.0819,-2.9806,-2.9943,-3.0258,-2.8293,-2.6784,-2.5185,-2.189,-1.9091,-1.6922,-1.6253,-1.6189,-1.621,-1.586,-1.6009,-1.6222,-1.6018,-1.5848,-1.5793,-1.5882,-1.5866,-1.5768,-1.5632,-1.6117,-1.653,-1.653,-1.7926,-1.9316,-2.0157,-2.0475,-2.0919,-2.1992,-2.1551,-2.1235,-2.1551,-2.1299,-2.1109,-2.1109,-2.1109,-2.1109,-2.1109,-2.139,0.0,-2.1977,-2.2164,-2.2539,-2.3242,-2.2916,-2.3038,-2.3611,-2.3915,-2.4107,-2.4186,-2.4439,-2.4628,-2.4796,-2.5184,-2.5531,-2.5825,-2.6119,-2.6573,-2.7121,-2.7228,-2.7669,-2.831,-2.8417,-2.8564,-2.8711,-2.8524,-2.8577,-2.8711,0.0,0.0,0.0,0.0,0.0,0.0,0.0,0.0,-3.4145,-3.3067,0.0,0.0,0.0,0.0,0.0,-3.2871,-3.2768,-3.2395,-3.1485,-3.2173,-3.2463,-3.2008,0.0,0.0,-3.0762,-2.9609,-2.8607,-2.7822,-2.7152,-2.691,-2.7197,-2.7375,-2.7339,-2.7142,-2.6943,-2.6758,-2.6554,-2.6536,-2.6573,-2.6828,-2.8928,-2.9011,-2.8222,-3.1154,-3.1737,-3.099,-3.1451,-3.1351,-3.0817,-2.9236,-2.8423,-2.7234,-2.2877,-1.9208,-1.6503,-1.6194,-1.6053,-1.5953,0.0,0.0,0.0,-1.6129,-1.6295,-1.6392,-1.6164,-1.6069,-1.6011,-1.5691,-1.599,-1.6297,-1.6261,-1.7173,-1.8291,-1.9392,-2.0157,-2.0919,-2.1978,-2.1551,-2.1235,-2.1551,-2.1299,-2.1109,-2.1109,-2.1109,-2.1109,-2.1172,-2.144,-2.1735,-2.2016,-2.1977,-2.2323,-2.2955,-2.262,-2.2903,-2.3952,-2.3513,-2.3523,-2.3885,-2.413,-2.4195,-2.4235,-2.4823,-2.5237,-2.5531,-2.5825,-2.6279,-2.6827,-2.7134,-2.7442,-2.7722,-2.8114,-2.8221,-2.8221,-2.8221,-2.8221,-2.8221,0.0,0.0,0.0,0.0,0.0,0.0,-3.5638,-3.4859,-3.4269,0.0,0.0,0.0,-3.4072,-3.4422,-3.4526,-3.4217,-3.3886,-3.3306,-3.2416,-3.2183,-3.1815,-3.1369,-3.1182,-3.0781,-3.0157,-2.9566,-2.8729,-2.7822,-2.7308,-2.681,-2.6352,-2.6384,-2.6236,-2.5911,-2.5848,-2.5811,-2.5693,-2.5399,-2.6298,-2.7915,-2.8242,-2.903,-3.0247,-3.1355,-3.2072,-3.2477,-3.2281,-3.2044,-3.1832,-3.1791,-3.0159,-2.7349,-2.2766,-1.9608,-1.7351,-1.6621,-1.6544,-1.6556,-1.5785,0.0,0.0,0.0,0.0,0.0,-1.6059,-1.5782,-1.5604,-1.5914,-1.5678,-1.5518,-1.5731,-1.6237,-1.712,-1.8859,-1.9964,-2.1046,-2.2292,-2.1866,-2.1488,-2.1614,-2.1299,-2.1109,-2.1109,-2.1109,-2.1425,0.0,-2.2062,-2.2179,-2.2678,-2.2263,-2.2191,-2.2539,-2.2485,-2.2633,-2.3201,-2.3296,-2.3554,-2.386,-2.4164,-2.4332,-2.4529,-2.4903,-2.5237,-2.5531,-2.5825,-2.6159,-2.6547,-2.7054,-2.7442,-2.7722,-2.8114,-2.8221,-2.8221,-2.8221,-2.8221,-2.8221,0.0,0.0,0.0,0.0,0.0,0.0,-3.6544,-3.6033,-3.5499,0.0,0.0,0.0,-3.519,-3.5625,-3.5583,-3.4899,-3.4567,-3.3886,-3.2752,-3.2316,-3.1868,-3.1425,-3.0761,-3.0255,-2.9922,-2.9104,-2.8386,-2.7822,-2.7196,-2.6591,-2.6002,-2.5837,-2.5561,-2.5124,-2.4992,-2.5102,-2.5378,-2.4808,-2.5619,-2.7474,-2.8446,-2.9199,-2.998,-3.1217,-3.1999,-3.2413,-3.2493,-3.2699,-3.2875,-3.3226,-3.1128,-2.7836,-2.4879,-2.1818,-1.9137,-1.8269,-1.7851,-1.7381,-1.6466,-1.616,-1.6166,-1.6165,0.0,0.0,-1.6234,-1.5898,-1.5605,-1.603,-1.5654,-1.5406,-1.568,-1.6146,-1.6947,-1.8496,-1.9435,-2.0578,-2.2349,-2.1999,-2.1614,-2.1614,-2.1299,-2.1109,-2.1109,-2.1109,-2.1362,-2.1915,-2.2167,-2.244,-2.28,-2.2226,-2.1937,-2.2231,-2.2124,-2.2311,-2.2859,-2.3065,-2.3375,-2.3768,-2.4103,-2.4413,-2.4649,-2.4823,-2.505,-2.5344,-2.5638,-2.6012,-2.644,-2.7028,-2.7362,-2.7562,-2.806,-2.8221,-2.8221,-2.8221,-2.8305,-2.8403,0.0,0.0,0.0,-3.7969,-3.8664,-3.8895,-3.7405,-3.7363,-3.726,0.0,-3.6515,-3.668,-3.7198,-3.7446,-3.6929,-3.5294,-3.4922,-3.418,-3.2806,-3.2408,-3.2074,-3.1634,-3.045,-2.9804,-2.9804,-2.8512,-2.7895,-2.7895,-2.705,-2.6463,-2.6131,-2.5745,-2.5289,-2.4904,-2.4532,-2.4716,-2.5323,-2.4679,-2.5029,-2.6256,-2.8799,-2.9278,-2.8691,-3.0957,-3.1702,-3.1683,-3.2507,-3.3111,-3.3607,-3.3617,-3.1511,-2.8668,-2.785,-2.4941,-2.1712,-2.0728,-1.9687,-1.863,-1.7611,-1.725,-1.7066,-1.6596,-1.6374,0.0,-1.6672,-1.6347,-1.6085,-1.6276,-1.6044,-1.5895,-1.6141,-1.6732,-1.752,-1.8461,-1.9006,-2.0066,-2.2153,-2.1933,-2.1551,-2.1614,-2.1326,-2.1149,-2.1109,-2.1136,-2.1212,-2.1235,-2.2104,-2.2606,-2.2731,-2.2029,-2.1735,-2.1924,-2.175,-2.2097,-2.2806,-2.2846,-2.3166,-2.3768,-2.4035,-2.4329,-2.4636,-2.4636,-2.4796,-2.509,-2.5384,-2.5838,-2.644,-2.7028,-2.7281,-2.7362,-2.8006,-2.8221,-2.8234,-2.8234,-2.8487,-2.874,0.0,0.0,-3.8924,-3.9564,-3.8993,-3.8709,-3.9454,-3.8378,-3.7943,-3.9226,-3.9081,-3.9185,-3.9992,-3.8874,-3.7847,-3.7246,-3.5521,-3.3979,-3.2808,-3.1595,-3.0715,-3.0294,-2.9568,-2.9153,-2.9153,-2.8575,-2.8278,-2.8278,-2.7453,-2.7013,-2.694,-2.6536,-2.6133,-2.5764,-2.5359,-2.5051,-2.4922,-2.5451,-2.5906,-2.6396,-2.7246,-2.8498,-2.9909,-3.0994,-3.185,-3.2465,-3.2637,-3.2806,-3.2957,-3.2755,-3.1623,-2.9956,-2.8014,-2.6583,-2.5192,-2.2802,-2.1862,-2.1353,-2.002,-1.8897,0.0,0.0,-1.7767,0.0,-1.7621,-1.7563,-1.7535,-1.7616,-1.7275,-1.7015,-1.7204,-1.7821,-1.86,-1.9633,-2.0488,-2.1215,-2.1628,-2.1168,-2.0982,-2.1551,-2.1514,-2.1376,-2.1136,-2.1323,-2.1747,-2.2258,-2.248,-2.2856,-2.3355,-2.2285,-2.1641,-2.1695,-2.2031,-2.2338,-2.2498,-2.2739,-2.3166,-2.3768,-2.3834,-2.4128,-2.4636,-2.4636,-2.4796,-2.509,-2.5384,-2.5838,-2.644,-2.7028,-2.7402,-2.7642,-2.8087,-2.8403,-2.8655,-2.8655,-2.874,-2.8824,-3.9889,-3.9261,-3.8993,-3.9695,-3.9516,-3.9516,-4.0406,-3.9578,-3.9351,-4.0696,-4.0882,-4.082,-4.0572,-3.9396,-3.8133,-3.6904,-3.5406,0.0,0.0,0.0,-3.066,-3.0244,-2.9443,-2.8975,-2.8975,-2.8792,-2.859,-2.8388,-2.7765,-2.7417,-2.716,-2.6554,-2.6277,-2.6162,-2.5651,-2.5595,-2.5885,-2.5779,-2.6129,-2.6901,-2.7771,-2.8898,-3.0082,-3.0819,-3.1556,-3.2248,-3.2248,-3.2486,-3.2728,-3.2554,-3.1845,0.0,-2.945,-2.8286,-2.6971,0.0,-2.4061,-2.3244,0.0,0.0,0.0,-1.8381,0.0,0.0,0.0,-1.79,-1.7793,-1.8069,-1.7815,-1.7635,-1.7839,-1.8246,-1.8876,-1.9604,-2.0201,-2.077,-2.1568,-2.163,-2.1614,-2.1795,-2.1679,-2.1614,-2.155,-2.1416,-2.1715,-2.2557,-2.2104,-2.223,-2.3043,-2.2157,-2.1614,-2.1614,-2.2027,-2.2322,-2.2471,-2.2754,-2.3214,-2.3836,-2.3919,-2.4209,-2.4636,-2.4636,-2.4796,-2.509,-2.5384,-2.5838,-2.644,-2.7028,-2.7442,-2.7722,-2.8114,-2.8318,-2.8571,-2.874,-2.8919,-2.9029,-3.8958,-3.876,-3.8644,-3.8692,-3.9314,0.0,0.0,0.0,-4.0146,-4.1129,-4.1571,-4.1407,-4.0341,-3.9333,-3.7955,-3.615,-3.5074,0.0,-3.2289,-3.1489,-3.0837,-3.0237,0.0,-2.8594,-2.8547,-2.8337,-2.8217,-2.8147,-2.7658,-2.7409,-2.7398,-2.6627,-2.6404,-2.6621,-2.5803,-2.6058,-2.6955,-2.5986,-2.6316,-2.7586,-2.8898,-2.9374,-2.947,-3.0355,-3.0995,-3.1436,-3.171,-3.2133,-3.2514,-3.2685,-3.217,-3.1361,-3.0846,-2.9776,0.0,0.0,0.0,0.0,0.0,0.0,0.0,0.0,0.0,-1.8389,0.0,0.0,0.0,-1.8423,-1.8282,-1.8165,-1.8386,-1.8754,-1.9161,-1.9544,-1.9779,-2.0434,-2.1777,-2.2239,-2.2359,-2.2239,-2.1881,-2.1789,-2.2096,-2.1574,-2.1696,-2.288,-2.2076,-2.1977,-2.303,-2.2452,-2.1957,-2.1708,-2.2076,-2.2342,-2.2454,-2.2753,-2.3188,-2.3676,-2.4022,-2.4281,-2.4556,-2.463,-2.4817,-2.509,-2.5384,-2.5838,-2.644,-2.7028,-2.7442,-2.7722,-2.8114,-2.8305,-2.8487,-2.874,-2.91,-2.9405,-3.6966,-3.7508,-3.7521,-3.6194,0.0,0.0,0.0,0.0,-3.8596,-3.9853,-4.0088,-4.0256,-4.042,-3.8596,-3.718,-3.6705,-3.4751,-3.327,-3.2579,-3.1421,-3.0291,-2.9288,0.0,-2.7115,-2.6884,-2.5954,-2.6017,-2.7134,-2.641,-2.68,-2.8242,-2.7416,-2.7289,-2.7583,-2.6261,-2.6244,-2.716,-2.6495,-2.7121,-2.8615,-2.9447,-2.9068,-2.8014,-2.9486,-2.9986,-3.0179,-3.1359,-3.1845,-3.196,0.0,-3.2457,-3.1917,0.0,-3.0897,-3.0804,-2.9393,0.0,0.0,0.0,0.0,0.0,0.0,-2.1685,0.0,0.0,0.0,-1.9502,-1.9291,0.0,-1.9251,-1.9277,0.0,0.0,-2.0267,-2.1118,-2.1855,-2.2054,-2.2046,-2.2277,-2.2921,-2.2377,-2.2082,-2.2438,-2.1892,-2.2318,-2.429,-2.353,-2.3519,-2.4762,-2.4131,-2.32,-2.2003,-2.2512,-2.2673,-2.2432,-2.2727,-2.3048,-2.3327,-2.373,-2.4056,-2.4249,-2.4539,-2.485,-2.509,-2.5384,-2.5838,-2.644,-2.7028,-2.7442,-2.7722,-2.8114,-2.8642,-2.9314,-2.8908,-2.9269,-2.9773,-3.6162,-3.6543,-3.6482,-3.567,0.0,0.0,0.0,0.0,-4.0469,-4.0254,-4.0857,-4.117,-4.0879,-3.8915,-3.741,-3.681,-3.5005,-3.3454,-3.2292,-3.1463,-3.05,-2.9188,0.0,-2.7181,-2.6198,-2.5611,0.0,-2.7021,-2.6414,-2.6475,-2.7004,-2.7389,-2.7246,-2.6647,-2.6445,-2.6793,-2.7495,-2.6461,-2.6632,-2.7612,-2.8189,-2.8086,-2.7827,-2.9738,-3.0471,-3.0509,-3.1111,-3.1286,-3.1344,0.0,-3.1556,0.0,0.0,0.0,0.0,-2.9891,0.0,0.0,0.0,0.0,0.0,0.0,0.0,0.0,-2.1321,0.0,-2.0366,0.0,0.0,0.0,0.0,0.0,0.0,0.0,-2.1146,-2.1774,-2.161,-2.1797,-2.2257,-2.2962,0.0,0.0,-2.2244,-2.1876,-2.1937,-2.2822,-2.2734,-2.2914,-2.3613,-2.3674,-2.3346,-2.2582,-2.2654,-2.2618,-2.243,-2.2727,-2.3038,-2.3349,-2.3863,-2.4242,-2.4557,-2.4879,-2.5133,-2.5479,-2.5992,-2.6284,-2.6578,-2.7175,-2.7595,-2.7811,-2.7859,-2.8241,-2.8753,-2.9015,-2.919,-2.9335,-3.5245,-3.5491,-3.5346,-3.4787,-3.5559,0.0,0.0,-3.9333,-4.0627,-3.9932,-4.0356,-4.0625,-4.0297,-3.8593,-3.7223,-3.6584,-3.5237,-3.3849,-3.2579,-3.1596,-3.0537,-2.9461,-2.7925,-2.6616,-2.5732,-2.4942,0.0,-2.6043,-2.5884,-2.5932,-2.6145,-2.6867,0.0,-2.5978,-2.5938,-2.6347,-2.7088,-2.6065,-2.608,-2.6893,-2.7213,-2.7492,-2.7937,-2.9853,-3.0723,-3.0898,-3.0898,-3.0898,-3.0898,-3.0898,-3.082,0.0,-3.0879,0.0,-3.0704,0.0,0.0,0.0,-2.8668,0.0,0.0,0.0,0.0,0.0,0.0,0.0,0.0,0.0,0.0,0.0,0.0,0.0,0.0,-1.9972,0.0,-2.1078,-2.0971,-2.1374,-2.1993,-2.2813,-2.2669,0.0,0.0,-2.2007,-2.2162,-2.2566,-2.2952,-2.3301,-2.3654,-2.3872,-2.3695,-2.3143,-2.2655,-2.2413,-2.2495,-2.2645,-2.2903,-2.3297,-2.3739,-2.4201,-2.4507,-2.4811,-2.5239,-2.5705,-2.6123,-2.6364,-2.6621,-2.7062,-2.7418,-2.7703,-2.7671,-2.7936,-2.8368,-2.8842,-2.9001,-2.9058,-3.3886,-3.4103,-3.4029,-3.2881,-3.3966,-3.5148,-3.5576,-3.6417,-3.7238,-3.7969,-3.7405,-3.7296,-3.7984,-3.6842,-3.6106,-3.6133,-3.5249,-3.4529,-3.4143,-3.1744,-3.0337,-3.0242,-2.659,-2.4723,-2.512,-2.3168,0.0,0.0,-2.4178,-2.5098,-2.6405,-2.6045,0.0,0.0,-2.4461,-2.4332,-2.5565,-2.5223,-2.588,-2.7005,-2.7389,-2.7709,-2.8116,0.0,-3.0277,-3.0898,-3.0898,0.0,0.0,-3.0898,-3.0704,0.0,0.0,0.0,0.0,0.0,0.0,0.0,0.0,0.0,0.0,-2.7582,0.0,0.0,0.0,0.0,-2.2287,0.0,0.0,0.0,0.0,0.0,0.0,0.0,-1.9614,0.0,0.0,-2.0578,-2.1251,-2.2543,-2.3178,-2.3099,0.0,-2.262,-2.3551,-2.4952,-2.534,-2.5808,-2.6455,-2.5592,-2.4575,-2.3536,-2.2504,-2.2124,-2.2405,-2.2418,-2.2565,-2.2928,-2.3229,-2.3554,-2.3852,-2.4151,-2.4843,-2.5691,-2.5316,-2.5653,-2.6516,-2.6437,-2.6747,-2.7377,-2.7589,-2.807,-2.8564,-2.8355,-2.869,-2.9203,-3.4568,-3.3407,-3.2536,-3.2947,-3.3655,-3.4408,-3.5082,-3.6571,-3.759,-3.759,-3.7873,-3.8079,-3.8382,-3.7462,-3.6732,-3.6494,-3.5862,-3.4816,-3.318,-3.1987,-3.0676,-2.9326,-2.6931,-2.5368,-2.4756,-2.3281,0.0,-2.3481,-2.3702,-2.3976,-2.4254,-2.584,-2.572,0.0,-2.5133,-2.5391,-2.5201,-2.5173,-2.5572,-2.6389,-2.7145,-2.805,-2.892,0.0,-2.9124,-2.9903,-2.9903,-3.0333,0.0,-3.0898,-3.082,-3.0762,-3.0879,-3.082,-3.0762,-3.0879,-3.0898,0.0,0.0,0.0,-3.0626,-2.9164,0.0,0.0,0.0,0.0,0.0,0.0,0.0,0.0,0.0,0.0,0.0,0.0,0.0,0.0,0.0,-2.0611,-2.1334,-2.2201,-2.2851,-2.3021,-2.2504,0.0,-2.3237,-2.3686,-2.4687,-2.5493,-2.5902,-2.5769,-2.5201,-2.4198,-2.3371,-2.2786,-2.2418,-2.2418,-2.2565,-2.2928,-2.3211,-2.3552,-2.3895,-2.4432,-2.4774,-2.5162,-2.5648,-2.6047,-2.623,-2.6452,-2.6971,-2.769,-2.7785,-2.8192,-2.8734,-2.8914,-2.8974,-2.9085,-3.3625,-3.1994,-3.1121,-3.2576,-3.2874,-3.3389,-3.4626,-3.6402,-3.7356,-3.6677,-3.7301,-3.7767,-3.7518,-3.6923,-3.6503,-3.6636,-3.5991,-3.4758,-3.2814,-3.1708,-3.0515,-2.9108,-2.7339,-2.5918,-2.4958,0.0,0.0,0.0,-2.353,-2.3612,-2.33,-2.4983,-2.4796,-2.3139,-2.4394,-2.4701,-2.4224,-2.4733,-2.5156,-2.5555,0.0,-2.7115,0.0,0.0,-2.8039,-2.9726,0.0,-3.0039,-3.0898,-3.0898,-3.0898,-3.0898,-3.0898,-3.0781,-3.0684,-3.084,-3.0781,-3.0684,-3.084,-3.117,0.0,-2.9898,-2.9738,0.0,-2.7168,0.0,0.0,0.0,0.0,0.0,0.0,0.0,0.0,0.0,0.0,0.0,0.0,-2.0611,-2.1396,-2.1888,-2.2413,-2.2879,-2.33,-2.3102,-2.313,-2.3558,-2.4527,-2.5191,0.0,-2.5338,-2.5031,-2.4358,-2.3335,-2.2621,-2.2258,-2.2365,-2.2565,-2.2928,-2.3073,-2.3413,-2.3909,-2.429,-2.4648,-2.4952,-2.5607,-2.5992,-2.608,-2.6303,-2.6876,-2.7676,-2.7676,-2.811,-2.8747,-2.9253,-2.9217,-2.9111,-3.1229,-3.0008,-2.9704,-3.154,-3.1588,-3.1998,-3.3961,-3.554,-3.6171,-3.5135,-3.5645,-3.594,-3.5548,-3.5121,-3.5364,-3.6431,-3.5515,-3.4264,-3.3013,-3.1081,-2.9867,-2.9628,-2.761,-2.6329,-2.5789,0.0,0.0,0.0,-2.3587,-2.3992,-2.3446,-2.3559,-2.3384,-2.3043,-2.2543,-2.2434,-2.2667,-2.404,-2.4607,-2.4703,-2.4976,-2.5165,-2.5133,-2.4738,-2.7012,-3.0255,-2.9552,-2.9905,-3.0762,-3.0859,-3.0859,-3.0859,-3.0879,-3.0586,-3.0312,-3.0762,-3.0566,-3.0293,-3.0762,-3.0879,-3.0664,-2.9805,0.0,0.0,0.0,0.0,-2.6496,0.0,0.0,0.0,0.0,0.0,0.0,0.0,0.0,0.0,0.0,-2.0584,-2.1245,-2.1573,-2.1902,-2.2694,-2.4322,-2.3409,-2.3202,-2.4517,-2.487,-2.5041,0.0,-2.4576,-2.4193,-2.4193,-2.2666,-2.1892,-2.2043,-2.2351,-2.2646,-2.2928,-2.2928,-2.3236,-2.3728,-2.3754,-2.4291,-2.5139,-2.5079,-2.5464,-2.608,-2.598,-2.6453,-2.7241,-2.735,-2.7886,-2.8722,-2.9284,-2.9367,-2.9357,-3.0032,-2.902,-2.8251,-2.8194,-2.9138,-3.0314,-3.1507,-3.2423,-3.318,-3.3549,-3.3834,-3.4056,-3.4229,-3.3643,-3.3531,-3.4073,-3.382,-3.3237,-3.2378,-3.1235,-3.0373,-2.9851,-2.8095,-2.7185,-2.719,-2.5472,-2.4246,-2.3511,0.0,-2.2545,-2.2446,-2.4426,-2.4134,-2.2057,-2.4363,-2.4209,-2.2304,-2.3636,-2.4687,-2.5359,-2.5456,-2.5778,-2.6144,0.0,-2.6772,-2.9179,-2.7911,-2.8097,-2.9089,-3.0044,-3.0371,-3.043,-3.0781,-3.082,-3.0742,-3.0859,-3.0566,-3.0293,-3.0762,-3.0644,-3.0312,-3.0098,-2.9805,-2.9394,0.0,0.0,0.0,0.0,0.0,0.0,0.0,0.0,0.0,0.0,0.0,0.0,0.0,0.0,-2.0537,-2.1519,-2.1698,-2.2001,-2.2672,-2.3284,-2.3717,-2.3825,-2.4771,-2.5618,-2.6118,0.0,-2.5439,-2.5194,-2.5297,-2.463,-2.3159,-2.3694,-2.3596,-2.2928,-2.2928,-2.3008,-2.3182,-2.3638,-2.3919,-2.4165,-2.4529,-2.5112,-2.5671,-2.5675,-2.6146,-2.6961,-2.7514,-2.8331,-2.92,-2.8941,-2.905,-2.9244,-2.8253,-2.7726,-2.7298,-2.6743,-2.7242,-2.8355,-3.0174,-3.1372,-3.1918,-3.1625,-3.1792,-3.1911,-3.1778,-3.1224,-3.1155,-3.1913,-3.207,-3.1842,-3.1087,-3.0763,0.0,-2.9576,-2.8708,-2.79,-2.7263,-2.6346,0.0,-2.3542,-2.305,-2.2506,-2.1856,-2.3391,-2.3486,-2.2532,-2.3975,-2.4223,-2.361,-2.4267,-2.4875,-2.5365,-2.5365,-2.541,0.0,-2.4745,-2.5153,-2.6124,-2.5369,-2.7,-2.9508,-3.0005,-3.0332,-3.0547,-3.082,-3.0762,-3.0586,-3.0586,-3.0273,-2.998,-3.0234,-3.0254,-3.0117,-2.9726,-2.9609,-2.9355,-2.8555,-2.8379,-2.8295,0.0,0.0,0.0,0.0,0.0,0.0,0.0,0.0,0.0,0.0,0.0,0.0,-2.114,-2.1293,-2.1603,-2.2062,-2.3,-2.3577,-2.3581,-2.4379,0.0,0.0,0.0,-2.5475,-2.5434,-2.5342,-2.478,-2.3751,-2.3781,-2.3475,-2.2928,-2.2928,-2.3075,-2.3273,-2.3621,-2.3915,-2.4168,-2.4636,-2.509,-2.5518,-2.5651,-2.6146,-2.6867,-2.754,-2.8234,-2.8921,-2.8507,-2.8825,-2.9258,-2.654,-2.6547,-2.6587,-2.6493,-2.5985,-2.653,-2.9228,-3.0824,-3.1137,-2.9412,-2.9701,-2.9686,-2.8974,-2.8573,-2.8788,-2.9829,-3.0288,-3.015,-2.9502,-2.995,-2.9812,-2.9083,-2.9211,-2.8584,-2.7048,-2.7328,-2.614,0.0,-2.3708,-2.3088,-2.1681,-2.1862,-2.244,-2.3325,-2.2716,-2.344,-2.5078,-2.4795,-2.475,-2.4795,-2.4795,-2.4487,-2.3946,-2.3657,-2.3231,-2.2898,-2.2938,-2.6093,-3.0084,-2.9814,-3.0121,-3.0644,-3.0703,-3.0449,-3.0117,-3.0117,-2.9805,-2.9492,-2.9551,-2.9805,-2.9863,-2.918,-2.9238,-2.9199,-2.8086,-2.7845,-2.7911,-2.8361,-2.6954,-2.6008,0.0,0.0,0.0,0.0,0.0,0.0,0.0,0.0,0.0,0.0,-2.1113,0.0,-2.1979,-2.2612,-2.3198,-2.3593,-2.3822,0.0,0.0,0.0,-2.489,-2.5282,-2.4411,-2.3985,-2.408,0.0,-2.3092,-2.2926,-2.2954,-2.314,-2.3661,-2.3728,-2.4048,-2.4543,-2.4877,-2.5184,-2.5478,-2.5772,-2.6293,-2.6934,-2.7442,-2.7843,-2.8221,-2.8221,-2.8649,-2.9217,-2.6439,-2.6067,-2.5928,-2.66,-2.6466,-2.6383,-2.701,-2.7459,-2.7664,-2.7354,-2.79,-2.8221,-2.7851,-2.751,-2.7448,-2.7955,-2.8027,0.0,0.0,0.0,0.0,-2.8797,-2.9144,-2.9045,-2.8426,-2.7373,-2.6278,-2.5086,-2.4087,-2.299,-2.1976,-2.3306,-2.3199,-2.2041,-2.3527,-2.3743,-2.3068,-2.2754,0.0,-2.3043,-2.3355,-2.3355,-2.3293,-2.3234,-2.3638,-2.4147,-2.3632,-2.4589,-2.6324,-2.7062,-2.8163,-2.9336,-2.9687,-2.9746,-2.9744,-2.9744,-2.9375,-2.9121,-2.9473,-2.9355,-2.9199,-2.9394,-2.9238,-2.8965,-2.875,-2.8437,-2.8237,-2.8343,-2.7626,-2.6983,-2.6717,0.0,0.0,0.0,0.0,0.0,0.0,0.0,0.0,0.0,0.0,-2.22,0.0,-2.2519,-2.3044,-2.3124,0.0,0.0,0.0,0.0,-2.5262,0.0,-2.6009,0.0,0.0,0.0,-2.3886,-2.3247,-2.2979,-2.2981,-2.3033,-2.3541,-2.3821,-2.3955,-2.4489,-2.4877,-2.5184,-2.5464,-2.6226,-2.7201,-2.7308,-2.7669,-2.8221,-2.8221,-2.8261,-2.848,-2.5422,-2.5218,-2.5257,-2.5853,-2.5672,-2.5438,-2.5385,-2.5675,-2.5886,-2.6115,-2.642,-2.6522,-2.629,-2.5982,-2.58,-2.6019,-2.659,-2.7012,-2.723,-2.7614,-2.7871,-2.7871,-2.7576,-2.7475,-2.7646,-2.6804,-2.5929,-2.5012,-2.4347,-2.3243,-2.1829,-2.2582,-2.2822,-2.2719,-2.3993,-2.3775,-2.2369,0.0,0.0,-2.262,-2.317,-2.3078,-2.262,-2.2792,-2.2812,-2.2721,-2.2245,-2.2811,-2.4085,-2.5943,-2.7166,-2.8068,-2.8728,-2.8975,-2.8956,-2.8874,-2.8661,-2.8377,-2.7935,-2.8339,-2.8746,-2.8219,-2.8665,-2.9258,-2.9258,-2.8926,-2.8613,-2.8613,-2.8222,-2.7799,-2.7457,-2.6082,0.0,0.0,0.0,0.0,0.0,0.0,-2.2717,0.0,0.0,0.0,0.0,0.0,-2.2539,-2.2943,-2.349,0.0,0.0,0.0,0.0,0.0,0.0,0.0,0.0,0.0,0.0,-2.3554,-2.3407,-2.342,-2.3567,-2.3861,-2.4075,-2.4235,-2.4516,-2.481,-2.5117,-2.5558,-2.6346,-2.7268,-2.7268,-2.7712,-2.8248,-2.8323,-2.8377,-2.8444,-2.4789,-2.4706,-2.4723,-2.5126,-2.4765,-2.4475,-2.4581,-2.4696,-2.494,-2.5255,-2.5384,-2.5304,-2.501,-2.4783,-2.4636,-2.4636,-2.5492,-2.5977,-2.5906,-2.6437,-2.6713,-2.6638,-2.6109,-2.5913,-2.6264,-2.6056,-2.5297,-2.416,-2.422,-2.3371,-2.1708,-2.171,-2.2298,-2.3305,0.0,0.0,0.0,0.0,-2.2617,-2.2419,-2.2978,-2.2638,-2.1943,-2.2193,-2.182,-2.1069,-2.0775,-2.1263,-2.2364,-2.4734,-2.608,-2.69,-2.7557,-2.798,-2.8081,-2.7864,-2.7749,-2.7509,-2.6263,-2.7121,-2.8079,-2.6826,-2.7753,-2.9039,-2.9191,-2.8995,-2.8723,-2.8754,-2.8594,-2.8398,-2.832,-2.7249,0.0,0.0,0.0,0.0,0.0,0.0,0.0,0.0,0.0,0.0,-2.2495,-2.2162,-2.2295,-2.2945,0.0,0.0,-2.419,0.0,0.0,0.0,0.0,-2.53,-2.6022,0.0,-2.3541,-2.3768,-2.3768,-2.3861,-2.4022,-2.4142,-2.4329,-2.4543,-2.4609,-2.4836,-2.5211,-2.5745,-2.6466,-2.7268,-2.7268,-2.7712,-2.8261,-2.8417,-2.8551,-2.8644,-2.5665,-2.498,-2.4421,-2.5088,-2.4685,-2.4406,-2.4789,-2.4657,-2.4573,-2.4682,-2.4957,-2.501,-2.4716,-2.4649,-2.4636,-2.4636,-2.471,-2.4663,-2.4407,-2.5129,-2.5452,-2.508,-2.5726,-2.5815,-2.5236,-2.519,-2.4509,0.0,-2.3429,-2.3051,0.0,-2.2218,0.0,0.0,0.0,0.0,0.0,-2.1859,-2.173,-2.1703,-2.173,-2.1568,-2.1172,-2.1199,-2.1199,-2.1069,-2.0775,-2.0604,-2.0631,-2.2112,-2.4086,-2.5883,-2.5865,-2.6504,-2.7178,-2.6847,-2.6719,-2.6537,-2.5533,-2.6045,-2.6683,-2.6028,-2.6387,-2.7085,-2.7954,-2.8176,-2.8227,-2.833,-2.8633,-2.875,-2.8359,-2.9072,-2.926,0.0,0.0,0.0,0.0,0.0,-2.5369,-2.4525,0.0,0.0,-2.2577,-2.2754,-2.2892,-2.2989,-2.3623,0.0,0.0,0.0,0.0,-2.4316,0.0,-2.4793,-2.4494,-2.4012,-2.3741,-2.3768,-2.3768,-2.3647,-2.342,-2.3955,-2.4222,-2.4262,-2.4516,-2.4957,-2.5504,-2.5825,-2.6466,-2.7268,-2.7268,-2.7712,-2.8234,-2.8261,-2.8364,-2.8644,-2.3842,-2.3151,-2.278,-2.3528,0.0,0.0,0.0,-2.3167,-2.3176,-2.2976,-2.4175,-2.497,-2.4676,-2.4476,-2.4449,-2.4623,-2.4476,-2.4329,-2.4209,-2.4358,-2.4257,-2.3955,-2.387,-2.4014,-2.4349,-2.4224,-2.3869,0.0,0.0,0.0,0.0,0.0,0.0,0.0,0.0,-2.2032,-2.2,-2.176,-2.1614,-2.1614,-2.1614,-2.1376,-2.1122,-2.1309,-2.1269,-2.1096,-2.0975,-2.0748,-2.0583,-2.1122,-2.2195,-2.345,-2.3917,-2.4895,-2.5741,-2.5353,-2.5783,-2.6127,-2.5255,-2.5942,-2.6716,-2.6146,-2.6831,-2.7803,-2.8438,-2.8689,-2.8747,-2.8533,-2.8904,-2.9258,-2.9082,-2.9238,-2.9048,0.0,0.0,0.0,0.0,0.0,0.0,-2.5436,0.0,-2.3641,-2.3368,-2.2458,-2.2274,-2.3217,0.0,0.0,0.0,0.0,0.0,-2.4723,0.0,-2.4442,-2.4666,-2.4276,-2.4115,-2.4289,-2.4289,-2.4222,-2.4115,-2.4356,-2.4556,-2.4743,-2.485,-2.5237,-2.5785,-2.5905,-2.6466,-2.7268,-2.7268,-2.7712,-2.8274,-2.8551,-2.8764,-2.8851,-2.2573,0.0,-2.136,0.0,-2.166,-2.1382,-2.1445,-2.2043,-2.2422,-2.2092,-2.3542,-2.4502,-2.4295,-2.4256,-2.4289,-2.4489,-2.4249,-2.4035,-2.3955,-2.3754,-2.35,-2.3207,-2.2779,0.0,-2.3423,-2.3266,-2.307,-2.2953,-2.3196,0.0,0.0,0.0,0.0,0.0,-2.1849,-2.1851,-2.1844,-2.1708,-2.1614,-2.1614,-2.1614,-2.1376,-2.1136,-2.1336,-2.1296,-2.1096,-2.1015,-2.0855,-2.073,-2.0698,-2.1005,-2.1548,-2.2408,-2.3561,-2.4508,-2.4392,-2.4884,-2.5434,-2.4949,-2.5713,-2.6498,-2.5915,-2.6683,-2.7773,-2.8423,-2.8557,-2.8536,-2.8446,-2.893,-2.9414,-2.9551,-2.9241,-2.8756,-2.8165,0.0,0.0,0.0,0.0,0.0,0.0,-2.4507,-2.3731,-2.3483,-2.2342,-2.1979,-2.299,0.0,0.0,0.0,0.0,0.0,0.0,0.0,0.0,0.0,-2.4412,-2.4302,-2.4516,-2.4516,-2.4516,-2.4516,-2.469,-2.4877,-2.509,-2.5264,-2.5571,-2.6037,-2.613,-2.6507,-2.7148,-2.7228,-2.7575,-2.8083,-2.8684,-2.8878,-2.885,-2.2505,-2.1625,-2.0683,-2.0757,-2.0757,-2.0819,-2.1176,-2.1934,-2.2493,-2.2565,-2.2982,-2.3314,-2.3588,-2.3991,-2.4209,-2.4209,-2.3941,-2.3647,-2.3354,-2.334,-2.3193,0.0,0.0,-2.2712,-2.2418,-2.2418,-2.2138,-2.1628,0.0,0.0,-2.1628,0.0,-2.1977,-2.1964,-2.1748,-2.1614,-2.1614,-2.1614,-2.1614,-2.1614,-2.1614,-2.1376,-2.1109,-2.1109,-2.1109,-2.1069,-2.0788,-2.0681,-2.069,-2.0699,-2.0733,-2.08,-2.1459,-2.248,-2.3641,-2.4236,-2.4176,-2.4039,-2.4486,-2.5019,-2.5377,-2.5163,-2.5494,-2.6162,-2.7188,-2.7151,-2.7161,-2.792,-2.8562,-2.9062,-2.9492,-2.9431,-2.8907,-2.7716,0.0,0.0,0.0,0.0,0.0,-2.475,-2.3877,-2.3174,-2.2601,-2.2516,0.0,0.0,0.0,0.0,0.0,0.0,0.0,-2.2555,-2.368,0.0,-2.4688,-2.434,-2.4209,-2.4209,-2.4209,-2.4209,-2.4235,-2.481,-2.5077,-2.5117,-2.5692,-2.6023,-2.605,-2.6266,-2.656,-2.6854,-2.7148,-2.7442,-2.7776,-2.839,-2.8446,-2.8374,-2.1848,-2.1414,-2.1007,-2.1197,-2.1078,-2.0863,-2.0604,-2.1138,-2.1353,-2.084,-2.1611,-2.2216,-2.2304,-2.3281,-2.3981,0.0,-2.3941,-2.3647,0.0,-2.3104,-2.2971,-2.2873,-2.2654,-2.2545,-2.2726,-2.2726,-2.2539,-2.2151,0.0,0.0,0.0,-2.1844,-2.1884,-2.1762,-2.1804,-2.1844,-2.183,-2.1695,-2.1614,-2.1601,-2.1336,-2.1189,-2.1109,-2.1109,-2.1109,-2.1096,-2.1002,-2.0967,-2.0964,-2.0746,-2.0835,-2.095,-2.0992,-2.1835,-2.2842,-2.2587,-2.3526,-2.4677,-2.4849,-2.5511,-2.6192,-2.6388,-2.6619,-2.6807,-2.7107,-2.7328,-2.7671,-2.8389,-2.8408,-2.8258,-2.7975,-2.7445,-2.6705,-2.5551,-2.5946,0.0,0.0,0.0,0.0,0.0,-2.5451,-2.5026,-2.4854,-2.363,0.0,0.0,0.0,0.0,0.0,0.0,0.0,0.0,-2.3119,0.0,-2.4044,-2.4375,-2.4502,-2.4502,-2.4502,-2.4609,-2.481,-2.5197,-2.5491,-2.5692,-2.5956,-2.6066,-2.6266,-2.6346,-2.656,-2.6854,-2.7148,-2.7562,-2.807,-2.8684,-2.8723,-2.8572,-2.1305,-2.0887,-2.0568,-2.084,-2.0746,-2.0544,-2.0207,-2.0674,-2.0886,-2.0298,-2.0977,-2.1575,-2.1687,-2.2698,0.0,-2.3633,-2.3523,-2.3284,-2.2958,-2.2723,-2.2562,-2.2461,-2.2379,-2.2448,-2.2654,-2.2684,0.0,-2.2258,-2.2151,-2.1911,-2.1614,-2.1802,-2.1789,-2.1614,-2.163,-2.1657,-2.1643,-2.1456,-2.139,-2.1376,-2.1189,-2.1109,-2.1109,-2.1109,-2.1109,-2.1096,-2.0989,-2.102,-2.1051,-2.0759,-2.0902,-2.1064,-2.0894,-2.143,-2.2034,-2.2011,-2.2854,-2.4036,-2.4964,-2.5578,-2.61,-2.691,-2.7073,-2.7039,-2.6884,-2.724,-2.7661,-2.7783,-2.7576,-2.7251,-2.6858,-2.6025,-2.5121,-2.4236,-2.4546,-2.4887,-2.501,0.0,0.0,0.0,0.0,0.0,0.0,-2.3944,-2.3505,0.0,0.0,0.0,0.0,0.0,0.0,-2.244,-2.3225,0.0,-2.4088,-2.4342,-2.4529,-2.4636,-2.4636,-2.473,-2.493,-2.5331,-2.5611,-2.5798,-2.6026,-2.6279,-2.6547,-2.6547,-2.672,-2.7014,-2.7308,-2.7655,-2.8043,-2.8657,-2.8543,-2.8127,-2.0909,-2.0262,-1.9679,0.0,-1.9966,0.0,-1.9977,-2.0615,-2.1013,-2.0702,-2.0943,-2.1306,-2.1567,-2.2294,-2.2714,-2.2714,0.0,0.0,0.0,-2.231,-2.2104,-2.1829,-2.2104,-2.231,-2.231,-2.2389,-2.2311,-2.2017,-2.1789,-2.1641,-2.1641,-2.1601,-2.1601,-2.1601,-2.1243,-2.1109,-2.1109,-2.1109,-2.1109,-2.1109,-2.1109,-2.1109,-2.1109,-2.1109,-2.1109,-2.1069,-2.0802,-2.0869,-2.1052,-2.0835,-2.0889,-2.1092,-2.1086,-2.1146,-2.1326,-2.2244,-2.2267,-2.2526,-2.4808,-2.5214,-2.5354,-2.6668,-2.7073,-2.697,-2.6576,-2.6964,-2.7211,-2.6498,-2.6255,-2.6127,-2.6177,-2.5131,-2.4053,-2.3529,-2.3512,-2.3636,-2.3946,0.0,0.0,0.0,0.0,0.0,0.0,-2.3651,-2.314,0.0,0.0,0.0,0.0,0.0,-2.382,-2.2928,-2.3741,-2.4342,-2.4636,-2.4369,-2.4369,-2.4636,-2.4589,-2.4663,-2.469,-2.5277,-2.5545,-2.5571,-2.6146,-2.656,-2.6827,-2.6827,-2.7001,-2.7295,-2.7589,-2.7709,-2.7802,-2.8417,-2.8016,-2.7317,0.0,0.0,-2.0412,-2.0471,-2.0483,-2.0483,-2.0483,-2.0692,-2.0738,-2.0747,-2.0735,-2.0828,-2.0959,-2.1584,-2.2069,-2.2069,-2.2766,-2.2974,-2.2323,-2.2035,-2.1897,-2.176,-2.1897,-2.2035,-2.231,-2.2587,-2.2619,-2.2311,-2.2031,-2.1884,-2.1871,-2.143,-2.1336,-2.1601,-2.1243,-2.1109,-2.1109,-2.1109,-2.1109,-2.1109,-2.1109,-2.1109,-2.1109,-2.1109,-2.1109,-2.1096,-2.1029,-2.1034,-2.1086,-2.1056,-2.1029,-2.11,-2.1074,-2.1266,-2.1467,-2.1493,-2.1937,-2.2568,-2.3139,-2.4348,-2.5526,-2.5867,-2.651,-2.697,-2.6576,-2.6964,-2.727,-2.6805,-2.6114,-2.5433,-2.4919,-2.3642,-2.2443,-2.1776,-2.2355,-2.2856,-2.2918,-2.3938,0.0,0.0,-2.5723,-2.585,-2.4575,-2.4353,-2.3925,0.0,0.0,0.0,0.0,-2.3336,-2.3525,-2.2941,-2.3741,-2.4342,-2.4636,-2.4569,-2.4569,-2.4562,-2.4863,-2.497,-2.4997,-2.5585,-2.5852,-2.5865,-2.6239,-2.656,-2.6827,-2.6827,-2.7001,-2.7295,-2.7589,-2.7843,-2.811,-2.8711,-2.8578,-2.8047,-2.122,-2.0943,-2.0665,-2.0665,-2.0665,-2.0665,-2.0665,-2.0665,-2.0665,-2.0665,-2.0665,-2.0665,-2.0665,-2.122,-2.1622,-2.1772,-2.2605,-2.2839,-2.2117,-2.2035,-2.1897,-2.1553,-2.1829,-2.2104,-2.231,-2.2521,-2.2445,-2.2017,-2.1991,-2.1924,-2.1777,-2.1456,-2.1403,-2.1601,-2.1243,-2.1109,-2.1109,-2.1109,-2.1109,-2.1109,-2.1109,-2.1109,-2.1109,-2.1109,-2.1109,-2.1109,-2.1109,-2.1222,-2.1321,-2.1159,-2.1222,-2.1321,-2.1159,-2.1309,-2.1588,-2.1363,-2.1692,-2.2264,-2.2694,-2.3458,-2.4456,-2.5394,-2.6388,-2.7056,-2.7004,-2.6807,-2.6551,-2.6337,-2.5133,-2.3978,-2.3427,-2.2415,-2.1551,-2.1172,-2.1279,-2.1574,-2.2258,-2.2851,0.0,-2.4449,-2.5439,-2.5739,-2.5012,-2.4745,-2.4115,-2.3049,-2.2591,0.0,-2.2572,-2.3258,-2.358,-2.3487,-2.4075,-2.4476,-2.4636,-2.4636,-2.4636,-2.4562,-2.4796,-2.4877,-2.4903,-2.5491,-2.5758,-2.5772,-2.6199,-2.6627,-2.7028,-2.7028,-2.7281,-2.7765,-2.7843,-2.8083,-2.839,-2.8724,-2.8664,-2.8286,-2.1823,-2.1244,-2.0665,-2.0665,-2.0665,-2.0665,-2.0665,-2.0665,-2.0665,-2.0665,-2.0665,-2.0665,-2.0665,-2.1012,-2.1346,-2.1691,-2.2379,-2.2516,-2.1897,-2.2173,-2.1966,-2.1346,-2.2005,-2.2349,-2.231,-2.2415,-2.2218,-2.1748,-2.1937,-2.1924,-2.1748,-2.1708,-2.1681,-2.1668,-2.1309,-2.1149,-2.1109,-2.1109,-2.1109,-2.1109,-2.1109,-2.1109,-2.1109,-2.1109,-2.1136,-2.1176,-2.1176,-2.1363,-2.1641,-2.1323,-2.1416,-2.1641,-2.1323,-2.1443,-2.1735,-2.1695,-2.1722,-2.1865,-2.265,-2.2758,-2.3189,-2.5045,-2.6171,-2.6884,-2.7125,-2.6323,-2.5512,-2.5565,-2.4074,-2.2623,-2.237,-2.171,-2.1176,-2.1176,-2.0516,-2.0425,-2.1705,0.0,-2.2218,-2.3826,-2.479,-2.5219,-2.5026,-2.4704,-2.4068,-2.3001,-2.2804,-2.2745,-2.2519,-2.321,-2.3786,-2.4262,-2.4502,-2.4636,-2.4636,-2.4636,-2.4636,-2.4636,-2.4636,-2.4663,-2.4716,-2.5264,-2.5545,-2.5611,-2.6146,-2.672,-2.7268,-2.7268,-2.7698,-2.8221,-2.8221,-2.8337,-2.8604,-2.8604,-2.8532,-2.8435,-2.2065,-2.1368,-2.0665,-2.0665,-2.0665,-2.0665,-2.0665,-2.0665,-2.0665,-2.0665,-2.0665,-2.0665,-2.0665,-2.1012,-2.1207,-2.1276,-2.1966,-2.231,-2.2242,-2.2242,-2.2104,-2.1691,-2.2336,-2.2558,-2.231,-2.2614,-2.2632,-2.2285,-2.2325,-2.2325,-2.2271,-2.2031,-2.1924,-2.1911,-2.1681,-2.1349,-2.1109,-2.1109,-2.1109,-2.1109,-2.1109,-2.1109,-2.1109,-2.1109,-2.1269,-2.1547,-2.1547,-2.167,-2.1911,-2.1871,-2.1884,-2.1911,-2.1871,-2.2044,-2.2231,-2.1991,-2.2098,-2.2231,-2.2175,-2.272,-2.3666,-2.4827,-2.5211,-2.5355,-2.5401,-2.5242,-2.5098,-2.508,-2.4148,-2.3343,-2.3278,-2.2291,-2.1547,-2.1547,-2.0926,-2.0591,-2.0806,0.0,-2.117,-2.1463,-2.3324,-2.4066,-2.2874,-2.401,-2.4302,-2.2892,-2.2802,-2.3007,-2.3393,-2.3549,-2.3878,-2.4482,-2.4609,-2.4636,-2.4636,-2.4636,-2.4636,-2.4636,-2.4636,-2.477,-2.5024,-2.5358,-2.5651,-2.5905,-2.6239,-2.672,-2.7268,-2.7268,-2.7698,-2.8221,-2.8221,-2.8337,-2.8604,-2.8604,-2.8705,-2.8897,-2.2784,-2.1685,-2.0665,-2.0665,-2.0665,-2.0665,-2.0665,-2.0665,-2.0665,-2.0665,-2.0665,-2.0665,-2.0665,-2.0873,-2.1012,-2.1207,-2.1484,-2.1897,-2.2242,-2.2516,-2.2448,-2.2104,-2.2371,-2.2441,-2.231,-2.2448,-2.2508,-2.2418,-2.2418,-2.2418,-2.2405,-2.2124,-2.2071,-2.2205,-2.175,-2.1534,-2.1336,-2.1176,-2.1109,-2.1122,-2.1283,-2.1349,-2.1363,-2.1523,-2.167,-2.1829,-2.1681,-2.1844,-2.2164,-2.1857,-2.1964,-2.2191,-2.2031,-2.2178,-2.2392,-2.2258,-2.2311,-2.2352,-2.2071,-2.2825,-2.3751,-2.4115,-2.459,-2.5024,-2.5256,-2.471,-2.4245,-2.4422,-2.3534,-2.27,-2.27,-2.2076,-2.1722,-2.1964,-2.0993,0.0,0.0,-2.0847,-2.0803,-2.1064,-2.2605,-2.3448,-2.2806,-2.3685,-2.3977,-2.3059,-2.3132,-2.3327,-2.3601,-2.3551,-2.384,-2.4562,-2.4636,-2.4636,-2.4636,-2.4636,-2.4636,-2.4562,-2.4796,-2.4943,-2.509,-2.5545,-2.5825,-2.5985,-2.6426,-2.6867,-2.7268,-2.7268,-2.7698,-2.8207,-2.7963,-2.8283,-2.8845,-2.8845,-2.9125,-2.9424,-2.359,-2.221,-2.1012,-2.1151,-2.1339,-2.1363,-2.1024,-2.1061,-2.1086,-2.0747,-2.0726,-2.0738,-2.0747,-2.0795,-2.0865,-2.1081,-2.1207,-2.1553,-2.2173,-2.2516,-2.2654,-2.231,-2.2242,-2.2268,-2.2415,-2.2349,-2.2303,-2.2418,-2.2485,-2.2485,-2.2418,-2.2258,-2.2271,-2.2405,-2.1951,-2.1775,-2.1708,-2.1416,-2.1309,-2.1336,-2.1563,-2.1722,-2.1748,-2.1897,-2.1991,-2.1951,-2.1802,-2.1977,-2.2352,-2.1897,-2.2098,-2.2485,-2.2258,-2.2338,-2.2539,-2.2605,-2.2672,-2.2727,-2.2618,-2.3087,-2.3599,-2.3426,-2.3963,-2.4546,-2.4849,-2.4121,-2.344,-2.368,-2.3008,-2.2271,-2.2205,-2.207,-2.1977,-2.2352,0.0,0.0,0.0,-2.0943,-2.0766,-2.1123,-2.2203,-2.2955,-2.3171,-2.3569,-2.3752,-2.3537,-2.3799,-2.393,-2.3865,-2.377,-2.3961,-2.4414,-2.4629,-2.4743,-2.4743,-2.4743,-2.4703,-2.4562,-2.4943,-2.5117,-2.5197,-2.5718,-2.6219,-2.6547,-2.6759,-2.7149,-2.7676,-2.7499,-2.7669,-2.8207,-2.7976,-2.8377,-2.9045,-2.9045,-2.9406,-2.9784,-2.4566,-2.3107,-2.1897,-2.2585,-2.3225,-2.3249,-2.1949,-2.2267,-2.2192,-2.0841,-2.0953,-2.1013,-2.0759,-2.0883,-2.1001,-2.0759,-2.1358,-2.1772,-2.1829,-2.2173,-2.231,-2.231,-2.1966,-2.2164,-2.2771,-2.2441,-2.2303,-2.2418,-2.2699,-2.2686,-2.2418,-2.2672,-2.2659,-2.2418,-2.2378,-2.2205,-2.1951,-2.1924,-2.1924,-2.1924,-2.1951,-2.1951,-2.1951,-2.1977,-2.1991,-2.1977,-2.1964,-2.2151,-2.2405,-2.2365,-2.2565,-2.2887,-2.2874,-2.2874,-2.2886,-2.318,-2.3447,-2.3823,-2.4186,-2.3624,-2.2956,-2.2942,-2.2997,-2.3079,-2.3092,-2.3011,-2.2942,-2.2969,-2.3115,-2.314,-2.2846,-2.2847,-2.2686,-2.2458,0.0,0.0,-2.1302,-2.1196,-2.1123,-2.1144,-2.1956,-2.2666,-2.3006,-2.3603,-2.4127,-2.4496,-2.4775,-2.4815,-2.4549,-2.4442,-2.4318,-2.4044,-2.4679,-2.505,-2.505,-2.505,-2.4917,-2.4562,-2.4943,-2.5224,-2.5491,-2.5812,-2.6795,-2.8076,-2.7159,-2.762,-2.8882,-2.8043,-2.7856,-2.8248,-2.843,-2.8738,-2.9045,-2.9045,-2.9406,-2.9873,-2.4498,-2.3775,-2.314,-2.3126,-2.3717,-2.3809,-2.2505,-2.2512,-2.2337,-2.1327,-2.1257,-2.1281,-2.1185,-2.1171,-2.1086,-2.0989,-2.1041,-2.1427,-2.2035,-2.2448,-2.2379,-2.1622,-2.1484,-2.1672,-2.2203,-2.21,-2.2258,-2.2699,-2.2806,-2.2806,-2.2699,-2.2806,-2.2806,-2.2686,-2.2498,-2.2352,-2.2245,-2.2058,-2.1991,-2.2004,-2.2178,-2.2258,-2.2271,-2.2458,-2.2525,-2.2498,-2.2325,-2.2445,-2.2672,-2.2485,-2.2619,-2.2928,-2.2928,-2.2993,-2.3346,-2.4344,-2.4241,-2.3998,-2.4805,-2.4122,-2.3153,-2.3153,-2.3006,-2.2913,-2.31,-2.3153,-2.3153,-2.3153,-2.3394,-2.3567,-2.3447,-2.3273,-2.3233,-2.3487,0.0,-2.2219,-2.2659,-2.2332,-2.2028,-2.1968,-2.2618,-2.3214,-2.3527,-2.4016,-2.4534,-2.5095,-2.5451,-2.5491,-2.5197,-2.474,-2.4501,-2.4566,-2.4835,-2.5037,-2.5077,-2.5077,-2.5117,-2.5184,-2.5291,-2.5504,-2.5798,-2.6092,-2.6689,-2.7385,-2.7203,-2.75,-2.8181,-2.7808,-2.7869,-2.8234,-2.827,-2.8617,-2.9058,-2.9245,-2.9566,-2.99,-2.4916,-2.4484,-2.4067,-2.3997,-2.4665,-2.4788,-2.3288,-2.3229,-2.287,-2.174,-2.1957,-2.2137,-2.205,-2.2296,-2.2299,-2.1981,-2.2001,-2.2302,-2.2924,-2.3432,-2.3115,-2.1772,-2.1276,-2.1289,-2.176,-2.176,-2.2173,-2.2928,-2.2928,-2.2928,-2.2928,-2.2928,-2.2928,-2.2928,-2.2645,-2.2565,-2.2539,-2.2739,-2.2791,-2.2804,-2.301,-2.3024,-2.3052,-2.2916,-2.2806,-2.2699,-2.2485,-2.2552,-2.2699,-2.2485,-2.2686,-2.3006,-2.3006,-2.3287,-2.3762,-2.4636,-2.4531,-2.421,-2.4719,-2.4241,-2.3581,-2.3487,-2.3233,-2.3086,-2.3394,-2.3474,-2.3474,-2.3474,-2.3701,-2.3875,-2.3794,-2.3674,-2.3701,-2.4022,-2.3413,-2.3043,-2.3523,-2.3655,-2.3463,-2.2965,-2.3674,-2.4091,-2.4072,-2.4246,-2.4573,-2.5148,-2.5598,-2.5772,-2.5498,-2.5159,-2.494,-2.4892,-2.5229,-2.5344,-2.5358,-2.5264,-2.5277,-2.5384,-2.5464,-2.5665,-2.605,-2.6346,-2.6866,-2.7403,-2.7391,-2.7756,-2.8276,-2.7956,-2.7963,-2.8248,-2.835,-2.8671,-2.9085,-2.9472,-2.9651,-2.9734,-2.5933,-2.5113,-2.4622,-2.5397,-2.6413,-2.64,-2.4458,-2.453,-2.4109,-2.2166,-2.2946,-2.3556,-2.3268,-2.4556,-2.5,-2.3982,-2.4608,-2.4884,-2.4567,-2.5114,-2.4721,-2.3023,-2.1496,-2.1081,-2.176,-2.176,-2.2173,-2.2928,-2.2928,-2.2928,-2.2928,-2.2928,-2.2928,-2.2928,-2.2928,-2.2928,-2.2996,-2.4088,-2.4495,-2.4495,-2.4495,-2.4495,-2.4428,-2.3338,-2.274,-2.2418,-2.2418,-2.2418,-2.2418,-2.2418,-2.2819,-2.3327,-2.3327,-2.3728,-2.4142,-2.3861,-2.4182,-2.4516,-2.3928,-2.3981,-2.4142,-2.3848,-2.3554,-2.3407,-2.3714,-2.3768,-2.3768,-2.3768,-2.4008,-2.4115,-2.3834,-2.4022,-2.4115,-2.3821,-2.3781,-2.3731,-2.3648,-2.4948,-2.5382,-2.4059,-2.4962,-2.5412,-2.455,-2.4214,-2.4193,-2.4576,-2.5197,-2.5498,-2.54,-2.5803,-2.567,-2.4905,-2.5844,-2.6253,-2.6037,-2.5665,-2.5371,-2.509,-2.5384,-2.5678,-2.5985,-2.656,-2.7456,-2.8682,-2.8017,-2.8428,-2.9514,-2.8603,-2.8221,-2.8288,-2.8804,-2.9032,-2.9112,-2.97,-2.9644,-2.9272,-2.5413,-2.5516,-2.5677,-2.5827,-2.6561,-2.6702,-2.5472,-2.5864,-2.5864,-2.4755,-2.5604,-2.6287,-2.62,-2.6629,-2.6482,-2.5385,-2.5313,-2.5338,-2.5241,-2.5183,-2.5011,-2.4742,-2.3097,-2.238,-2.2928,-2.2173,-2.2173,-2.2928,-2.3679,-2.402,-2.402,-2.402,-2.4428,-2.509,-2.436,-2.4428,-2.5158,-2.5495,-2.5644,-2.5644,-2.5644,-2.5644,-2.5562,-2.5292,-2.5099,-2.4876,-2.415,-2.3879,-2.3744,-2.2998,-2.2993,-2.3394,-2.3808,-2.4062,-2.4222,-2.4342,-2.4502,-2.4596,-2.4422,-2.4289,-2.4182,-2.4102,-2.3861,-2.3714,-2.4008,-2.4075,-2.4075,-2.4075,-2.4476,-2.473,-2.4436,-2.4623,-2.4716,-2.4422,-2.4382,-2.4615,-2.5413,-2.6132,-2.6358,-2.5561,-2.586,-2.5876,-2.519,-2.4814,-2.4967,-2.5838,-2.6026,-2.6094,-2.6095,-2.5753,-2.5608,-2.567,-2.5674,-2.5712,-2.5651,-2.5758,-2.5879,-2.5999,-2.5879,-2.6079,-2.6573,-2.6747,-2.7203,-2.8017,-2.7781,-2.8066,-2.8589,-2.8362,-2.8221,-2.8261,-2.8577,-2.8858,-2.9085,-2.9472,-2.9472,-2.9156,-2.6156,-2.6588,-2.6977,-2.7104,-2.7418,-2.7564,-2.6925,-2.7173,-2.7129,-2.65,-2.742,-2.8197,-2.8197,-2.8798,-2.8696,-2.7367,-2.6691,-2.6331,-2.6158,-2.6343,-2.6464,-2.6334,-2.5184,-2.4358,-2.402,-2.3393,-2.3461,-2.4142,-2.4834,-2.5105,-2.5105,-2.5105,-2.551,-2.61,-2.5442,-2.551,-2.61,-2.6568,-2.6702,-2.6702,-2.6702,-2.6847,-2.6889,-2.628,-2.6191,-2.6215,-2.5419,-2.5105,-2.4984,-2.4023,-2.3662,-2.3754,-2.4222,-2.4369,-2.4409,-2.4583,-2.4636,-2.4636,-2.4636,-2.4502,-2.4369,-2.4369,-2.4155,-2.4022,-2.4302,-2.4462,-2.4556,-2.4556,-2.4836,-2.5024,-2.485,-2.4863,-2.489,-2.4823,-2.5168,-2.5802,-2.664,-2.7896,-2.8253,-2.6989,-2.7162,-2.6947,-2.5591,-2.5135,-2.5394,-2.6333,-2.6279,-2.6319,-2.6547,-2.6149,-2.6056,-2.6293,-2.6056,-2.5977,-2.6026,-2.6213,-2.6333,-2.6386,-2.6092,-2.6266,-2.6827,-2.6947,-2.7188,-2.7535,-2.7776,-2.7976,-2.8221,-2.8221,-2.8221,-2.8261,-2.8484,-2.8778,-2.8971,-2.907,-2.9034,-2.8873,-2.7815,-2.7984,-2.8325,-2.8739,-2.8742,-2.868,-2.8596,-2.8443,-2.8133,-2.7673,-2.8702,-2.9536,-2.9536,-3.0906,-3.1211,-2.9666,-2.8381,-2.755,-2.7159,-2.8033,-2.8308,-2.7702,-2.7342,-2.6633,-2.5381,-2.5231,-2.5419,-2.6078,-2.6243,-2.6326,-2.6326,-2.6295,-2.6362,-2.646,-2.6331,-2.6316,-2.6481,-2.7451,-2.7833,-2.7833,-2.7833,-2.8044,-2.8254,-2.691,-2.6666,-2.6997,-2.647,-2.6295,-2.6169,-2.5284,-2.4664,-2.4249,-2.4543,-2.4649,-2.4676,-2.4676,-2.4616,-2.4642,-2.4642,-2.4616,-2.4602,-2.4602,-2.4462,-2.4315,-2.4569,-2.4863,-2.5077,-2.505,-2.5028,-2.5055,-2.505,-2.4815,-2.4749,-2.505,-2.6051,-2.6986,-2.7499,-2.9623,-3.0354,-2.8235,-2.8626,-2.8056,-2.5698,-2.5255,-2.5518,-2.6214,-2.6172,-2.6279,-2.676,-2.6814,-2.6827,-2.6827,-2.6827,-2.6827,-2.6867,-2.6867,-2.672,-2.6426,-2.6159,-2.6346,-2.6907,-2.7148,-2.7295,-2.7375,-2.7993,-2.8221,-2.8221,-2.8221,-2.8221,-2.8261,-2.8457,-2.8764,-2.8857,-2.8483,-2.8395,-2.8308,-2.8178,-2.8223,-2.8364,-2.8749,-2.8777,-2.883,-2.9114,-2.9601,-2.9855,-2.9776,-3.1027,-3.1912,-3.1912,-3.2754,-3.2578,-3.0788,-2.8797,-2.756,-2.7485,-2.738,-2.7473,-2.7605,-2.7617,-2.7818,-2.8337,-2.6725,-2.5914,-2.6087,-2.751,-2.8063,-2.7789,-2.7845,-2.8402,-2.9411,-2.7959,-2.7995,-2.9077,-2.8974,-2.8971,-2.8971,-2.8971,-2.9208,-2.9496,-2.8859,-2.9044,-2.9427,-2.8235,-2.8028,-2.7958,-2.6276,-2.501,-2.4249,-2.4543,-2.4796,-2.4983,-2.4983,-2.4918,-2.4938,-2.5242,-2.4855,-2.4521,-2.4909,-2.4756,-2.4556,-2.4623,-2.4863,-2.4935,-2.4337,-2.4746,-2.5085,-2.4328,-2.4707,-2.5148,-2.5144,-2.5491,-2.6488,-2.8432,-2.8639,-2.8756,-2.9077,-2.8323,-2.7174,-2.5593,-2.5531,-2.5609,-2.5661,-2.6467,-2.6841,-2.6507,-2.6694,-2.6827,-2.6827,-2.6827,-2.6934,-2.7161,-2.7175,-2.7028,-2.6734,-2.6667,-2.6947,-2.7495,-2.7335,-2.7604,-2.8047,-2.8167,-2.8221,-2.8221,-2.8221,-2.8221,-2.8234,-2.8301,-2.8393,-2.8382,-2.8074,-2.7836,-2.7506,-2.9578,-2.985,-3.0156,-3.0356,-3.0213,-3.0223,-3.0376,-3.071,-3.0977,-3.0977,-3.1841,-3.2491,-3.2701,-3.3051,-3.2684,-3.1118,-2.9266,-2.8057,-2.784,-2.7608,-2.7533,-2.7583,-2.8141,-2.8609,-2.9045,-2.8279,-2.7897,-2.7879,-2.8688,-2.8923,-2.8802,-2.9001,-2.9327,-2.9868,-2.9077,-2.9059,-2.9607,-2.9402,-2.9419,-2.959,-2.959,-2.9932,-3.0395,-3.0001,-3.0206,-3.0583,-2.9647,-2.8858,-2.7998,-2.7038,-2.5737,-2.4649,-2.4796,-2.505,-2.5291,-2.5291,-2.5093,-2.4969,-2.5365,-2.5093,-2.472,-2.5042,-2.5064,-2.4983,-2.4703,-2.497,-2.5122,-2.438,-2.4709,-2.4931,-2.4357,-2.4605,-2.5019,-2.5242,-2.6052,-2.7052,-2.8497,-2.8813,-2.8916,-2.8931,-2.81,-2.7122,-2.5976,-2.5858,-2.5977,-2.6321,-2.6667,-2.6774,-2.66,-2.6734,-2.6894,-2.7028,-2.7028,-2.7108,-2.7268,-2.7402,-2.7321,-2.7028,-2.6894,-2.7054,-2.7482,-2.7335,-2.7428,-2.7819,-2.81,-2.8221,-2.815,-2.7981,-2.7897,-2.7825,-2.7787,-2.7766,-2.7753,-2.7353,-2.7047,-2.6802,-3.124,-3.1769,-3.2173,-3.2175,-3.1966,-3.1774,-3.1736,-3.17,-3.163,-3.163,-3.1894,-3.2263,-3.2561,-3.2561,-3.214,-3.1223,-2.9783,-2.8707,-2.8202,-2.8097,-2.7907,-2.7638,-2.8462,-2.8863,-2.8782,-2.9424,-2.9759,-2.9795,-2.9586,-2.9481,-2.9412,-2.9829,-2.9867,-2.9614,-2.9834,-2.9847,-2.959,-2.947,-2.9641,-2.9984,-2.9915,-3.0343,-3.0977,-3.0583,-3.072,-3.1063,-3.0669,-2.9372,-2.7829,-2.7672,-2.6648,-2.5377,-2.5152,-2.5317,-2.5585,-2.5585,-2.5317,-2.5048,-2.5511,-2.524,-2.4905,-2.5215,-2.5371,-2.5384,-2.489,-2.5197,-2.5415,-2.4616,-2.4698,-2.4854,-2.454,-2.4592,-2.4825,-2.5481,-2.6675,-2.7713,-2.8218,-2.8949,-2.9168,-2.8403,-2.7664,-2.6932,-2.6213,-2.5949,-2.6148,-2.6907,-2.6734,-2.66,-2.6734,-2.68,-2.6934,-2.7188,-2.7188,-2.7215,-2.7268,-2.7509,-2.7522,-2.7335,-2.7041,-2.7081,-2.7415,-2.7362,-2.7362,-2.7442,-2.802,-2.8221,-2.815,-2.7728,-2.7513,-2.7578,-2.7285,-2.7142,-2.7093,-2.6537,-2.6263,-2.6254,-3.2314,-3.2458,-3.2525,-3.2564,-3.2556,-3.2421,-3.2105,-3.2035,-3.1894,-3.163,-3.1894,-3.2105,-3.2175,-3.1912,-3.17,-3.1559,-3.0425,-2.9425,-2.8707,-2.832,-2.7958,-2.7623,-2.774,-2.8232,-2.9218,-2.8963,-2.902,-2.9412,-3.0003,-3.008,-2.9851,-3.0156,-3.0506,-3.0741,-3.0446,-3.0515,-3.0737,-3.0087,-3.0035,-3.0326,-3.0018,-3.0343,-3.0977,-3.0583,-3.0874,-3.1439,-3.1063,-3.0326,-2.9345,-2.8326,-2.7349,-2.6411,-2.5377,-2.5451,-2.5892,-2.5892,-2.5531,-2.5253,-2.603,-2.5531,-2.4933,-2.5697,-2.5678,-2.5491,-2.5411,-2.5651,-2.5668,-2.473,-2.4791,-2.4943,-2.4542,-2.4778,-2.5203,-2.5854,-2.6289,-2.6963,-2.8168,-2.7476,-2.724,-2.8168,-2.6418,-2.5076,-2.5113,-2.527,-2.5398,-2.5675,-2.66,-2.6947,-2.6466,-2.668,-2.6841,-2.6881,-2.6881,-2.7001,-2.7268,-2.7308,-2.7428,-2.7642,-2.7348,-2.7495,-2.81,-2.7762,-2.7776,-2.8114,-2.8194,-2.8221,-2.815,-2.7728,-2.763,-2.7766,-2.7362,-2.7095,-2.6847,-2.6177,-2.5989,-2.623,-3.2918,-3.313,-3.3197,-3.299,-3.3013,-3.2983,-3.2773,-3.2544,-3.2491,-3.2555,-3.2505,-3.2436,-3.2436,-3.2104,-3.1857,-3.1867,-3.1026,-3.046,-3.0292,-2.9723,-2.897,-2.8273,-2.8404,-2.8546,-2.865,-2.8707,-2.8916,-2.9273,-2.9647,-2.9728,-2.9568,-3.0118,-3.0373,-3.0393,-3.0632,-3.0737,-3.0669,-3.0326,-3.0412,-3.0737,-3.0583,-3.084,-3.1302,-3.1131,-3.1268,-3.1542,-3.1388,-3.0647,-2.9695,-2.9194,-2.8157,-2.6965,-2.6438,-2.6257,-2.6199,-2.6199,-2.6004,-2.5801,-2.6281,-2.6017,-2.5634,-2.5961,-2.5985,-2.5959,-2.5798,-2.5985,-2.5948,-2.4903,-2.483,-2.4879,-2.4737,-2.4843,-2.5086,-2.5894,-2.6199,-2.6623,-2.7162,-2.6781,-2.6623,-2.7162,-2.6109,-2.5491,-2.5924,-2.57,-2.5751,-2.6427,-2.6667,-2.6734,-2.664,-2.66,-2.6653,-2.6814,-2.6827,-2.6881,-2.7014,-2.7188,-2.7335,-2.7455,-2.7495,-2.7642,-2.7896,-2.7762,-2.7762,-2.7896,-2.8154,-2.8221,-2.8136,-2.7389,-2.7212,-2.7268,-2.6797,-2.656,-2.6458,-2.6015,-2.5989,-2.6242]},{"header":{"parameterUnit":"m.s-1","parameterCategory":1,"la1":30.6,"la2":28.766,"lo1":-90.7593,"lo2":-88.6598,"dy":0.0162,"dx":0.0183,"nx":116,"ny":114,"refTime":"2023-10-24T06:00:00:Z","depth":0,"parameterNumber":3,"parameterNumberName":"V-component_of_WINDS"},"data":[0.0,0.0,0.0,0.0,0.0,0.0,0.0,0.0,0.0,0.0,0.0,0.0,0.0,0.0,0.0,0.0,0.0,0.0,0.0,0.0,0.0,0.0,0.0,0.0,0.0,0.0,0.0,0.0,0.0,0.0,0.0,0.0,0.0,0.0,0.0,0.0,0.0,0.0,0.0,0.0,0.0,0.0,0.0,0.0,0.0,0.0,0.0,0.0,0.0,0.0,0.0,0.0,0.0,0.0,0.0,0.0,0.0,0.0,0.0,0.0,0.0,0.0,0.0,0.0,0.0,0.0,0.0,0.0,0.0,0.0,0.0,0.0,0.0,0.0,0.0,0.0,0.0,0.0,0.0,0.0,0.0,0.0,0.0,0.0,0.0,0.0,0.0,0.0,0.0,0.0,0.0,0.0,0.0,0.0,0.0,0.0,0.0,0.0,0.0,0.0,0.0,0.0,0.0,0.0,0.0,0.0,0.0,0.0,0.0,0.0,0.0,0.0,0.0,0.0,0.0,0.0,0.0,0.0,0.0,0.0,0.0,0.0,0.0,0.0,0.0,0.0,0.0,0.0,0.0,0.0,0.0,0.0,0.0,0.0,0.0,0.0,0.0,0.0,0.0,0.0,0.0,0.0,0.0,0.0,0.0,0.0,0.0,0.0,0.0,0.0,0.0,0.0,0.0,0.0,0.0,0.0,0.0,0.0,0.0,0.0,0.0,0.0,0.0,0.0,0.0,0.0,0.0,0.0,0.0,0.0,0.0,0.0,0.0,0.0,0.0,0.0,0.0,0.0,0.0,0.0,0.0,0.0,0.0,0.0,0.0,0.0,0.0,0.0,0.0,0.0,0.0,0.0,0.0,0.0,0.0,0.0,0.0,0.0,0.0,0.0,0.0,0.0,0.0,0.0,0.0,0.0,0.0,0.0,0.0,0.0,0.0,0.0,0.0,0.0,0.0,0.0,0.0,0.0,0.0,0.0,0.0,0.0,0.0,0.0,0.0,0.0,0.0,0.0,0.0,0.0,0.0,0.0,0.0,0.0,0.0,0.0,0.0,0.0,0.0,0.0,0.0,0.0,0.0,0.0,0.0,0.0,0.0,0.0,0.0,0.0,0.0,0.0,0.0,0.0,0.0,0.0,0.0,0.0,0.0,0.0,0.0,0.0,0.0,0.0,0.0,0.0,0.0,0.0,0.0,0.0,0.0,0.0,0.0,0.0,0.0,0.0,0.0,0.0,0.0,0.0,0.0,0.0,0.0,0.0,0.0,0.0,0.0,0.0,0.0,0.0,0.0,0.0,0.0,0.0,0.0,0.0,0.0,0.0,0.0,0.0,0.0,0.0,0.0,0.0,0.0,0.0,0.0,0.0,0.0,0.0,0.0,0.0,0.0,0.0,0.0,0.0,0.0,0.0,0.0,0.0,0.0,0.0,0.0,0.0,0.0,0.0,0.0,0.0,0.0,0.0,0.0,0.0,0.0,0.0,0.0,0.0,0.0,0.0,0.0,0.0,0.0,0.0,0.0,0.0,0.0,0.0,0.0,0.0,0.0,0.0,0.0,0.0,0.0,0.0,0.0,0.0,0.0,0.0,0.0,0.0,0.0,0.0,0.0,0.0,0.0,0.0,0.0,0.0,0.0,0.0,0.0,0.0,0.0,0.0,0.0,0.0,0.0,0.0,0.0,0.0,0.0,0.0,0.0,0.0,0.0,0.0,0.0,0.0,0.0,0.0,0.0,0.0,0.0,0.0,0.0,0.0,0.0,0.0,0.0,0.0,0.0,0.0,0.0,0.0,0.0,0.0,0.0,0.0,0.0,0.0,0.0,0.0,0.0,0.0,0.0,0.0,0.0,0.0,0.0,0.0,0.0,0.0,0.0,0.0,0.0,0.0,0.0,0.0,0.0,0.0,0.0,0.0,0.0,0.0,0.0,0.0,0.0,0.0,0.0,0.0,0.0,0.0,0.0,0.0,0.0,0.0,0.0,0.0,0.0,0.0,0.0,0.0,0.0,0.0,0.0,0.0,0.0,0.0,0.0,0.0,0.0,0.0,0.0,0.0,0.0,0.0,0.0,0.0,0.0,0.0,0.0,0.0,0.0,0.0,0.0,0.0,0.0,0.0,0.0,0.0,0.0,0.0,0.0,0.0,0.0,0.0,0.0,0.0,0.0,0.0,0.0,0.0,0.0,0.0,0.0,0.0,0.0,0.0,0.0,0.0,0.0,0.0,0.0,0.0,0.0,0.0,0.0,0.0,0.0,0.0,0.0,0.0,0.0,0.0,0.0,0.0,0.0,0.0,0.0,0.0,0.0,0.0,0.0,0.0,0.0,0.0,0.0,0.0,0.0,0.0,0.0,0.0,0.0,0.0,0.0,0.0,0.0,0.0,0.0,0.0,0.0,0.0,0.0,0.0,0.0,0.0,0.0,0.0,0.0,0.0,0.0,0.0,0.0,0.0,0.0,0.0,0.0,0.0,0.0,0.0,0.0,0.0,0.0,0.0,0.0,0.0,0.0,0.0,0.0,0.0,0.0,0.0,0.0,0.0,0.0,0.0,0.0,0.0,0.0,0.0,0.0,0.0,0.0,0.0,0.0,0.0,0.0,0.0,0.0,0.0,0.0,0.0,0.0,0.0,0.0,0.0,0.0,0.0,0.0,0.0,0.0,0.0,0.0,0.0,0.0,0.0,0.0,0.0,0.0,0.0,0.0,0.0,0.0,0.0,0.0,0.0,0.0,0.0,0.0,0.0,0.0,0.0,0.0,0.0,0.0,0.0,0.0,0.0,0.0,0.0,0.0,0.0,0.0,0.0,0.0,0.0,0.0,0.0,0.0,0.0,0.0,0.0,0.0,0.0,0.0,0.0,0.0,0.0,0.0,0.0,0.0,0.0,0.0,0.0,0.0,0.0,0.0,0.0,0.0,0.0,0.0,0.0,0.0,0.0,0.0,0.0,0.0,0.0,0.0,0.0,0.0,0.0,0.0,0.0,0.0,0.0,0.0,0.0,0.0,0.0,0.0,0.0,0.0,0.0,0.0,0.0,0.0,0.0,0.0,0.0,0.0,0.0,0.0,0.0,0.0,0.0,0.0,0.0,0.0,0.0,0.0,0.0,0.0,0.0,0.0,0.0,0.0,0.0,0.0,0.0,0.0,0.0,0.0,0.0,0.0,0.0,0.0,0.0,0.0,0.0,0.0,0.0,0.0,0.0,0.0,0.0,0.0,0.0,0.0,0.0,0.0,0.0,0.0,0.0,0.0,0.0,0.0,0.0,0.0,0.0,0.0,0.0,0.0,0.0,0.0,0.0,0.0,0.0,0.0,0.0,0.0,0.0,0.0,0.0,0.0,0.0,0.0,0.0,0.0,0.0,0.0,0.0,0.0,0.0,0.0,0.0,0.0,0.0,0.0,0.0,0.0,0.0,0.0,0.0,0.0,0.0,0.0,0.0,0.0,0.0,0.0,0.0,0.0,0.0,0.0,0.0,0.0,0.0,0.0,0.0,0.0,0.0,0.0,0.0,0.0,0.0,0.0,0.0,0.0,0.0,0.0,0.0,0.0,0.0,0.0,0.0,0.0,0.0,0.0,0.0,0.0,0.0,0.0,0.0,0.0,0.0,0.0,0.0,0.0,0.0,0.0,0.0,0.0,0.0,0.0,0.0,0.0,0.0,0.0,0.0,0.0,0.0,0.0,0.0,0.0,0.0,0.0,0.0,0.0,0.0,0.0,0.0,0.0,0.0,0.0,0.0,0.0,0.0,0.0,0.0,0.0,0.0,0.0,0.0,0.0,0.0,0.0,0.0,0.0,0.0,0.0,0.0,0.0,0.0,0.0,0.0,0.0,0.0,0.0,0.0,0.0,0.0,0.0,0.0,0.0,0.0,0.0,0.0,0.0,0.0,0.0,0.0,0.0,0.0,0.0,0.0,0.0,0.0,0.0,0.0,0.0,0.0,0.0,0.0,0.0,0.0,0.0,0.0,0.0,0.0,0.0,0.0,0.0,0.0,0.0,0.0,0.0,0.0,0.0,0.0,0.0,0.0,0.0,0.0,0.0,0.0,0.0,0.0,0.0,0.0,0.0,0.0,0.0,0.0,0.0,0.0,0.0,0.0,0.0,0.0,0.0,0.0,0.0,0.0,0.0,0.0,0.0,0.0,0.0,0.0,0.0,0.0,0.0,0.0,0.0,0.0,0.0,0.0,0.0,0.0,0.0,0.0,0.0,0.0,0.0,0.0,0.0,0.0,0.0,0.0,0.0,0.0,0.0,0.0,0.0,0.0,0.0,0.0,0.0,0.0,0.0,0.0,0.0,0.0,0.0,0.0,0.0,0.0,0.0,0.0,0.0,0.0,0.0,0.0,0.0,0.0,0.0,0.0,0.0,0.0,0.0,0.0,0.0,0.0,0.0,0.0,0.0,0.0,0.0,0.0,0.0,0.0,0.0,0.0,0.0,0.0,0.0,0.0,0.0,0.0,0.0,0.0,0.0,0.0,0.0,0.0,0.0,0.0,0.0,0.0,0.0,0.0,0.0,0.0,0.0,0.0,0.0,0.0,0.0,0.0,0.0,0.0,0.0,0.0,0.0,0.0,0.0,0.0,0.0,0.0,0.0,0.0,0.0,0.0,0.0,0.0,0.0,0.0,0.0,0.0,0.0,0.0,0.0,0.0,0.0,0.0,0.0,0.0,0.0,0.0,0.0,0.0,0.0,0.0,0.0,0.0,0.0,0.0,0.0,0.0,0.0,0.0,0.0,0.0,0.0,0.0,0.0,0.0,0.0,0.0,0.0,0.0,0.0,0.0,0.0,0.0,0.0,0.0,0.0,0.0,0.0,0.0,0.0,0.0,0.0,0.0,0.0,0.0,0.0,0.0,0.0,0.0,0.0,0.0,0.0,0.0,0.0,0.0,0.0,0.0,0.0,0.0,0.0,0.0,0.0,0.0,0.0,0.0,0.0,0.0,0.0,0.0,0.0,0.0,0.0,0.0,0.0,0.0,0.0,0.0,0.0,0.0,0.0,0.0,0.0,0.0,0.0,0.0,0.0,0.0,0.0,0.0,0.0,0.0,0.0,0.0,0.0,0.0,0.0,0.0,0.0,0.0,0.0,0.0,0.0,0.0,0.0,0.0,0.0,0.0,0.0,0.0,0.0,0.0,0.0,0.0,0.0,0.0,0.0,0.0,0.0,0.0,0.0,0.0,0.0,0.0,0.0,0.0,0.0,0.0,0.0,0.0,0.0,0.0,0.0,0.0,0.0,0.0,0.0,0.0,0.0,0.0,0.0,0.0,0.0,0.0,0.0,0.0,0.0,0.0,0.0,0.0,0.0,0.0,0.0,0.0,0.0,0.0,0.0,0.0,0.0,0.0,0.0,0.0,0.0,0.0,0.0,0.0,0.0,0.0,0.0,0.0,0.0,0.0,0.0,0.0,0.0,0.0,0.0,0.0,0.0,0.0,0.0,0.0,0.0,0.0,0.0,0.0,0.0,0.0,0.0,0.0,0.0,0.0,0.0,0.0,0.0,0.0,0.0,0.0,0.0,0.0,0.0,0.0,0.0,0.0,0.0,0.0,0.0,0.0,0.0,0.0,0.0,0.0,0.0,0.0,0.0,0.0,0.0,0.0,0.0,0.0,0.0,0.0,0.0,0.0,0.0,0.0,0.0,0.0,0.0,0.0,0.0,0.0,0.0,0.0,0.0,0.0,0.0,0.0,0.0,0.0,0.0,0.0,0.0,0.0,0.0,0.0,0.0,0.0,0.0,0.0,0.0,0.0,0.0,0.0,0.0,0.0,0.0,0.0,0.0,0.0,0.0,0.0,0.0,0.0,0.0,0.0,0.0,0.0,0.0,0.0,0.0,0.0,0.0,0.0,0.0,0.0,0.0,0.0,0.0,0.0,0.0,0.0,0.0,0.0,0.0,0.0,0.0,0.0,0.0,0.0,0.0,0.0,0.0,0.0,0.0,0.0,0.0,0.0,0.0,0.0,0.0,0.0,0.0,0.0,0.0,0.0,0.0,0.0,0.0,0.0,0.0,0.0,0.0,0.0,0.0,0.0,0.0,0.0,0.0,0.0,0.0,0.0,0.0,0.0,0.0,0.0,0.0,0.0,6.8491,0.0,0.0,0.0,0.0,0.0,0.0,0.0,0.0,0.0,0.0,0.0,0.0,0.0,0.0,0.0,0.0,0.0,0.0,0.0,0.0,0.0,0.0,0.0,0.0,0.0,0.0,0.0,0.0,0.0,0.0,0.0,0.0,0.0,0.0,0.0,0.0,0.0,0.0,6.0083,5.827,5.8418,6.0299,5.9522,5.9097,5.8906,0.0,0.0,0.0,0.0,0.0,0.0,0.0,0.0,0.0,0.0,0.0,0.0,0.0,0.0,0.0,0.0,0.0,0.0,0.0,0.0,0.0,0.0,0.0,0.0,0.0,0.0,0.0,0.0,0.0,0.0,0.0,0.0,0.0,0.0,0.0,0.0,0.0,0.0,0.0,0.0,0.0,0.0,0.0,0.0,0.0,0.0,0.0,0.0,0.0,0.0,0.0,0.0,0.0,0.0,0.0,0.0,0.0,0.0,0.0,0.0,0.0,0.0,0.0,0.0,0.0,0.0,0.0,0.0,0.0,0.0,0.0,7.1159,0.0,0.0,0.0,0.0,0.0,0.0,0.0,0.0,0.0,0.0,0.0,0.0,0.0,0.0,0.0,0.0,0.0,0.0,0.0,0.0,0.0,0.0,0.0,0.0,6.1388,6.3101,6.4155,0.0,0.0,0.0,0.0,0.0,0.0,0.0,0.0,5.759,5.8853,6.2828,6.0765,6.1043,6.3497,6.3049,6.1749,5.9816,5.9729,0.0,0.0,0.0,0.0,0.0,0.0,0.0,0.0,0.0,0.0,0.0,0.0,0.0,0.0,0.0,0.0,0.0,0.0,0.0,0.0,0.0,0.0,0.0,0.0,0.0,0.0,0.0,0.0,0.0,0.0,0.0,0.0,0.0,0.0,0.0,0.0,0.0,0.0,0.0,0.0,0.0,0.0,0.0,0.0,0.0,0.0,0.0,0.0,0.0,0.0,0.0,0.0,0.0,0.0,0.0,0.0,0.0,0.0,0.0,0.0,0.0,0.0,0.0,7.7487,7.8302,7.7446,7.9323,7.8726,7.6134,7.5215,7.4301,7.3468,7.2781,0.0,0.0,0.0,0.0,0.0,0.0,0.0,0.0,0.0,0.0,0.0,0.0,0.0,0.0,0.0,0.0,0.0,0.0,0.0,0.0,0.0,6.1015,6.1923,6.5033,6.4322,6.4187,0.0,0.0,0.0,0.0,0.0,0.0,6.1773,6.1593,6.2628,6.481,6.6279,6.7221,6.761,6.8182,6.7529,6.5797,6.2314,6.2354,6.4674,0.0,0.0,0.0,0.0,0.0,0.0,0.0,0.0,0.0,0.0,0.0,0.0,0.0,0.0,0.0,0.0,0.0,0.0,0.0,0.0,0.0,0.0,0.0,0.0,0.0,0.0,0.0,0.0,0.0,0.0,0.0,0.0,0.0,0.0,0.0,0.0,0.0,0.0,0.0,0.0,0.0,6.953,7.1018,0.0,0.0,0.0,0.0,0.0,0.0,0.0,0.0,0.0,0.0,0.0,0.0,0.0,7.9381,7.8369,8.0162,8.0301,7.8851,8.0132,7.9941,7.8548,7.9503,7.9701,7.929,7.9151,0.0,7.5342,7.3347,0.0,0.0,0.0,0.0,0.0,0.0,0.0,0.0,0.0,0.0,0.0,0.0,0.0,0.0,0.0,0.0,0.0,0.0,0.0,0.0,0.0,6.278,6.3691,6.5473,6.6661,6.7047,6.6347,0.0,0.0,0.0,0.0,6.2855,6.3605,6.3076,6.4126,6.6699,6.8853,6.9865,6.9845,6.9168,6.8483,6.7753,6.5611,6.4732,6.4544,6.0261,0.0,0.0,0.0,0.0,0.0,0.0,0.0,0.0,0.0,0.0,0.0,0.0,0.0,0.0,0.0,0.0,0.0,0.0,0.0,0.0,0.0,0.0,0.0,0.0,0.0,0.0,0.0,0.0,0.0,0.0,0.0,0.0,0.0,0.0,0.0,0.0,0.0,0.0,0.0,7.1047,7.4364,7.3835,7.4266,7.3718,0.0,0.0,0.0,0.0,0.0,0.0,0.0,0.0,0.0,7.8515,8.0275,8.1338,8.1632,8.1983,8.2246,8.2345,8.2322,8.2385,8.2636,8.2343,8.2451,8.2826,8.2216,8.1252,7.9933,7.7042,7.6449,7.7227,0.0,0.0,0.0,0.0,7.5965,7.6085,0.0,0.0,0.0,0.0,0.0,0.0,0.0,0.0,0.0,0.0,0.0,0.0,6.3092,6.3811,6.4767,6.6153,6.7983,6.852,6.713,6.7356,0.0,6.4182,6.3869,6.3895,6.4229,6.4348,6.5865,6.8893,7.0839,7.1773,7.1706,7.017,6.938,6.9157,6.8406,6.7126,6.5418,6.214,6.0381,5.9562,0.0,0.0,0.0,0.0,0.0,0.0,0.0,0.0,0.0,0.0,0.0,0.0,0.0,0.0,0.0,0.0,0.0,0.0,0.0,0.0,0.0,0.0,0.0,0.0,0.0,0.0,0.0,0.0,0.0,0.0,0.0,0.0,0.0,0.0,0.0,0.0,0.0,7.4368,7.7202,7.588,7.7118,7.7121,0.0,0.0,0.0,0.0,0.0,0.0,7.7968,7.8991,8.0211,8.1846,8.2297,8.3012,8.4018,8.364,8.4004,8.5096,8.4344,8.4561,8.5545,8.4632,8.4543,8.507,8.4223,8.3854,8.3629,8.0416,7.9402,7.9743,7.8576,7.8336,7.8681,7.9135,7.9342,7.9389,0.0,0.0,0.0,0.0,0.0,0.0,0.0,0.0,0.0,0.0,0.0,6.0612,6.356,6.3214,6.4243,6.7828,6.6753,6.6384,6.767,6.5782,6.4536,6.4397,6.4361,6.4005,6.3302,6.6089,6.8845,7.1502,7.3066,7.378,7.3649,7.2936,7.2154,7.1377,7.0087,6.9817,7.0009,6.4418,6.3083,6.4063,5.7247,0.0,0.0,0.0,0.0,0.0,0.0,0.0,0.0,0.0,0.0,0.0,0.0,0.0,0.0,0.0,0.0,0.0,0.0,0.0,0.0,0.0,0.0,0.0,0.0,0.0,0.0,0.0,0.0,0.0,0.0,0.0,0.0,0.0,0.0,0.0,0.0,0.0,0.0,7.613,7.7467,0.0,0.0,0.0,0.0,7.6611,7.676,7.808,8.1093,8.2045,8.2762,8.3453,8.5044,8.5956,8.6263,8.7024,8.7171,8.6694,8.6371,8.5883,8.5214,8.4969,8.4892,8.4892,8.4854,8.4831,8.4633,8.2005,8.1873,8.3079,8.1298,8.1578,8.2575,7.9748,7.9215,7.9578,0.0,0.0,0.0,0.0,0.0,0.0,0.0,0.0,5.9195,6.061,6.1069,6.1824,6.3277,6.3821,6.4816,6.6675,6.6716,6.6856,6.7378,6.6985,6.6769,6.6842,6.5599,6.5328,6.6133,6.8241,7.0519,7.2841,7.2795,7.3258,7.4186,7.2822,7.2348,7.2518,7.1881,7.1156,7.0271,6.6665,6.4518,6.3179,5.9417,5.6098,0.0,0.0,0.0,0.0,0.0,0.0,0.0,0.0,0.0,0.0,0.0,0.0,0.0,0.0,0.0,0.0,0.0,0.0,0.0,0.0,0.0,0.0,0.0,0.0,0.0,0.0,0.0,0.0,0.0,0.0,0.0,0.0,0.0,0.0,0.0,0.0,0.0,7.8142,7.9707,0.0,7.7692,7.6705,7.7317,8.0005,7.9362,8.0283,8.3545,8.3535,8.4097,8.5355,8.5621,8.5994,8.6573,8.6383,8.6424,8.6734,8.6118,8.5925,8.6133,8.5426,8.5393,8.5811,8.459,8.437,8.4802,8.3294,8.3047,8.3437,8.2257,8.2157,8.2559,8.1635,8.146,8.1596,0.0,0.0,0.0,0.0,0.0,0.0,0.0,0.0,5.9895,6.0859,6.174,6.261,6.3368,6.4093,6.4987,6.6044,6.631,6.6412,6.6364,6.6642,6.6916,6.7232,6.5996,6.6198,6.8156,6.8954,7.0496,7.2906,7.2687,7.3035,7.3978,7.2944,7.2778,7.3359,7.289,7.2106,7.1,6.9385,6.6954,6.3936,6.216,5.9461,5.6228,0.0,0.0,0.0,0.0,0.0,0.0,0.0,0.0,0.0,0.0,0.0,0.0,0.0,0.0,0.0,0.0,0.0,0.0,0.0,0.0,0.0,0.0,0.0,0.0,0.0,0.0,0.0,0.0,0.0,0.0,0.0,0.0,0.0,0.0,7.7987,7.9578,7.9846,8.1506,8.1968,8.0317,7.9413,7.9929,8.2359,8.1665,8.2248,8.4787,8.4556,8.4991,8.6361,8.6077,8.6354,8.7216,8.6718,8.6604,8.693,8.6336,8.6183,8.6355,8.5658,8.555,8.5921,8.4383,8.418,8.4939,8.4066,8.3905,8.4176,8.349,8.3233,8.324,8.3223,8.3211,8.3232,0.0,0.0,0.0,0.0,0.0,0.0,0.0,5.9892,6.0702,6.0952,6.1767,6.2724,6.3766,6.3984,6.4657,6.6291,6.5471,6.489,6.4865,6.4594,6.4709,6.537,6.5506,6.6617,6.8945,6.8167,6.902,7.1719,7.2894,7.3364,7.3172,7.3369,7.3653,7.3956,7.3035,7.2589,7.2499,7.2535,7.0368,6.6846,6.5443,6.3828,6.1838,0.0,0.0,0.0,0.0,0.0,0.0,0.0,0.0,0.0,0.0,0.0,0.0,0.0,0.0,0.0,0.0,0.0,0.0,0.0,0.0,0.0,0.0,0.0,0.0,0.0,0.0,0.0,0.0,0.0,0.0,0.0,0.0,0.0,7.7558,8.0076,8.1344,8.1094,8.2583,8.29,8.1004,8.1075,8.1869,8.346,8.3574,8.3953,8.4825,8.5051,8.5524,8.6345,8.6653,8.7255,8.8212,8.8212,8.7958,8.7363,8.7151,8.6639,8.5815,8.5609,8.5391,8.5143,8.4268,8.4382,8.5143,8.4268,8.4546,8.5471,8.5066,8.4924,8.4856,8.4358,8.4193,8.4213,0.0,0.0,0.0,0.0,0.0,0.0,0.0,6.0047,6.0702,6.0878,6.2301,6.3286,6.3245,6.395,6.5083,6.6756,6.5451,6.5191,6.6665,6.5445,6.4951,6.5534,6.7784,6.8981,6.884,7.0076,7.1028,7.1719,7.2618,7.3035,7.2988,7.2833,7.2966,7.3369,7.3479,7.2857,7.1865,7.3023,7.2188,6.9892,6.7888,6.5399,6.2852,0.0,0.0,0.0,0.0,0.0,0.0,0.0,0.0,0.0,0.0,0.0,0.0,0.0,0.0,0.0,0.0,0.0,0.0,0.0,0.0,0.0,0.0,0.0,0.0,0.0,0.0,0.0,0.0,0.0,0.0,0.0,7.2359,7.4385,7.6678,7.8954,8.0757,8.1897,8.3497,8.4347,8.3785,8.3794,8.3764,8.3612,8.3574,8.3688,8.3953,8.431,8.4877,8.5737,8.6105,8.6436,8.6718,8.6718,8.662,8.6478,8.6389,8.624,8.6009,8.5815,8.5628,8.5373,8.4331,8.4382,8.5143,8.4268,8.4546,8.5491,8.537,8.5329,8.5256,8.4634,8.3745,8.277,0.0,0.0,0.0,0.0,0.0,0.0,0.0,5.9826,6.043,6.0178,6.2215,6.3584,6.3314,6.3766,6.4634,6.5954,6.5191,6.4912,6.5577,6.5851,6.6,6.6089,6.8525,6.966,6.9209,7.0272,7.1137,7.1786,7.253,7.2883,7.2883,7.3096,7.3429,7.3776,7.3905,7.3413,7.2443,7.3207,7.2722,7.1395,7.0069,6.8544,6.6839,6.512,6.428,6.393,6.3297,6.3237,6.3484,6.3694,0.0,0.0,0.0,0.0,0.0,0.0,0.0,0.0,0.0,0.0,0.0,0.0,0.0,0.0,0.0,0.0,0.0,0.0,0.0,0.0,0.0,0.0,0.0,0.0,7.4313,7.6064,7.7365,7.9188,8.0997,8.2702,8.346,8.3991,8.4332,8.4067,8.365,8.3119,8.3104,8.3104,8.3104,8.3801,8.4594,8.5473,8.6251,8.6632,8.6632,8.6632,8.6478,8.6094,8.6094,8.6094,8.6077,8.5905,8.5704,8.5453,8.4352,8.4424,8.527,8.4414,8.4709,0.0,0.0,0.0,0.0,0.0,8.3811,8.2785,0.0,0.0,0.0,0.0,0.0,0.0,0.0,5.9572,6.0231,5.9457,6.1823,6.3501,6.341,6.3308,6.3577,6.4389,6.4766,6.4524,6.3628,6.6158,6.7535,6.7158,6.8535,6.9446,6.9738,6.9728,7.0395,7.1745,7.2538,7.2906,7.2921,7.3709,7.4247,7.4569,7.4144,7.3783,7.3399,7.2917,7.233,7.1811,7.1568,7.1757,7.1809,6.9091,6.8889,6.9884,6.8152,6.6778,6.5792,6.5758,0.0,0.0,0.0,0.0,0.0,0.0,0.0,0.0,0.0,0.0,0.0,0.0,0.0,0.0,0.0,0.0,0.0,0.0,0.0,0.0,0.0,0.0,0.0,0.0,7.6012,7.7756,7.9018,8.0228,8.1609,8.3293,8.274,8.2589,8.3498,8.2854,8.2361,8.2248,8.2248,8.2248,8.2248,8.3399,0.0,0.0,0.0,8.7231,8.7248,8.7248,8.6863,8.6094,8.6094,8.6094,8.6077,8.5905,8.5723,8.5493,8.4487,8.4604,8.5455,8.4671,8.5032,8.606,8.5723,8.5494,8.536,8.4667,8.3999,8.3439,0.0,0.0,0.0,0.0,0.0,0.0,0.0,6.0346,6.1269,6.0932,6.1959,6.2412,6.1626,6.2045,6.2708,6.3612,6.414,6.5168,6.6894,6.7731,6.8508,6.9351,6.9839,7.0033,6.9948,7.1062,7.1409,7.0842,7.2363,7.3011,7.2883,7.3071,7.3348,7.3701,7.332,7.2879,7.2409,7.1375,7.1313,7.1818,7.0272,7.0413,7.1548,7.0947,7.0757,7.0745,7.0389,7.0875,7.1722,7.1722,7.0902,6.9727,6.9058,6.6601,0.0,0.0,0.0,0.0,0.0,0.0,0.0,0.0,0.0,0.0,0.0,0.0,0.0,0.0,0.0,0.0,0.0,0.0,0.0,7.7858,7.9225,8.003,8.0272,8.0411,8.1012,8.2444,8.1869,8.1944,8.3422,8.2854,8.2096,8.1376,8.1338,8.1338,8.1338,8.2378,8.3443,8.4441,8.5512,8.6171,8.6363,8.6363,8.6286,8.6094,0.0,0.0,8.6077,8.5905,8.5797,8.5704,8.5159,8.5258,8.5704,8.5379,8.5589,8.6077,8.6009,8.5608,8.4916,8.4066,8.3253,8.2439,0.0,0.0,0.0,0.0,0.0,0.0,0.0,6.0283,6.1061,6.1225,6.224,6.286,6.2636,6.2071,6.2087,6.3011,6.3086,6.448,6.7805,6.8119,6.8645,6.9689,7.0256,7.0869,7.1536,7.2016,7.2404,7.2717,7.3348,7.3605,7.3559,7.3559,7.3654,7.3813,7.3376,7.2953,7.2508,7.164,7.1284,7.1211,7.032,7.0247,7.0744,7.1298,7.1906,7.2431,7.2431,7.2819,7.3298,7.2905,7.2264,7.1548,7.0976,6.9071,6.6698,0.0,0.0,0.0,0.0,0.0,0.0,0.0,0.0,0.0,0.0,0.0,0.0,0.0,0.0,7.068,7.305,0.0,7.7665,8.0046,8.0935,8.1259,8.106,8.0946,8.1263,8.2292,8.1262,8.1148,8.2816,8.1869,8.0959,8.0542,8.0504,8.0504,8.0504,8.1499,8.2525,8.3563,8.4651,8.5483,8.6094,8.6094,8.6094,8.6094,8.6094,8.6094,8.6077,8.5905,8.576,8.5648,8.5329,8.5537,8.6123,8.6259,8.6217,8.6094,8.6094,8.5632,8.4863,8.4401,8.366,8.2693,0.0,0.0,0.0,0.0,0.0,0.0,0.0,5.9869,6.0522,6.0827,6.1923,6.2658,6.2668,6.1545,6.1284,6.2444,6.2253,6.371,6.7657,6.7964,6.8482,6.9528,7.0527,7.1593,7.2792,7.2677,7.3266,7.4612,7.44,7.4289,7.4266,7.422,7.4197,7.4174,7.3715,7.3324,7.2953,7.2275,7.1596,7.0913,7.0499,7.0252,7.0185,7.0726,7.1992,7.3547,7.3547,7.3251,7.288,7.2413,7.1994,7.1686,7.1623,7.0978,7.0002,6.8954,6.9303,0.0,0.0,0.0,0.0,0.0,0.0,0.0,0.0,6.9835,6.9025,7.0001,7.1421,7.2994,7.4719,7.7065,7.9262,8.1041,8.1668,8.178,8.1346,8.1269,8.1492,8.2065,8.0807,8.0542,8.2248,8.0883,7.9973,8.0125,7.9973,7.9898,7.9898,8.1001,8.2028,8.297,8.4154,8.5179,8.6094,8.6094,8.6094,8.6094,8.6094,8.6094,8.6077,8.5905,8.5723,8.5551,8.5349,8.5605,8.6192,8.6622,8.6484,8.6043,8.5992,8.557,8.4993,8.4873,8.4289,8.34,0.0,0.0,0.0,0.0,0.0,0.0,0.0,0.0,6.0257,5.9841,5.9915,5.9344,5.7486,5.8317,5.9823,6.192,6.2571,6.4125,6.7093,6.7806,6.8614,6.9803,7.1156,7.1873,7.1866,7.3092,7.3764,7.3896,7.4413,7.4584,7.4476,7.4289,7.4197,7.4174,7.3715,7.3478,7.3338,7.1793,7.1552,7.1977,6.9595,6.9595,7.0807,6.9318,7.0178,7.2188,7.2188,7.1972,7.1729,7.2344,7.2091,7.1769,7.3179,7.3501,7.3389,7.2878,7.2811,7.2844,7.2283,7.1386,7.0942,7.2351,7.1466,7.1066,0.0,7.3829,7.291,7.3109,7.3886,7.4897,7.6084,7.7818,7.9438,8.0591,8.1465,8.1625,8.0583,8.043,8.0654,8.1192,8.0428,8.0542,8.2248,8.0883,8.0201,8.0921,8.0277,7.9898,7.9898,8.142,8.2509,8.299,8.4537,8.5608,8.6094,8.6094,8.6094,8.6094,8.6094,8.6094,8.6077,8.5905,8.5797,8.576,8.557,8.5426,8.5355,8.5604,8.5743,8.5834,8.5648,8.5475,8.5265,8.4744,8.4473,8.4092,0.0,0.0,0.0,0.0,0.0,0.0,0.0,0.0,0.0,5.9406,5.9821,5.9711,5.8814,5.9309,6.0504,6.2506,6.2801,6.435,6.7721,6.8479,6.933,7.0513,7.1992,7.276,7.2709,7.3535,7.4199,7.4657,7.4606,7.4563,7.4498,7.4312,7.4197,7.4174,7.3995,7.374,7.3415,7.2583,7.2069,7.1586,6.9958,6.931,6.9224,6.7611,6.7702,6.8784,6.9694,7.0089,0.0,7.075,7.0901,7.1234,7.3284,7.3107,7.2393,7.3611,7.3811,7.3488,7.3124,7.3324,7.3517,7.3081,7.3787,7.4751,7.5457,7.5554,7.5307,7.4513,7.5008,7.6035,7.7468,7.8704,8.002,8.1474,8.199,8.1873,8.0891,8.0376,8.0144,8.0374,7.9523,7.963,8.1489,8.058,8.0049,8.039,8.0087,7.9898,7.9898,8.0997,8.2048,8.2951,8.4136,8.5168,8.6094,8.5992,8.5992,8.6094,8.5975,8.5992,8.6094,8.6009,8.5852,8.5609,8.5761,8.5594,8.5257,8.5632,8.571,8.5609,8.519,8.5088,8.5197,8.4935,8.4455,8.3721,0.0,0.0,0.0,0.0,0.0,0.0,0.0,0.0,0.0,0.0,5.8466,5.8856,5.9099,5.8969,5.9835,6.2254,6.2754,6.4169,6.7051,6.8629,6.9658,7.0131,7.222,7.3313,7.3223,7.3951,7.4617,7.5152,7.4716,7.4519,7.4498,7.4312,7.4197,7.4197,7.4197,7.3995,7.3666,7.3167,7.2346,7.1231,7.0091,6.8852,6.7556,6.5924,6.5265,6.534,6.6551,6.7263,6.7719,6.7851,6.8431,6.9448,7.178,7.1788,7.1457,7.4117,7.5018,7.4932,7.3865,7.4683,7.5388,7.3644,7.5385,7.7307,7.6391,7.6835,7.703,7.5535,7.5628,7.6381,7.7614,7.8457,7.9494,8.0931,8.1347,8.1271,8.0643,7.9849,7.9343,7.9343,7.8406,7.8421,8.0076,7.9955,8.0021,8.0542,8.0163,7.9898,7.9898,8.0656,8.1554,8.2627,8.3541,8.4519,8.5556,8.5513,8.5571,8.5702,8.5552,8.5571,8.5702,8.5647,8.5705,8.5853,8.5614,8.5323,8.4999,8.5338,8.5326,8.5126,8.4665,8.4618,8.478,8.4711,8.4347,8.3688,0.0,0.0,0.0,0.0,0.0,0.0,0.0,0.0,0.0,0.0,0.0,0.0,0.0,5.5374,5.6464,6.0251,6.2316,6.3565,6.4021,6.7657,6.9302,6.8139,7.1449,7.3131,7.282,7.4404,7.5095,7.4819,7.459,7.4519,7.4498,7.4312,7.4197,7.4197,7.4197,7.4174,7.4127,7.305,7.2162,7.1269,6.9612,6.7986,6.6301,6.426,6.304,6.2457,6.2788,6.3203,6.356,6.3422,6.4416,6.6032,6.8339,7.0082,7.1916,7.5109,7.737,7.827,7.5563,7.5695,7.6225,7.4809,7.5955,7.7413,7.7337,7.7943,7.8078,7.6411,7.5939,7.5824,7.59,7.6337,7.7,7.7864,7.869,7.9178,7.9178,7.8465,7.7939,7.7939,7.7188,7.7,7.7901,7.8931,8.0295,8.2172,8.0807,7.9898,7.9898,8.0656,8.1288,8.1729,8.2889,8.3704,8.4155,8.4524,8.4757,8.4719,8.4757,8.4757,8.4719,8.4462,8.5235,8.6655,8.4843,8.4217,8.4405,8.4165,8.4179,8.433,8.409,8.3986,8.3922,8.3703,8.409,8.4499,0.0,0.0,0.0,0.0,0.0,0.0,0.0,0.0,0.0,0.0,0.0,0.0,0.0,0.0,0.0,0.0,6.1333,6.2659,6.4581,6.6469,6.7666,6.7941,7.0118,7.1046,7.0357,7.2162,7.3053,7.2931,7.343,7.3689,7.3727,7.3865,7.3637,7.3113,7.2696,7.2506,7.2381,7.114,7.0755,7.0697,6.784,6.6452,6.573,6.2963,6.13,6.0381,0.0,5.9878,6.0966,6.1474,6.2018,6.3019,6.6254,6.732,6.8081,7.2024,7.4146,7.5092,7.4524,7.4784,7.5148,7.4821,7.6083,7.7396,7.7396,7.7623,7.743,7.6182,7.5459,7.5167,7.5472,7.5764,7.6357,7.7676,7.859,7.9116,7.9116,7.9317,7.9091,7.8027,7.7954,7.8166,7.8666,7.8538,7.8911,8.0136,7.9825,7.9546,7.9383,8.0301,8.0878,8.0981,8.2452,8.3354,8.3628,8.4187,8.451,8.4711,8.4711,8.4711,8.4711,8.4414,8.4929,8.5976,8.5134,8.4877,8.4891,8.4635,8.4352,8.4038,8.362,8.3574,8.3675,8.3404,8.363,8.3847,0.0,0.0,0.0,0.0,0.0,0.0,0.0,0.0,0.0,0.0,0.0,0.0,0.0,0.0,0.0,0.0,0.0,6.1028,6.2839,6.4141,6.5162,6.5835,6.7164,6.783,6.7696,6.8855,6.976,7.047,7.0683,7.1341,7.2309,7.2195,7.1832,7.1218,7.0819,7.0475,7.0079,6.8909,6.848,6.842,6.5641,6.4184,6.3488,6.0777,5.9179,0.0,5.6811,5.6955,5.7883,5.8683,5.9662,6.1013,6.3939,6.592,6.7531,6.9566,7.1935,7.3814,7.3507,7.4372,7.5318,7.4985,7.6373,7.7737,7.7472,7.756,7.7246,7.5658,7.4605,7.3944,7.394,7.3906,7.4632,7.6805,7.809,7.9051,7.9716,7.9912,7.9549,7.8329,7.7875,7.7845,7.8352,7.7979,7.8278,7.9577,7.9821,7.9731,7.9263,7.9896,8.0217,8.0165,8.1331,8.2184,8.2676,8.2874,8.3249,8.3766,8.4004,8.4406,8.4867,8.4191,8.4541,8.555,8.47,8.4423,8.4478,8.4236,8.3909,8.3592,8.3326,8.3297,8.3441,8.3268,8.3297,8.3378,0.0,0.0,0.0,0.0,0.0,0.0,0.0,0.0,0.0,0.0,0.0,0.0,0.0,0.0,0.0,0.0,0.0,0.0,5.8951,6.074,6.186,6.2001,6.275,6.3723,6.4849,6.4679,6.5467,6.7309,6.6496,6.7513,7.0164,6.9282,6.8726,6.8485,6.8458,6.8017,6.7257,6.6286,6.5472,6.4663,6.2949,6.1366,5.9826,5.7936,5.6798,5.6005,5.5,5.4598,5.4658,5.5464,5.7658,6.039,6.1733,6.5913,6.9958,6.8081,7.0918,7.4286,7.2612,7.4374,7.6428,7.517,7.6634,7.8187,7.743,7.7619,7.7236,7.4762,7.3273,7.2158,7.1251,7.0983,7.1961,7.5182,7.7115,7.8898,8.0736,8.0172,7.9372,7.8708,7.708,7.6324,7.7068,7.7457,7.8479,8.0495,8.0632,8.0307,7.9491,7.9477,7.9439,7.9355,7.969,8.032,8.128,8.0935,8.1137,8.1917,8.2734,8.3797,8.4985,8.3656,8.3929,8.5386,8.3636,8.3047,8.3244,8.3024,8.2941,8.2934,8.3121,8.318,8.318,8.318,8.318,8.3157,0.0,0.0,0.0,0.0,0.0,0.0,0.0,0.0,0.0,0.0,0.0,0.0,0.0,0.0,0.0,0.0,0.0,0.0,5.7254,5.8193,5.8975,5.9632,5.9864,6.0136,6.0451,6.1163,6.1781,6.2278,6.3113,6.3941,6.4641,6.5055,6.4903,6.4263,6.3811,6.3466,6.3191,6.2173,6.1919,6.2033,5.9878,5.8959,5.8704,5.7039,5.6122,5.5796,5.6113,5.5839,5.5756,5.8668,6.1952,6.4775,6.4647,6.6029,6.7871,6.8828,7.0065,7.124,7.1614,7.2282,7.3108,7.3943,7.468,7.5304,7.568,7.4989,7.3642,7.1514,7.0411,6.9486,6.8247,6.9755,7.185,7.3838,7.6305,7.8316,7.9441,8.0402,8.0264,7.8341,7.8716,7.8765,7.7792,7.8854,7.9629,7.9779,7.9802,7.9427,7.8655,7.8954,7.9004,7.8592,7.925,7.9716,7.9985,8.1111,8.1434,8.1025,8.188,8.2487,8.2771,8.1781,8.2247,8.3788,8.3158,8.2927,8.3061,8.3479,8.3368,8.2934,8.2964,8.3091,8.318,8.318,8.318,8.3202,0.0,0.0,0.0,0.0,0.0,0.0,0.0,0.0,0.0,0.0,0.0,0.0,0.0,0.0,0.0,0.0,0.0,0.0,0.0,5.531,5.5783,5.6848,5.6562,5.6658,5.7317,5.7709,5.8282,5.8945,5.9587,6.0466,6.1548,6.1632,6.1254,6.0522,6.0205,5.988,5.9531,5.8737,5.8892,0.0,0.0,5.6979,5.7064,5.5756,5.5354,5.5606,5.6398,5.8374,6.0864,6.2572,6.4477,6.6171,6.647,6.7167,6.8121,6.8989,6.9676,7.0214,7.0765,7.1268,7.1779,7.2632,7.2918,7.3039,7.3114,7.2139,7.0646,6.8665,6.7924,6.7249,6.6087,6.8195,7.0792,7.2733,7.572,7.8277,7.9602,8.0781,8.0906,7.9325,7.9528,7.9417,7.8515,7.9229,7.9604,7.9203,7.9602,7.9516,7.8682,7.8838,7.8734,7.8304,7.8722,7.8945,7.8945,8.0617,8.0988,8.0171,8.1397,8.1806,8.1434,8.1323,8.1545,8.2103,0.0,8.2348,8.2422,8.3146,8.322,8.2934,8.2994,8.3121,8.318,8.318,8.318,8.321,0.0,0.0,0.0,0.0,0.0,0.0,0.0,0.0,0.0,0.0,0.0,0.0,0.0,0.0,0.0,0.0,0.0,0.0,0.0,0.0,5.3009,5.4236,5.3538,5.375,5.5026,5.4735,5.5178,5.6537,5.6117,5.708,5.9254,5.8325,5.7659,5.714,5.7097,5.6711,5.6085,5.578,5.6074,5.6703,5.5726,5.5391,5.5359,0.0,5.472,5.5544,5.6574,6.1169,6.6606,6.6249,6.6283,6.6733,6.8025,6.8993,6.9531,6.9013,6.9476,7.0126,7.0116,7.0574,7.1093,7.1247,7.1243,7.0998,7.0331,6.929,6.7883,6.6038,6.5631,6.5319,6.429,6.6688,6.953,7.1727,7.5134,7.8138,7.9896,8.0604,8.0805,8.0443,7.9599,7.9077,7.9165,7.9165,7.9041,7.8787,7.9578,7.9792,7.9054,7.8925,7.8688,7.8304,7.8388,7.8388,7.8276,7.9874,8.0245,7.9354,8.0914,8.1323,8.0728,8.136,8.136,8.0914,8.1474,8.1682,8.1756,8.254,8.2874,8.2904,8.3061,8.3151,8.3151,8.318,8.318,8.318,0.0,0.0,0.0,0.0,0.0,0.0,0.0,0.0,0.0,0.0,0.0,0.0,0.0,0.0,0.0,0.0,0.0,0.0,0.0,0.0,0.0,5.3166,5.3037,5.3072,5.334,5.3275,5.3344,5.3612,5.3213,5.3484,5.4397,5.3569,5.3344,5.3653,5.3314,5.3091,5.2987,5.2926,5.3345,5.4071,5.387,5.4149,5.4667,5.4532,0.0,0.0,5.8359,6.1735,6.5224,6.7079,6.9307,7.1301,7.1084,7.0729,7.0275,7.0011,6.9595,6.9273,6.9531,6.8668,6.8147,6.9834,6.9278,6.8376,6.863,6.6996,6.4944,6.31,6.3158,6.3235,6.2304,6.6088,6.9706,7.0808,7.369,7.6174,7.716,7.7696,7.8179,7.8731,7.8722,7.8866,7.9378,7.943,7.9335,7.9066,7.8976,7.8831,7.8441,7.9237,7.9284,7.8341,7.8945,7.8945,7.8313,7.9874,7.9948,7.8499,7.9465,8.0208,8.0691,8.0171,8.0617,8.1768,8.1734,0.0,8.1756,8.2264,8.2565,8.2727,8.2758,8.288,8.2964,8.3151,8.318,8.318,0.0,0.0,0.0,0.0,0.0,0.0,0.0,0.0,0.0,0.0,5.2498,5.266,0.0,0.0,0.0,0.0,0.0,0.0,0.0,0.0,0.0,0.0,5.2799,5.3041,5.3041,5.3411,5.3444,5.3041,0.0,5.3246,5.3281,5.2904,5.2887,5.3107,5.2884,5.2869,5.2926,5.2926,5.3314,5.3977,5.3977,5.4362,5.4987,0.0,0.0,0.0,6.0144,6.282,6.5439,6.7403,6.9477,7.1349,7.2014,7.1397,7.0475,7.088,6.9907,6.8853,6.947,6.8582,6.7811,6.9253,6.8358,6.7122,6.7185,6.5607,6.3567,6.16,6.2535,6.3174,6.1324,6.5312,6.8989,6.9396,7.1253,7.3429,7.5662,7.5657,7.5961,7.7402,7.787,7.8252,7.8634,7.8927,7.9041,7.8915,7.9002,7.8942,7.8532,7.8868,7.8823,7.8341,7.9056,7.9316,7.8908,7.9688,7.9874,7.9539,7.9948,8.032,8.0691,8.0765,8.0988,8.136,8.2038,0.0,8.1948,8.2862,8.3158,8.2941,8.2813,8.2904,8.3061,8.3024,8.3121,8.318,0.0,0.0,0.0,0.0,0.0,0.0,0.0,5.0094,5.0807,5.2957,5.3158,5.2849,5.2093,5.1929,0.0,0.0,0.0,0.0,0.0,0.0,0.0,0.0,0.0,0.0,5.3247,0.0,0.0,5.3247,5.3512,0.0,0.0,0.0,0.0,0.0,5.3063,5.3115,5.3298,5.3268,5.3656,0.0,0.0,5.4881,0.0,0.0,0.0,0.0,0.0,6.352,6.5465,6.7067,6.8502,6.9868,7.1228,7.1259,7.0919,7.1416,7.0412,6.9209,6.9602,6.8862,6.812,6.9074,6.7745,6.6179,6.6135,6.44,6.2405,6.0969,6.2328,6.3211,6.1251,6.4906,6.8208,6.8393,6.9707,7.1675,7.446,7.4374,7.4573,7.6197,7.6791,7.7279,7.7766,7.8052,7.8308,7.8565,7.9009,7.9131,7.8901,7.8525,7.8276,7.8276,7.9242,7.9651,7.9502,7.9837,8.0245,8.0691,8.0691,8.0802,8.0988,8.1694,8.1694,8.1323,8.2624,0.0,0.0,8.3595,8.3706,8.3061,8.2904,8.2904,8.3031,8.2904,8.2964,8.3151,0.0,0.0,0.0,0.0,0.0,0.0,0.0,5.1364,5.2274,5.3702,5.3743,5.316,5.1871,5.3432,0.0,0.0,0.0,0.0,0.0,0.0,0.0,0.0,0.0,0.0,0.0,0.0,0.0,5.345,5.2808,0.0,0.0,0.0,0.0,0.0,0.0,5.2046,5.2321,5.22,0.0,0.0,0.0,0.0,0.0,0.0,0.0,0.0,0.0,6.2821,6.3928,6.5476,6.6946,6.8107,6.8282,7.0274,7.2299,7.1317,7.1155,7.0987,6.9865,6.8587,6.7927,6.9108,6.7119,6.5071,6.5775,6.297,6.0468,6.1349,6.1692,6.2022,6.2511,6.54,6.7988,6.8733,7.0991,7.2758,7.3054,7.4004,7.4735,7.5135,7.5308,7.5969,7.7415,7.6866,7.6961,7.8247,7.8378,7.8713,7.941,7.8713,7.8276,7.8276,7.9799,8.0245,7.9502,8.0988,8.1397,8.0691,8.0691,8.11,8.188,8.1954,8.2326,8.2994,8.3886,8.3812,0.0,8.3847,8.3584,8.2727,8.2727,8.2633,8.2502,8.2665,8.2819,8.2934,0.0,0.0,0.0,0.0,0.0,0.0,0.0,5.1698,5.2497,5.535,5.463,5.3943,5.4068,5.4482,0.0,0.0,0.0,0.0,0.0,0.0,0.0,0.0,0.0,0.0,0.0,0.0,5.3518,5.3518,5.3619,0.0,0.0,0.0,0.0,0.0,0.0,5.3473,5.3598,5.3752,0.0,0.0,0.0,0.0,0.0,0.0,0.0,0.0,0.0,0.0,6.2879,6.3476,6.4379,6.5196,6.519,6.6677,6.8674,7.0079,7.0303,7.0252,7.0458,6.9609,6.8706,6.8991,6.7068,6.516,6.5308,6.3129,6.1117,6.1397,6.1948,6.2291,6.2108,6.4383,6.6696,6.7981,6.8676,6.9952,7.2548,7.1505,7.1305,7.3595,7.332,7.3665,7.5442,7.5766,7.6111,7.6753,7.679,7.7162,7.7979,7.8202,7.8276,7.8276,7.9391,8.0059,8.0208,8.0877,8.1545,8.2177,8.1694,8.1917,8.2697,8.2697,8.2883,8.3254,8.4342,0.0,0.0,8.4503,8.4324,8.3638,8.2942,8.2727,8.269,8.2565,8.269,8.2904,0.0,0.0,0.0,0.0,0.0,0.0,5.1884,5.2018,5.3017,5.6098,5.5337,5.4752,5.5329,5.4637,5.2821,4.9528,0.0,0.0,0.0,0.0,0.0,0.0,0.0,0.0,0.0,0.0,5.3619,5.3822,5.4329,5.4702,0.0,0.0,5.4941,5.494,0.0,0.0,0.0,0.0,0.0,0.0,0.0,0.0,0.0,0.0,0.0,0.0,0.0,0.0,0.0,0.0,0.0,6.2697,6.2449,6.3257,6.4874,6.7879,6.9092,6.9647,7.0233,6.9926,6.9314,6.9035,6.7344,6.5658,6.5351,6.352,6.1813,6.1469,6.1972,6.2365,6.2034,6.3796,6.5742,6.71,6.765,6.8907,7.1674,7.0763,7.0689,7.3046,7.265,7.2872,7.4524,7.5245,7.5439,7.5118,7.5527,7.5936,7.6344,7.7125,7.7793,7.8276,7.8833,7.9502,8.032,8.084,8.1657,8.2846,8.2511,8.2623,8.3121,8.3121,8.3091,8.3143,8.4489,0.0,0.0,8.5181,8.5027,8.4181,8.338,8.2979,8.2813,8.2502,8.2628,8.2904,0.0,0.0,0.0,0.0,0.0,0.0,0.0,5.2421,5.4129,5.553,5.5684,5.5438,5.4775,5.3529,5.2175,5.079,0.0,0.0,0.0,0.0,0.0,0.0,0.0,0.0,0.0,0.0,5.3856,5.4566,5.46,5.4972,5.5716,5.5716,5.531,5.46,0.0,0.0,0.0,0.0,0.0,0.0,0.0,0.0,6.0254,0.0,0.0,0.0,0.0,0.0,0.0,0.0,0.0,0.0,0.0,6.0534,6.1745,6.4737,6.7704,6.9769,6.8786,6.9059,6.9561,6.9414,6.7975,6.6464,6.6006,6.3993,6.2047,6.1503,6.1495,6.1851,6.2658,6.4163,6.5595,6.6366,6.9192,7.0991,7.022,7.2826,7.461,7.3983,7.3901,7.429,7.5281,7.5523,7.4994,7.3521,7.4896,7.5453,7.4673,7.5378,7.6567,7.8239,7.8313,7.8685,7.9502,8.1137,8.1991,8.1991,8.2809,8.3084,8.2867,8.2867,8.2813,8.2807,8.4395,0.0,0.0,8.5842,8.5551,8.3915,8.3878,8.3398,8.2665,8.2471,8.2628,8.2904,0.0,0.0,0.0,0.0,0.0,0.0,0.0,5.1452,5.2612,5.4745,5.4637,5.4453,5.4652,5.3098,5.1867,5.1436,0.0,0.0,0.0,0.0,0.0,0.0,0.0,0.0,0.0,0.0,5.4126,5.3856,5.5344,5.5987,5.5681,5.6224,5.6467,5.6508,5.5619,5.5333,0.0,0.0,0.0,0.0,0.0,5.8633,6.0151,0.0,0.0,0.0,0.0,0.0,0.0,0.0,0.0,0.0,0.0,0.0,0.0,5.9799,6.3454,6.6793,6.5967,6.7125,6.8071,6.6014,6.5761,6.5652,6.4397,6.333,6.2556,6.2375,6.1973,6.2034,6.3429,6.4567,6.5925,6.7834,6.9449,7.077,7.1615,7.1688,7.1974,7.2847,7.3156,7.3462,7.3858,7.3993,7.3903,7.341,7.3855,7.4264,7.4561,7.4222,7.5021,7.7209,7.7283,7.7894,7.915,7.9821,8.0436,8.0992,8.1808,8.2149,8.2089,8.256,8.2727,8.2807,8.4267,0.0,0.0,8.5936,8.6148,8.5625,8.4509,8.3824,8.3471,8.2818,8.2934,8.3408,0.0,0.0,0.0,0.0,0.0,0.0,0.0,5.0516,5.1622,5.3453,5.3239,5.3314,5.4191,5.2298,5.1251,5.2021,0.0,0.0,0.0,0.0,0.0,0.0,0.0,0.0,0.0,5.3957,5.4363,5.4769,5.6122,5.7002,5.7374,5.7616,5.7761,5.7668,5.678,5.6182,0.0,0.0,0.0,0.0,5.7321,5.8219,5.9323,0.0,0.0,0.0,0.0,0.0,0.0,0.0,0.0,0.0,0.0,0.0,0.0,0.0,6.0255,6.3549,6.3661,6.5533,6.7017,6.5082,6.5387,6.5908,6.4883,6.4437,6.3943,6.2964,6.2658,6.2768,6.3466,6.4787,6.6035,6.6953,6.9045,7.0477,7.0257,7.0954,7.1835,7.2826,7.3202,7.3287,7.3155,7.3252,7.3357,7.3372,7.3398,7.3621,7.4115,7.3538,7.3986,7.5782,7.5819,7.6568,7.8079,7.8499,7.915,7.9927,8.1074,8.1562,8.1538,8.2264,8.2571,8.2618,8.4073,0.0,0.0,8.6185,8.6611,8.6402,8.5329,8.4743,8.4378,8.3528,8.3656,8.4156,0.0,0.0,0.0,0.0,0.0,0.0,0.0,0.0,0.0,0.0,5.1846,5.2175,5.3375,5.1251,0.0,0.0,0.0,0.0,0.0,0.0,0.0,0.0,0.0,0.0,5.3484,5.3551,5.46,5.663,5.6867,5.7983,5.9945,5.9621,5.9052,5.8311,5.7911,5.705,0.0,0.0,0.0,0.0,5.6905,5.7322,0.0,0.0,0.0,0.0,0.0,0.0,0.0,0.0,0.0,0.0,0.0,0.0,0.0,0.0,0.0,0.0,0.0,6.4046,6.6025,6.5832,6.6234,6.6692,6.6692,6.6482,0.0,6.3441,6.3576,6.3906,6.3282,6.4971,6.6035,6.4677,6.8311,7.022,6.71,7.0624,7.356,7.3699,7.3779,7.3655,7.313,7.3182,7.3278,7.3372,7.3398,7.3372,7.341,7.3278,7.3451,7.4062,7.4062,7.4838,7.6462,7.7274,7.805,7.8855,8.0517,8.1237,8.1155,8.1934,8.2311,0.0,0.0,0.0,0.0,8.6575,8.6926,8.6389,8.6315,8.5968,8.5355,8.4497,8.4626,8.506,0.0,0.0,0.0,0.0,0.0,0.0,0.0,0.0,0.0,0.0,0.0,5.1621,5.1436,5.082,0.0,0.0,0.0,0.0,0.0,0.0,0.0,0.0,0.0,0.0,5.3484,5.4059,5.46,5.5108,5.7374,5.8457,5.8457,6.0435,6.0706,5.9487,5.9175,5.7878,0.0,0.0,0.0,0.0,5.7426,5.8081,0.0,0.0,0.0,0.0,6.0565,6.0151,0.0,0.0,0.0,0.0,0.0,0.0,0.0,0.0,5.8325,5.9241,5.9442,0.0,6.2957,6.2725,6.3711,6.4741,0.0,6.471,6.4677,6.4714,6.4383,6.4604,6.6256,6.6512,6.6769,6.7614,6.9779,7.0624,6.8641,7.0367,7.2341,7.3668,7.3471,7.3425,7.4033,7.3649,7.3383,7.3372,7.3398,7.3383,7.3252,7.3118,7.3028,7.3046,7.2961,7.3676,7.5264,7.6258,7.6796,7.7017,7.8638,7.9713,8.0314,8.0997,8.1998,8.3177,0.0,0.0,8.5634,8.6795,8.7228,8.7037,8.6671,8.6333,8.6005,8.5442,8.5509,8.5857,0.0,0.0,0.0,0.0,0.0,0.0,0.0,0.0,0.0,0.0,0.0,0.0,0.0,0.0,0.0,0.0,0.0,0.0,0.0,0.0,0.0,0.0,0.0,5.3041,5.3518,5.4228,5.5074,5.6089,5.8051,5.9505,6.0486,6.1361,6.1427,6.072,5.9457,5.8185,0.0,0.0,0.0,5.684,5.7219,0.0,0.0,0.0,0.0,0.0,6.0358,6.0013,0.0,6.0737,6.0425,5.9563,0.0,0.0,0.0,0.0,5.8614,5.9386,5.92,6.1076,6.3103,6.3266,6.453,6.5852,6.6219,6.5742,6.5228,6.5301,6.464,6.4383,6.5264,6.5705,6.6219,6.71,6.8605,6.9743,6.9963,7.1394,7.2745,7.3713,7.3562,7.3305,7.312,7.2865,7.2711,7.2632,7.3097,7.3294,7.3118,7.3037,7.2927,7.2723,7.2553,7.312,7.4331,7.5264,7.5912,7.628,7.7904,7.9117,7.9926,8.0677,8.1893,0.0,0.0,0.0,8.5343,8.662,8.7016,8.6786,8.6878,8.6652,8.6181,8.599,8.5946,8.5989,0.0,0.0,0.0,0.0,0.0,0.0,0.0,0.0,0.0,0.0,0.0,0.0,0.0,0.0,0.0,0.0,0.0,0.0,0.0,0.0,0.0,0.0,0.0,5.3551,5.3687,5.416,5.5513,5.7712,5.8656,6.0583,6.3328,6.26,6.2149,6.1872,5.9392,5.8281,0.0,0.0,5.7628,5.6805,5.6805,0.0,0.0,0.0,0.0,0.0,0.0,0.0,0.0,6.1461,6.1427,6.0737,6.1944,0.0,0.0,0.0,0.0,0.0,6.0272,6.2356,6.4601,6.5024,6.6329,6.7687,6.8385,6.7393,6.6182,6.5778,6.4934,6.4127,6.3649,6.4824,6.5826,6.5799,6.6963,6.8651,7.0962,7.2275,7.3046,7.3303,7.3337,7.287,7.1618,7.178,7.1849,7.1542,7.2669,7.3178,7.2797,7.2881,7.2872,7.2667,7.2553,7.2826,7.3487,7.4331,7.5065,7.5763,7.7414,7.8626,7.9433,8.0388,8.1709,8.3287,0.0,0.0,8.4719,8.6334,8.6623,8.613,8.6973,8.6863,8.6307,8.6467,8.6336,8.6035,0.0,0.0,0.0,0.0,0.0,0.0,0.0,0.0,0.0,0.0,0.0,0.0,0.0,0.0,0.0,0.0,0.0,0.0,0.0,0.0,0.0,5.3905,5.369,5.3788,5.4397,5.3923,5.4769,5.6968,5.8811,6.0666,6.2618,6.472,6.4661,6.262,6.001,5.8529,5.7942,0.0,5.7528,5.6805,5.6805,0.0,0.0,0.0,0.0,0.0,0.0,0.0,0.0,6.0427,6.1254,6.2048,6.1634,0.0,0.0,0.0,0.0,0.0,6.2233,6.3933,6.5174,6.4475,6.5485,6.6733,6.6843,6.6145,6.5852,6.7063,6.6145,6.5485,6.6696,6.7724,6.8293,6.8119,6.8302,6.9136,7.1036,7.0367,7.0146,7.1505,7.1176,7.1029,7.1471,7.1672,7.1458,7.0756,7.215,7.265,7.1784,7.2383,7.2667,7.2524,7.2496,7.2569,7.2679,7.3487,7.3927,7.4074,7.5726,7.69,7.7745,7.9286,8.0865,8.248,0.0,8.4609,8.4719,8.6334,8.6518,8.5962,8.6906,8.7231,8.7154,8.7447,8.7349,8.6943,0.0,0.0,0.0,0.0,0.0,0.0,0.0,0.0,0.0,0.0,0.0,0.0,0.0,0.0,0.0,0.0,0.0,0.0,0.0,0.0,0.0,5.3818,5.3722,5.3687,5.3797,5.4584,5.6037,5.8257,5.9957,6.1642,6.3201,6.3208,6.2552,6.1163,5.9288,5.8461,5.8495,5.8495,5.8081,5.7426,0.0,0.0,0.0,0.0,0.0,0.0,0.0,0.0,0.0,0.0,6.2314,6.2842,6.2455,0.0,0.0,0.0,0.0,0.0,6.2276,6.4239,6.5825,6.4956,6.5962,6.7247,6.7687,6.6182,6.5118,6.6733,6.5778,6.4861,6.5595,6.6402,6.6953,6.6916,6.8385,6.966,7.0046,7.0533,7.0954,7.1284,7.1047,7.0634,7.0147,7.021,7.0116,6.9667,7.087,7.1571,7.1397,7.1784,7.2197,7.2496,7.2496,7.2496,7.2496,7.2863,7.3266,7.3707,7.4882,7.613,7.7347,7.8589,8.0277,8.2296,0.0,8.4352,8.4132,8.6187,8.6004,8.4682,8.6473,8.6617,8.5845,8.6012,8.6531,8.6988,0.0,0.0,0.0,0.0,0.0,0.0,0.0,0.0,0.0,0.0,0.0,0.0,0.0,0.0,0.0,0.0,0.0,0.0,0.0,0.0,5.202,5.3215,5.3728,5.4033,5.4096,5.5488,5.7252,5.9494,6.0558,6.1843,6.3247,6.1375,6.0262,5.9905,5.8668,5.8358,5.8771,5.8944,5.8599,5.7943,0.0,0.0,0.0,0.0,0.0,0.0,0.0,0.0,0.0,0.0,0.0,0.0,0.0,0.0,0.0,6.1579,6.1612,6.2185,6.2367,6.4144,6.5852,6.5411,6.6512,6.7834,6.8495,6.6549,6.5044,6.6476,6.5485,6.442,6.464,6.5275,6.5925,6.629,6.8389,6.9613,6.8673,7.0184,7.1166,7.055,7.0477,6.9963,6.8752,6.8897,6.8924,6.8641,6.9741,7.0578,7.0991,7.1287,7.1765,7.2496,7.2496,7.2496,7.2496,7.2496,7.2826,7.3413,7.4221,7.5359,7.676,7.8038,7.969,8.1746,8.3544,8.3875,8.3324,8.571,8.5416,8.3618,8.5857,8.6001,8.4933,8.4682,8.5671,8.6953,0.0,0.0,0.0,0.0,0.0,0.0,0.0,0.0,0.0,0.0,0.0,0.0,0.0,0.0,0.0,0.0,0.0,0.0,0.0,0.0,5.2086,5.1454,5.3616,5.5476,5.6981,5.6483,5.7252,5.9494,5.9437,6.0069,6.1356,6.0894,6.0516,6.0116,5.9184,5.8428,5.8012,5.8737,5.8599,5.7909,5.7978,0.0,0.0,0.0,0.0,0.0,0.0,0.0,0.0,0.0,0.0,0.0,0.0,0.0,6.2872,6.2031,6.2281,6.2913,6.3709,6.4101,6.442,6.5154,6.6512,6.7724,6.776,6.7026,6.6549,6.743,6.6329,6.5448,6.6182,6.6819,6.7588,6.8656,6.887,6.8439,6.7063,6.7642,6.8141,6.7971,6.7944,6.7907,6.7797,6.8458,6.8605,6.7834,6.9256,7.0138,7.0183,7.0881,7.1688,7.2459,7.2496,7.2496,7.2496,7.2496,7.2532,7.2606,7.3413,7.4258,7.5175,7.7524,7.9103,8.0094,8.248,8.303,8.248,8.4903,8.4903,8.3581,8.5233,8.5922,8.5872,8.4933,8.5738,8.705,0.0,0.0,0.0,0.0,0.0,0.0,0.0,0.0,0.0,0.0,0.0,0.0,0.0,0.0,0.0,0.0,0.0,0.0,0.0,5.1984,5.1932,5.223,5.3502,5.437,5.4878,5.6514,5.8191,5.9838,5.9458,5.9711,6.0482,5.8719,5.8495,5.9426,5.7635,5.743,5.8428,5.8358,5.8358,5.8462,5.8531,5.8495,0.0,0.0,0.0,0.0,0.0,0.0,0.0,0.0,6.3321,6.3684,6.3139,6.3338,6.3497,6.272,6.2263,6.2218,6.3062,6.3686,6.4214,6.4622,6.5518,6.6287,6.6245,6.5191,6.4835,6.7039,6.592,6.4787,6.5595,6.5584,6.5809,6.6824,6.6909,6.6688,6.6148,6.6257,6.6338,6.6245,6.6219,6.6402,6.6916,6.7247,6.7504,6.7687,6.8238,6.8825,6.9339,6.9633,7.0403,7.1725,7.1762,7.1982,7.2496,7.2496,7.2496,7.2496,7.2826,7.3634,7.4955,7.6387,7.8038,7.991,8.1819,8.248,8.2333,8.4242,8.4095,8.2774,8.3875,8.4642,8.5077,8.4202,8.4606,8.5518,0.0,0.0,0.0,0.0,0.0,0.0,0.0,0.0,0.0,0.0,0.0,0.0,0.0,0.0,0.0,0.0,0.0,0.0,5.3265,5.2674,5.2404,5.2558,5.3383,5.3614,5.3201,5.5709,5.7646,5.8897,5.854,5.8379,5.8284,5.6335,5.6473,5.8288,5.6395,5.6501,5.8153,5.7704,5.7807,5.8187,5.8255,5.815,0.0,0.0,0.0,0.0,0.0,0.0,0.0,0.0,6.3209,6.3613,6.3319,6.3429,6.3576,6.2989,6.2401,6.2108,6.2658,6.3246,6.3736,6.3923,6.4365,6.4696,6.4721,6.3984,6.3906,6.627,6.5333,6.4273,6.4824,6.4313,6.4144,6.5078,6.5275,6.53,6.53,6.5447,6.5506,6.5379,6.5327,6.5632,6.6402,6.6512,6.6843,6.7614,6.7687,6.8054,6.8862,6.8898,6.9522,7.0881,7.0917,7.1321,7.2129,7.2129,7.2275,7.2496,7.2496,7.323,7.4551,7.5616,7.7157,7.9103,8.1012,8.1819,8.1929,8.3544,8.3581,8.2627,8.3177,8.3765,8.4168,8.3618,8.3911,8.4572,0.0,0.0,0.0,0.0,0.0,0.0,0.0,0.0,0.0,0.0,0.0,0.0,0.0,0.0,0.0,0.0,0.0,0.0,5.3976,5.4184,5.3548,5.1869,5.3253,5.3662,5.2797,5.3987,5.5233,5.6464,5.6282,5.5629,5.4532,5.3957,5.4833,5.6771,5.5816,5.5917,5.6805,5.6805,5.6805,5.6805,5.6805,5.7219,5.7702,0.0,0.0,0.0,0.0,0.0,0.0,0.0,6.278,6.2952,6.3796,6.3503,6.2817,6.278,6.278,6.278,6.278,6.2805,6.283,6.2978,6.3026,6.3086,6.3422,6.3857,6.4388,6.5143,6.464,6.409,6.409,6.3392,6.3087,6.402,6.4279,6.4376,6.4376,6.5115,6.5583,6.5494,6.5342,6.5595,6.6402,6.6476,6.6806,6.7614,6.7687,6.8054,6.8862,6.8898,6.9265,7.0073,7.0073,7.0477,7.1293,7.1293,7.1725,7.2496,7.2496,7.2936,7.3744,7.5359,7.6533,7.742,7.991,8.1012,8.1122,8.2737,8.3398,8.3398,8.3398,8.3398,8.3398,8.3398,8.3911,8.4462,0.0,0.0,0.0,0.0,0.0,0.0,0.0,0.0,0.0,0.0,0.0,0.0,0.0,0.0,0.0,0.0,0.0,0.0,5.4428,5.399,5.3203,5.1991,5.2302,5.1826,5.0297,5.1161,5.3031,5.5946,5.5593,5.5584,5.5877,5.4941,5.5245,5.6537,5.575,5.5577,5.5849,5.5912,5.619,5.6537,5.6119,5.6115,5.6184,0.0,0.0,0.0,0.0,0.0,0.0,0.0,0.0,0.0,6.2438,6.3356,6.4237,6.2475,6.2805,6.3576,6.2989,6.2536,6.2503,6.3288,6.3595,6.3733,6.3946,6.3356,6.2849,6.2951,6.3895,6.4438,6.3367,6.2511,6.2083,6.2463,6.214,6.1842,6.1711,6.204,6.2164,6.1924,6.2389,6.3025,6.3833,6.4971,6.5999,6.6806,6.7357,6.7797,6.8017,6.7973,6.8312,6.9229,6.9705,7.0401,7.1293,7.1872,7.2275,7.2496,7.2496,7.2936,7.3744,7.4771,7.6019,7.7384,7.8736,7.9947,8.1085,8.215,8.2553,8.2553,8.2553,8.2553,8.2553,8.2553,8.27,8.2957,0.0,0.0,0.0,0.0,0.0,0.0,0.0,0.0,0.0,0.0,5.8012,5.8318,0.0,0.0,0.0,0.0,0.0,0.0,0.0,5.4059,5.3076,5.2131,5.2254,5.1631,5.0172,5.119,5.2458,5.4034,5.4052,5.4321,5.4848,5.4695,5.5179,5.6235,5.5684,5.5439,5.547,5.5258,5.5396,5.5677,5.5292,5.5184,5.5115,0.0,0.0,0.0,0.0,0.0,0.0,0.0,0.0,0.0,6.1741,6.2622,6.3613,6.2438,6.31,6.4045,6.3248,6.3117,6.3364,6.3733,6.3942,6.3917,6.3403,6.2816,6.222,6.1729,6.2348,6.2745,6.2071,6.1263,6.0845,6.12,6.095,6.0665,6.0595,6.0642,6.0679,6.0478,6.0847,6.1557,6.267,6.3697,6.4787,6.5925,6.6769,6.721,6.721,6.7423,6.7826,6.8421,6.8816,6.9586,7.0807,7.1321,7.1872,7.2496,7.2496,7.2753,7.3266,7.4404,7.5432,7.643,7.8295,7.98,8.1048,8.1856,8.2186,8.2223,8.2553,8.248,8.2223,8.2553,8.248,8.226,0.0,0.0,0.0,0.0,0.0,0.0,0.0,0.0,0.0,0.0,5.7745,5.8403,0.0,0.0,0.0,0.0,0.0,0.0,0.0,0.0,5.3144,5.2378,5.2755,5.2551,5.1684,5.2995,5.2958,5.143,5.212,5.2471,5.2524,5.372,5.4798,5.5791,5.5517,5.5439,5.546,5.4773,5.4428,5.4425,5.4425,5.4425,5.4425,5.4425,0.0,0.0,0.0,0.0,0.0,0.0,0.0,0.0,6.1545,6.1643,6.1863,6.2463,6.3432,6.4214,6.3567,6.4078,6.4619,6.4212,6.4125,6.3794,6.2353,6.233,6.2272,6.1215,6.0481,6.0129,6.0508,5.9946,5.9592,6.0186,6.0354,6.0374,6.0351,6.0351,6.0374,6.0351,6.0307,6.086,6.2303,6.267,6.3404,6.4971,6.5888,6.6402,6.6512,6.7173,6.7614,6.7687,6.776,6.8495,6.9963,7.0146,7.0954,7.2386,7.2459,7.2496,7.2569,7.4111,7.4882,7.5212,7.8405,8.0204,8.0975,8.1819,8.2186,8.226,8.303,8.2847,8.2296,8.303,8.2847,8.2186,0.0,0.0,0.0,0.0,0.0,0.0,0.0,0.0,0.0,0.0,0.0,0.0,0.0,0.0,0.0,0.0,0.0,0.0,0.0,0.0,5.311,5.2799,5.2679,5.2385,5.1932,5.2029,5.1758,5.104,5.1853,5.265,5.3437,5.3634,5.4183,5.5077,5.5484,5.5313,5.4704,5.4404,5.4023,5.3632,5.3632,5.3632,5.3632,5.3632,5.3829,0.0,0.0,0.0,0.0,0.0,0.0,0.0,6.1098,6.1832,6.262,6.1573,6.2447,6.3736,6.3654,6.3098,6.2839,6.4063,6.4521,6.448,6.3457,6.2816,6.2051,6.0686,6.0625,6.0796,6.0619,5.9946,5.9384,5.9428,5.9044,5.8671,5.858,5.8649,5.8671,5.858,5.9084,5.9588,5.9918,6.1679,6.2952,6.3319,6.4714,6.5852,6.6476,6.6516,6.6883,6.7687,6.8202,6.8715,6.9155,7.0403,7.1248,0.0,7.2202,7.2496,7.2532,7.3523,7.4661,7.5983,7.8626,7.9874,8.0167,8.1599,8.2186,8.2223,8.237,8.2333,8.2223,8.237,8.2333,8.2186,0.0,0.0,0.0,0.0,0.0,0.0,0.0,0.0,0.0,0.0,0.0,0.0,0.0,0.0,0.0,0.0,0.0,0.0,0.0,0.0,0.0,5.3941,5.3476,5.3142,5.2899,5.272,5.2129,5.116,5.1113,5.147,5.2215,5.2796,5.3292,5.3695,5.4428,5.4361,5.3656,5.3376,5.3091,5.2873,5.3253,5.3391,5.3391,5.3391,5.3632,5.3963,5.4105,0.0,0.0,0.0,0.0,0.0,0.0,0.0,6.2077,6.1542,6.2495,6.3792,6.392,6.3851,6.3936,6.4483,6.446,6.4168,6.3696,6.2976,6.2022,6.066,6.0314,6.0149,5.9745,5.9257,5.8864,5.8644,5.8336,5.8065,5.7997,5.8065,5.8065,5.7997,5.8364,5.8804,5.9148,6.0322,6.141,6.2181,6.3392,6.464,6.5852,6.6176,6.6763,6.765,6.8037,6.8449,6.8898,6.9743,7.0367,7.0734,7.1138,7.1541,7.1982,7.356,7.4955,7.6203,7.8332,7.9213,7.936,8.0975,8.1636,8.1672,8.2039,8.2186,8.2186,8.2186,8.2186,8.2186,0.0,0.0,0.0,0.0,0.0,0.0,0.0,0.0,0.0,0.0,0.0,0.0,0.0,0.0,0.0,0.0,0.0,0.0,0.0,0.0,0.0,0.0,5.4238,5.3914,5.401,5.3765,0.0,5.1745,5.0474,5.0097,5.0636,5.1563,5.1977,5.1945,5.3068,5.3177,5.2418,5.2382,5.2222,5.205,5.2873,5.3115,5.3011,5.3149,5.3494,5.3798,5.313,5.4221,5.6194,5.7292,0.0,0.0,0.0,0.0,6.0837,6.1345,6.2352,6.3406,6.3739,6.4575,6.5332,6.4987,6.4358,6.381,6.381,6.3166,6.2284,6.1093,6.0154,5.9346,5.8777,5.8523,5.8327,5.8065,5.802,5.7997,5.7997,5.7997,5.7997,5.7997,5.7997,5.8253,5.8927,5.9111,5.9758,6.108,6.2071,6.3282,6.4787,6.5632,6.6439,6.7247,6.7283,6.765,6.8495,6.8641,6.9082,6.9889,7.0036,7.0513,7.1366,7.3523,7.4992,7.5983,7.7635,7.8479,7.8699,8.0204,8.0865,8.1085,8.1746,8.2076,8.2186,8.2186,8.2186,8.2186,0.0,0.0,0.0,0.0,0.0,0.0,0.0,0.0,0.0,0.0,5.3618,5.4446,0.0,0.0,0.0,0.0,0.0,0.0,0.0,0.0,0.0,5.3859,5.3648,5.3801,5.4419,5.3798,5.3331,5.3159,5.1002,5.0275,5.0767,5.0237,4.9913,4.9925,5.2101,5.2256,5.0991,5.2409,5.2303,5.1291,5.205,5.1977,5.1494,5.2119,5.2015,5.1588,5.1948,5.274,5.4063,5.6926,5.784,0.0,0.0,0.0,5.9318,5.9373,6.0226,6.1281,6.2071,6.3031,6.3988,6.4701,6.4813,6.4737,6.4737,6.4055,6.3151,6.2124,6.1112,6.0058,5.8768,5.8443,5.8349,5.8215,5.8065,5.7997,5.7997,5.7997,5.7997,5.7997,5.7997,5.8033,5.8143,5.8804,5.9294,5.9478,6.0896,6.2144,6.3074,6.3943,6.4787,6.5595,6.5632,6.5999,6.6806,6.7504,6.8238,6.9082,6.9779,7.0513,7.1329,7.2386,7.3634,7.5175,7.676,7.7928,7.8662,7.958,8.0351,8.1012,8.1122,8.1599,8.2186,8.2186,8.2186,8.2186,0.0,0.0,0.0,0.0,0.0,0.0,0.0,0.0,0.0,0.0,0.0,5.4261,0.0,0.0,0.0,5.2537,0.0,0.0,0.0,0.0,0.0,5.3476,5.3072,5.3169,5.3897,5.3202,5.2638,5.2208,5.0725,5.0327,5.0948,5.0119,4.997,5.0499,5.1422,5.1592,5.121,5.0853,5.0612,5.0528,5.0838,5.0832,5.072,5.1339,5.1451,5.1295,5.0939,5.1864,5.352,5.5279,5.6739,5.7935,5.8512,0.0,0.0,0.0,5.9084,6.0247,6.1675,6.237,6.2969,6.3944,6.4168,6.4168,6.4168,6.4244,6.3888,6.2424,6.2034,6.1276,5.9062,5.8508,5.8349,5.8238,5.8088,5.7997,5.7997,5.7997,5.7997,5.7997,5.7997,5.7997,5.7997,5.8327,5.8731,5.9148,6.0272,6.1484,6.2732,6.3613,6.4431,6.516,6.5249,6.537,6.5567,6.6013,6.6663,6.7469,6.8798,6.9853,7.066,7.1468,7.2716,7.4294,7.5469,7.6423,7.7268,7.8075,7.9176,8.0351,8.0828,8.1489,8.215,8.1672,8.1819,8.215,0.0,0.0,0.0,0.0,0.0,0.0,0.0,0.0,0.0,0.0,0.0,0.0,0.0,0.0,0.0,0.0,5.2357,0.0,0.0,0.0,0.0,5.2909,5.2575,5.2677,5.328,5.2544,5.1916,5.1559,5.0432,5.0497,5.1592,5.0486,5.0762,5.2165,5.151,5.1061,5.0757,4.9571,4.943,4.9982,4.986,4.9765,4.9804,5.0458,5.0711,5.0631,5.0206,5.1032,5.2501,5.4056,5.5594,5.686,5.7171,5.7901,0.0,0.0,0.0,5.9365,6.0977,6.1597,6.1935,6.2717,6.3262,6.3565,6.3582,6.4282,6.4419,6.2764,6.2561,6.1953,5.9634,5.8911,5.8629,5.8319,5.8088,5.7997,5.7997,5.7997,5.7997,5.7997,5.7997,5.7997,5.7997,5.7997,5.8253,5.8877,5.9832,6.0933,6.2144,6.3209,6.4002,6.4485,6.46,6.4621,6.4609,6.4945,6.5437,6.5996,6.756,6.8715,6.9522,7.055,7.1762,7.3156,7.4147,7.5175,7.6166,7.6754,7.8002,7.9543,8.0167,8.0865,8.1525,8.0901,8.1085,8.1489,0.0,0.0,0.0,0.0,0.0,0.0,0.0,0.0,0.0,0.0,0.0,0.0,5.269,5.2655,5.2426,5.1865,5.1694,5.1292,5.0525,5.1684,0.0,5.1623,5.2115,0.0,5.2935,5.1921,5.1627,5.2234,5.0491,5.0791,5.299,5.1201,5.1878,5.4528,5.281,5.0723,4.8543,4.9526,4.9976,4.9952,4.9471,4.8817,4.8316,4.9306,4.9216,4.8713,4.9853,4.9899,5.0022,5.4055,5.4503,5.3748,5.5946,5.6706,5.6594,0.0,0.0,0.0,5.9381,6.0207,6.0809,6.1059,6.2342,6.3532,6.3565,6.4282,6.457,6.3482,6.2504,6.1542,6.0407,5.9865,5.9279,5.8504,5.8156,5.7997,5.7997,5.7997,5.7997,5.7997,5.7997,5.7997,5.7997,5.7997,5.8033,5.807,5.9501,6.0456,6.0529,6.2034,6.289,6.2927,6.2789,6.3192,6.4127,6.4908,6.526,6.5191,6.6166,6.7063,6.7871,6.9449,7.0624,7.1541,7.3083,7.4661,7.6093,7.6166,7.7157,7.8662,7.8699,7.9213,7.991,7.9874,7.9874,7.991,0.0,0.0,0.0,0.0,0.0,0.0,0.0,0.0,0.0,0.0,0.0,0.0,0.0,5.2914,5.2845,5.2254,5.2117,5.175,5.102,5.1881,0.0,5.1385,5.2011,5.2551,5.2903,5.2497,5.2067,5.1589,5.0953,5.1058,5.1866,5.1229,5.1329,5.2029,5.1523,5.143,5.1418,4.9383,4.9637,5.1227,4.924,4.8677,4.9203,5.0342,4.9887,4.8795,4.99,5.1063,5.224,5.3149,5.4633,5.6021,5.5853,5.6132,5.6407,5.5765,5.6008,5.6665,5.7632,5.8084,5.8573,5.9784,6.0626,6.1283,6.1792,6.2639,6.3203,6.2793,6.2331,6.1864,6.1507,6.0041,5.8754,5.8342,5.8179,5.8042,5.7786,5.7904,5.7973,5.7881,5.795,5.7997,5.7997,5.7997,5.7997,5.7997,5.9024,5.9869,6.0382,6.1447,6.2205,6.2679,6.2705,6.2851,6.3119,6.3847,6.4516,6.5118,6.5976,6.7093,6.8495,6.9596,7.055,7.1329,7.2459,7.3854,7.5322,7.5322,7.6607,7.8589,7.8589,7.9066,7.9727,7.9213,7.936,7.9727,0.0,0.0,0.0,0.0,0.0,0.0,0.0,0.0,0.0,5.3544,0.0,0.0,0.0,0.0,5.34,5.2509,5.2409,5.2011,5.0982,5.1879,5.2078,5.1348,5.2117,5.2729,5.3042,5.2337,5.183,5.1537,5.066,5.0527,5.1162,5.0764,5.0652,5.0693,5.0218,5.0847,5.208,4.9562,4.9631,5.1296,4.9301,4.8894,4.9609,5.0823,5.066,4.9925,5.0854,5.1994,5.294,5.2245,5.3428,5.5103,5.4351,5.4859,5.5566,5.487,5.5093,5.5615,5.6001,5.6527,5.7278,5.8754,5.9407,5.9987,6.1135,6.1905,6.2373,6.2408,6.2042,6.1691,6.1691,6.0037,5.8577,5.8334,5.8223,5.8065,5.7667,5.7834,5.795,5.7834,5.7927,5.7997,5.7997,5.7997,5.7997,5.7997,5.8767,0.0,6.0382,6.0896,6.1508,6.2164,6.2327,6.2448,6.2526,6.333,6.4051,6.4689,6.5803,6.6983,6.8128,6.9192,7.0146,7.0954,7.1762,7.301,7.4515,7.4808,7.6019,7.7781,7.8075,7.8479,7.8883,7.8369,7.8516,7.8883,0.0,0.0,0.0,0.0,0.0,0.0,0.0,0.0,5.6408,5.4092,0.0,0.0,0.0,0.0,0.0,5.2605,5.244,5.1843,5.0386,5.1614,5.2078,5.1348,0.0,0.0,5.3416,5.1285,5.0822,5.2188,4.9619,4.9306,5.1016,4.9898,4.9962,5.0912,4.911,4.89,4.9942,4.9907,4.9976,5.0061,4.9603,4.9373,4.9379,5.0591,5.1287,5.1832,5.2604,5.2436,5.1799,5.1543,5.1014,5.0686,5.1687,5.2952,5.3979,5.3175,5.4196,5.5405,0.0,0.0,0.0,5.7913,5.8759,5.9867,6.1667,6.2135,6.2191,6.2353,6.1551,6.0823,6.0954,5.9891,5.8905,5.8593,5.8334,5.8065,5.7631,5.7834,5.795,5.7834,5.7927,5.7997,5.7997,5.7997,5.7997,5.7973,5.8707,5.9515,6.0285,6.0382,6.0714,6.1396,6.152,6.1874,6.2397,6.3522,6.3976,6.3884,6.5626,6.6476,6.6586,6.8201,6.9339,7.0146,7.0954,7.2202,7.3707,7.4551,7.5395,7.6166,7.698,7.7273,7.7273,7.7273,7.7273,7.7273,0.0,0.0,0.0,0.0,0.0,0.0,5.8014,5.7025,5.6058,0.0,0.0,0.0,5.4527,5.4953,5.5118,5.4759,5.4229,5.3301,5.1877,5.2389,5.243,5.1695,5.2673,5.345,5.3849,5.2658,5.2096,5.2188,5.0956,5.0027,4.943,4.9103,4.8827,4.8603,4.8105,4.8036,4.8321,4.7769,4.9459,5.2226,4.9413,4.9407,5.1093,5.1292,5.0709,4.9892,5.1039,5.2291,5.3241,5.2262,5.3579,5.5459,5.4456,5.4427,5.4615,5.3943,5.4538,5.5228,5.46,0.0,0.0,0.0,0.0,0.0,5.8905,5.8899,5.9269,6.1812,6.0623,5.9736,6.1658,6.0597,5.9459,5.9587,5.8813,5.802,5.751,5.7715,5.7857,5.781,5.7927,5.7997,5.7997,5.7997,5.7881,0.0,5.785,5.8349,5.9078,5.9944,6.0762,6.1508,6.1569,6.1973,6.2679,6.2936,6.3632,6.4893,6.528,6.6176,6.7393,6.8421,6.9339,7.0146,7.0954,7.1872,7.2936,7.4331,7.5395,7.6166,7.698,7.7273,7.7273,7.7273,7.7273,7.7273,0.0,0.0,0.0,0.0,0.0,0.0,5.9199,5.8229,5.7365,0.0,0.0,0.0,5.6316,5.7011,5.6945,5.5714,5.5185,5.4229,5.2542,5.2994,5.3037,5.23,5.3146,5.3749,5.398,5.3049,5.2417,5.2188,5.1149,5.0011,4.8775,4.8465,4.7948,4.7251,4.6879,4.7086,4.7603,4.6535,4.8183,5.1399,5.015,5.0574,5.1928,5.2471,5.2089,5.1371,5.1874,5.2713,5.3385,5.178,5.2977,5.4778,5.305,5.3664,5.4801,5.382,5.4535,5.5547,5.4929,5.4775,5.5018,5.5913,0.0,0.0,5.7803,5.7572,5.7733,6.0086,5.9458,5.9039,6.0904,6.0257,5.959,6.0028,5.9155,5.8311,5.8033,5.7874,5.781,5.781,5.7927,5.7997,5.7997,5.7997,5.7904,5.7655,5.7559,5.7704,5.8067,5.9249,6.0272,6.108,6.0786,6.13,6.2805,6.273,6.3573,6.5301,6.5553,6.6396,6.7724,6.8201,6.8825,6.9633,7.044,7.1468,7.2642,7.4258,7.5175,7.5726,7.6833,7.7273,7.7273,7.7273,7.7243,7.7248,0.0,0.0,0.0,6.1808,6.2481,6.2245,5.986,5.9794,5.9628,0.0,5.8436,5.8701,5.9529,5.9926,5.9098,5.6619,5.6022,5.4966,5.3014,5.367,5.3779,5.304,5.3684,5.4045,5.4045,5.2925,5.2326,5.2326,5.0873,4.9769,4.9016,4.8293,4.7562,4.6837,4.6017,4.6362,4.75,4.6293,4.6948,4.8994,5.1162,5.2013,5.2161,5.3619,5.4225,5.4191,5.3701,5.3377,5.288,5.1153,5.0921,5.1191,4.9858,5.1852,5.4422,5.3131,5.4274,5.5882,5.5434,5.5342,5.5604,5.6479,5.6178,0.0,5.7434,5.7243,5.7033,5.7953,5.8099,5.8302,5.9206,5.9326,5.9383,5.9916,5.9376,5.8902,5.886,5.8275,5.7834,5.781,5.8,5.8107,5.7997,5.807,5.8084,5.795,5.7583,5.7388,5.7338,5.8531,5.9515,6.0236,5.9758,6.0505,6.2658,6.2768,6.3649,6.5301,6.6035,6.6843,6.7687,6.7687,6.8128,6.8935,6.9743,7.0991,7.2642,7.4258,7.4955,7.5175,7.6686,7.7273,7.731,7.731,7.7217,7.7124,0.0,0.0,6.2595,6.3624,6.2553,6.1947,6.314,6.1417,6.0721,6.2775,6.2543,6.2709,6.4001,6.2212,6.1011,6.138,5.868,5.669,5.5977,5.528,5.4566,5.3817,5.4175,5.4399,5.4399,5.3601,5.3184,5.3184,5.1632,5.0804,5.0666,4.9907,4.9148,4.8327,4.7569,4.7113,4.6872,4.7741,4.834,4.8741,4.9791,5.1017,5.2329,5.3146,5.3139,5.272,5.2613,5.3014,5.3518,5.3321,5.25,5.1626,5.1596,5.2172,5.2815,5.2913,5.3772,5.4732,5.5192,5.5669,0.0,0.0,5.5712,0.0,5.5676,5.549,5.5826,5.7396,5.6725,5.6313,5.7847,5.8518,5.8767,5.8677,5.9501,5.9909,5.9221,5.8557,5.8042,5.7834,5.8514,5.8731,5.807,5.8584,5.8553,5.7607,5.7437,5.7289,5.7087,5.8434,5.9258,5.9404,6.0529,6.1374,6.1814,6.2475,6.3649,6.5301,6.5485,6.6292,6.7687,6.7687,6.8128,6.8935,6.9743,7.0991,7.2642,7.4258,7.5285,7.5946,7.6907,7.7248,7.7155,7.7155,7.7124,7.7092,6.3835,6.2984,6.2553,6.368,6.3239,6.3239,6.4664,6.3338,6.2974,6.5127,6.5425,6.5326,6.4929,6.3819,6.2532,6.1267,5.966,0.0,0.0,0.0,5.5313,5.4561,5.451,5.4494,5.4494,5.4149,5.377,5.3391,5.2218,5.1429,5.108,4.9942,4.916,4.869,4.7989,4.7885,4.8174,4.823,4.8885,4.9934,5.0883,5.1734,5.25,5.3112,5.3041,5.2624,5.2624,5.2753,5.3017,5.3123,5.2868,0.0,5.2185,5.2781,5.3509,0.0,5.3725,5.4594,0.0,0.0,0.0,5.4936,0.0,0.0,0.0,5.4684,5.476,5.6025,5.5655,5.5508,5.6795,5.765,5.831,5.9017,5.9723,6.0106,5.9866,5.9428,5.9184,5.9077,5.9161,5.9184,5.9208,5.8841,5.8273,5.7449,5.7583,5.7534,5.7213,5.8482,5.9184,5.9184,5.9907,6.0506,6.0909,6.1679,6.2925,6.461,6.5495,6.6512,6.7687,6.7687,6.8128,6.8935,6.9743,7.0991,7.2642,7.4258,7.5395,7.6166,7.698,7.7279,7.7186,7.7124,7.7348,7.7641,6.3264,6.2789,6.2448,6.2831,6.3686,0.0,0.0,0.0,6.5193,6.6789,6.7343,6.7077,6.5669,6.482,6.3324,6.0763,5.9991,0.0,5.6638,5.6372,5.6063,5.5545,0.0,5.4783,5.4984,5.4873,5.4495,5.3783,5.2848,5.2097,5.1528,4.9947,4.9269,4.9286,4.8528,4.8879,4.9904,4.8872,4.9493,5.1339,5.2538,5.2721,5.2354,5.3244,5.3281,5.284,5.2904,5.2694,5.2414,5.2307,5.2626,5.2976,5.2236,5.3033,0.0,0.0,0.0,0.0,0.0,0.0,0.0,0.0,0.0,5.4563,0.0,0.0,0.0,5.4468,5.464,5.4885,5.5552,5.6459,5.7476,5.8625,5.9329,5.9767,5.9832,6.0079,6.0201,6.0079,5.9711,5.9661,6.0298,5.9074,5.803,5.7531,5.7886,5.8007,5.7724,5.8872,5.9516,5.9441,5.9639,5.9957,6.0457,6.1263,6.2434,6.3962,6.5333,6.6486,6.7467,6.744,6.7954,6.8935,6.9743,7.0991,7.2642,7.4258,7.5395,7.6166,7.698,7.7243,7.7217,7.7124,7.7573,7.8126,6.3229,6.3045,6.2446,6.1599,0.0,0.0,0.0,0.0,6.6348,6.8509,6.8055,6.8001,6.9309,6.5035,6.265,6.4057,6.0495,5.8506,5.9384,5.7569,5.667,5.7019,0.0,5.5748,5.6682,5.6298,5.5794,5.5173,5.3701,5.3026,5.3115,5.1563,5.1188,5.174,5.0581,5.0414,5.0947,5.1032,5.1277,5.1757,5.3261,5.2711,5.1196,5.3195,5.3408,5.2669,5.2841,5.2868,5.2799,0.0,5.2449,5.2597,0.0,5.1934,5.2034,5.262,0.0,0.0,0.0,0.0,0.0,0.0,5.5944,0.0,0.0,0.0,5.4133,5.3545,0.0,5.3435,5.3508,0.0,0.0,5.4935,5.7244,5.8846,5.802,5.9358,5.9981,5.8942,5.9652,6.0261,6.0213,5.954,5.8714,5.7926,5.8239,5.858,5.8871,6.0102,6.0635,6.0248,6.1643,6.2083,6.1423,6.223,6.311,6.409,6.4108,6.4987,6.6623,6.6516,6.7359,6.8935,6.9743,7.0991,7.2642,7.4258,7.5395,7.6166,7.698,7.7118,7.6866,7.7061,7.7509,7.807,6.2792,6.2662,6.2245,6.1317,0.0,0.0,0.0,0.0,7.0094,6.9722,7.0411,7.0951,7.0804,6.7743,6.5454,6.4896,6.2506,6.0508,5.9319,5.7947,5.7665,5.8864,0.0,5.7146,5.7989,5.7354,0.0,5.5402,5.4307,5.3538,5.3142,5.2196,5.1785,5.1877,5.1761,5.2021,5.2537,5.2497,5.241,5.2343,5.2877,5.2135,5.0986,5.2965,5.3448,5.3111,5.3213,5.3246,5.3212,0.0,5.3041,0.0,0.0,0.0,0.0,5.2699,0.0,0.0,0.0,0.0,0.0,0.0,0.0,0.0,5.3443,0.0,5.3229,0.0,0.0,0.0,0.0,0.0,0.0,0.0,5.7317,5.8626,5.7227,5.8493,5.953,5.9429,0.0,0.0,5.9493,5.9296,5.9066,5.8687,5.7715,5.7434,5.8079,5.9528,6.0034,5.9407,6.0591,6.1104,6.0799,6.1605,6.2448,6.3291,6.4684,6.571,6.6343,6.6765,6.7671,6.8834,6.9518,7.0535,7.1801,7.3413,7.4549,7.5385,7.6283,7.6808,7.716,7.7605,7.8332,7.8986,6.2774,6.2411,6.1999,6.1329,6.2373,0.0,0.0,6.9169,7.1264,7.058,7.1328,7.1804,7.1406,6.8913,6.6636,6.5159,6.3406,6.1539,5.9384,5.8497,5.866,5.9905,5.9042,5.8743,5.9179,5.8583,0.0,5.617,5.5037,5.4063,5.3309,5.2729,0.0,5.2389,5.2888,5.3427,5.3887,5.3739,5.3471,5.3067,5.3123,5.2671,5.1993,5.29,5.3348,5.3518,5.3518,5.3518,5.3518,5.3518,5.3517,0.0,5.3484,0.0,5.3449,0.0,0.0,0.0,5.2663,0.0,0.0,0.0,0.0,0.0,0.0,0.0,0.0,0.0,0.0,0.0,0.0,0.0,0.0,5.4503,0.0,5.7134,5.609,5.7358,5.8628,5.9235,5.9249,0.0,0.0,5.8664,5.8689,5.8786,5.7166,5.6602,5.764,5.8901,5.9393,5.8939,5.9797,6.0347,6.0567,6.1178,6.1874,6.2727,6.4563,6.56,6.5986,6.6582,6.7506,6.875,6.9177,7.0047,7.1202,7.2621,7.3823,7.4842,7.5769,7.6754,7.7677,7.7919,7.861,7.9297,6.3563,6.2647,6.1708,6.1354,6.2233,6.3901,6.6557,6.6724,6.77,7.1036,6.9432,6.887,7.125,6.6981,6.4307,6.5186,6.2144,6.0261,6.0347,5.9702,5.9379,5.9515,6.0253,6.0621,6.0458,6.0354,0.0,0.0,5.6106,5.4756,5.4138,5.3401,0.0,0.0,5.4145,5.4331,5.4669,5.4871,5.4564,5.4016,5.4785,5.4974,5.4591,0.0,5.2974,5.3518,5.3518,0.0,0.0,5.3518,5.3584,0.0,0.0,0.0,0.0,0.0,0.0,0.0,0.0,0.0,0.0,5.2844,0.0,0.0,0.0,0.0,5.2666,0.0,0.0,0.0,0.0,0.0,0.0,0.0,5.2636,0.0,0.0,5.5778,5.7028,5.7412,5.8842,5.9208,0.0,5.7424,5.7387,5.7729,5.6748,5.6794,5.8388,5.8856,5.933,5.975,6.0188,6.0786,6.1557,6.1594,6.1998,6.278,6.2753,6.3632,6.5312,6.5244,6.6445,6.8714,6.8853,6.9769,7.1157,7.2144,7.3487,7.4962,7.5799,7.7121,7.8479,7.764,7.7767,7.8368,6.5014,6.4345,6.3343,6.2292,6.28,6.4036,6.5979,6.824,6.9776,6.9776,6.9935,7.0134,7.0325,6.7933,6.5926,6.5164,6.3548,6.1851,6.0168,6.112,6.1527,6.097,6.2873,6.3184,6.1661,6.1857,0.0,5.83,5.7578,5.6829,5.6115,5.5101,5.5157,0.0,5.547,5.5395,5.5782,5.5881,5.5312,5.4407,5.4296,5.4317,5.4391,0.0,5.406,5.3946,5.3946,5.375,0.0,5.3518,5.3517,5.3551,5.3484,5.3517,5.3551,5.3484,5.3518,0.0,0.0,0.0,5.3449,5.1943,0.0,0.0,0.0,0.0,0.0,0.0,0.0,0.0,0.0,0.0,0.0,0.0,0.0,0.0,0.0,5.5683,5.6872,5.7462,5.8383,5.8819,5.8434,0.0,5.7514,5.826,5.6438,5.5778,5.6837,5.754,5.8132,5.8599,5.9521,6.0541,6.1594,6.1594,6.1998,6.278,6.3342,6.3841,6.4339,6.5347,6.6262,6.7076,6.8145,6.9206,7.0389,7.1223,7.2864,7.4805,7.5062,7.6161,7.7626,7.7851,7.8537,7.937,6.7258,6.6145,6.4701,6.3762,6.3829,6.431,6.5293,6.8463,7.0256,6.898,7.0153,7.0657,6.946,6.7828,6.6365,6.5085,6.4103,6.2867,6.139,6.2231,6.2564,6.2068,6.3633,6.3551,6.158,0.0,0.0,0.0,5.9165,5.8627,5.7489,5.6778,5.6689,5.7091,5.6608,5.6304,5.6214,5.6376,5.5845,5.4803,0.0,5.4834,0.0,0.0,5.4587,5.4044,0.0,5.3915,5.3518,5.3518,5.3518,5.3518,5.3518,5.3315,5.3145,5.3416,5.3315,5.3145,5.3416,5.3314,0.0,5.1524,5.112,0.0,4.9521,0.0,0.0,0.0,0.0,0.0,0.0,0.0,0.0,0.0,0.0,0.0,0.0,5.5683,5.6849,5.7582,5.8008,5.8455,5.8962,5.7358,5.6714,5.7763,5.5741,5.48,0.0,5.6577,5.7226,5.7558,5.8863,6.0103,6.1153,6.1447,6.1998,6.278,6.3392,6.3892,6.4375,6.5401,6.6143,6.6738,6.8036,6.9059,6.9986,7.082,7.2607,7.4768,7.4768,7.5941,7.7662,7.7724,7.8405,7.9443,6.9732,6.7796,6.575,6.5756,6.5126,6.4708,6.4893,6.7372,6.9115,6.8771,6.9958,7.0158,6.847,6.6754,6.5474,6.4886,6.3742,6.3271,6.3757,6.3026,6.2617,6.2643,6.2749,6.2026,6.0388,0.0,0.0,0.0,6.0653,5.9947,5.8399,5.8311,5.7876,5.7213,5.7412,5.6952,5.6102,5.6462,5.609,5.5321,5.6097,5.6355,5.6284,5.5562,5.4624,5.3749,5.4006,5.3811,5.3416,5.345,5.345,5.345,5.3484,5.2976,5.2503,5.3281,5.2942,5.2469,5.3281,5.3484,5.3112,5.1623,0.0,0.0,0.0,0.0,4.9441,0.0,0.0,0.0,0.0,0.0,0.0,0.0,0.0,0.0,0.0,5.5609,5.6822,5.77,5.7618,5.7983,5.9266,5.6515,5.5163,5.6385,5.4731,5.4008,0.0,5.6018,5.6652,5.6652,5.8287,5.954,6.0358,6.1202,6.201,6.278,6.278,6.3624,6.5191,6.5264,6.6066,6.746,6.844,6.9256,6.9986,7.0897,7.2679,7.4845,7.4888,7.6356,7.838,7.7295,7.7514,7.8519,6.7059,6.7545,6.7786,6.6623,6.5832,6.5944,6.776,6.7976,6.8218,6.9168,6.842,6.7566,6.6997,6.5497,6.4412,6.4083,6.3775,6.3508,6.3205,6.3864,6.35,6.1714,6.3474,6.3274,6.0713,6.1876,6.1947,6.085,0.0,6.0298,5.9835,5.825,5.7906,5.8604,5.6877,5.6518,5.717,5.6887,5.6438,5.5968,5.6182,5.6077,5.5908,0.0,5.535,5.4164,5.3333,5.2705,5.2343,5.2567,5.2604,5.2706,5.3315,5.3382,5.3247,5.345,5.2942,5.2469,5.3281,5.3078,5.2503,5.2131,5.1623,5.0913,0.0,0.0,0.0,0.0,0.0,0.0,0.0,0.0,0.0,0.0,0.0,0.0,0.0,0.0,5.5668,5.7554,5.6525,5.6576,5.8871,5.6736,5.5369,5.579,5.4991,5.4472,5.4451,0.0,5.6146,5.6257,5.7834,5.9096,5.9939,6.1324,6.2281,6.278,6.278,6.3,6.3477,6.4725,6.5495,6.5946,6.7393,6.8761,7.0054,7.0302,7.1835,7.4074,7.4579,7.5775,7.7326,7.7924,7.8217,7.8478,6.8631,6.9939,7.0652,6.9442,6.8282,6.7827,6.8577,6.924,6.9635,6.9597,6.8962,6.8045,6.6812,6.5648,6.4772,6.4358,6.4323,6.4393,6.4631,6.4136,0.0,6.2711,6.2813,6.1936,5.9823,6.0956,0.0,5.9958,6.0441,6.0396,5.9845,5.8631,5.813,5.8129,5.6999,5.6894,5.7531,5.7342,5.6868,5.6308,5.6308,5.6245,0.0,5.6071,5.5675,5.4924,5.3337,5.2705,5.2556,5.2364,5.2536,5.2909,5.3382,5.3281,5.2976,5.2976,5.2435,5.1928,5.2367,5.2401,5.2164,5.1488,5.1285,5.0845,4.9458,4.9154,4.8886,0.0,0.0,0.0,0.0,0.0,0.0,0.0,0.0,0.0,0.0,0.0,0.0,5.7111,5.6762,5.7021,5.8811,5.6219,5.4876,5.6063,5.508,0.0,0.0,0.0,5.6387,5.6791,5.8283,5.9457,6.0295,6.1751,6.2578,6.278,6.278,6.3184,6.3943,6.4897,6.5705,6.6402,6.7687,6.8935,7.011,7.0477,7.1835,7.3817,7.4902,7.602,7.7097,7.7793,7.8134,7.8515,7.194,7.3185,7.3545,7.2789,7.1394,7.0025,6.8858,7.068,7.1609,6.9925,7.0185,6.9725,6.7438,6.6505,6.5815,6.5264,6.5138,6.5589,6.6653,6.4046,6.3032,6.4187,6.1588,5.9593,5.8503,5.9793,5.9939,0.0,6.0186,6.0343,5.9368,5.926,5.8458,5.7015,5.7302,5.7474,5.7504,5.7711,5.7263,5.6519,5.6519,5.6653,5.6757,5.6073,5.5913,5.5797,5.3875,5.3204,5.3173,5.2428,5.2568,5.3078,5.3179,5.2739,5.2164,5.2164,5.1623,5.1082,5.1183,5.1623,5.1725,5.0541,5.0642,5.0574,4.8646,4.8108,4.798,4.767,4.7763,4.8151,0.0,0.0,0.0,0.0,0.0,0.0,0.0,0.0,0.0,0.0,5.7038,0.0,5.8591,5.5618,5.4486,5.6608,5.5281,0.0,0.0,0.0,5.6904,5.7628,5.8933,6.0119,6.1131,0.0,6.2803,6.2989,6.2853,6.3576,6.5007,6.5191,6.6072,6.743,6.8348,6.9192,7.0,7.0807,7.2239,7.4001,7.5395,7.6497,7.7273,7.7273,7.7657,7.8405,7.2393,7.3358,7.3987,7.3582,7.2716,7.1998,7.1765,7.0841,7.0005,6.9666,6.9491,6.8982,6.7867,6.7035,6.647,6.6258,6.6228,0.0,0.0,0.0,0.0,6.3373,6.1274,5.9717,5.8932,5.8869,5.9195,6.0006,5.9994,6.0088,6.0175,5.9547,5.8707,5.7607,5.6974,5.6969,5.7456,5.7581,0.0,5.7213,5.7087,5.7087,5.7112,5.6968,5.6717,5.6204,5.4512,5.3185,5.2085,5.1573,5.107,5.0811,5.142,5.1522,5.1388,5.1388,5.0879,5.0439,5.1048,5.0845,5.0574,5.0913,5.0642,5.0168,4.9796,4.9255,4.8785,4.8723,4.8954,4.9311,4.9722,0.0,0.0,0.0,0.0,0.0,0.0,0.0,0.0,0.0,0.0,5.4774,0.0,5.6624,5.6328,5.5999,0.0,0.0,0.0,0.0,5.674,0.0,5.8246,0.0,0.0,0.0,6.284,6.387,6.3135,6.2927,6.3282,6.4677,6.5448,6.5815,6.7283,6.8348,6.9192,6.9963,7.2055,7.4735,7.5028,7.6019,7.7273,7.7273,7.7384,7.7719,7.2798,7.4025,7.4672,7.3516,7.3,7.2337,7.0947,7.0302,6.9933,6.9848,6.9733,6.9318,6.8487,6.7684,6.721,6.7126,6.686,6.6648,6.6559,6.4663,6.353,6.353,6.1396,5.9769,5.8784,5.8142,5.8238,5.9105,5.896,5.9194,5.9771,5.9407,5.831,5.6586,5.6525,5.6871,5.7522,0.0,0.0,5.7424,5.771,5.7663,5.7424,5.786,5.7726,5.7132,5.5934,5.4564,5.3157,5.2319,5.2048,5.21,5.223,5.2272,5.2104,5.1165,5.0657,5.0413,5.0526,5.0345,5.0294,5.1039,5.0924,5.0676,5.0676,5.0101,4.956,4.956,4.9379,4.926,4.9406,5.0102,0.0,0.0,0.0,0.0,0.0,0.0,5.3035,0.0,0.0,0.0,0.0,0.0,5.7036,5.5905,5.6016,0.0,0.0,0.0,0.0,0.0,0.0,0.0,0.0,0.0,0.0,6.4714,6.431,6.4347,6.4751,6.5558,6.6145,6.6586,6.7357,6.8164,6.9009,7.022,7.2386,7.4918,7.4918,7.5879,7.7347,7.7818,7.7965,7.8148,7.3552,7.465,7.4974,7.3231,7.2694,7.1844,6.9657,6.9741,6.9944,6.9623,6.9743,6.9522,6.8715,6.8091,6.7687,6.7687,6.7286,6.7016,6.6834,6.5026,6.3899,6.3718,6.1695,5.9952,5.8645,5.8011,5.7834,5.8149,5.8293,5.8765,5.9441,5.9648,5.847,5.6263,0.0,0.0,0.0,0.0,5.8348,5.7838,5.8333,5.8214,5.7728,5.8385,5.8359,5.7886,5.7079,5.5939,5.4665,5.3806,5.3471,5.3369,5.3077,5.29,5.2536,5.0922,5.045,5.0403,5.0184,5.0081,5.0267,5.1123,5.1115,5.0937,5.1074,5.0602,5.0127,4.9929,4.9526,4.9187,4.9052,5.0056,0.0,0.0,0.0,0.0,0.0,0.0,0.0,0.0,0.0,0.0,5.5328,5.6261,5.6418,5.5566,0.0,0.0,5.5632,0.0,0.0,0.0,0.0,6.0891,6.3213,0.0,6.4677,6.5301,6.5301,6.5558,6.5999,6.6329,6.6843,6.743,6.7614,6.8238,6.9265,7.0734,7.2716,7.4918,7.4918,7.5879,7.7384,7.8075,7.8442,7.8699,7.507,7.493,7.4333,7.312,7.1689,7.0629,7.0246,6.963,6.8914,6.8044,6.8568,6.8715,6.7907,6.7724,6.7687,6.7687,6.766,6.7303,6.6606,6.525,6.4201,6.3466,6.2109,6.0632,5.9095,5.8987,5.8808,0.0,5.9288,5.9855,0.0,6.1043,0.0,0.0,0.0,0.0,0.0,5.9053,5.91,5.9027,5.91,5.866,5.7973,5.8047,5.8047,5.7886,5.7079,5.6226,5.555,5.5777,5.4099,5.1913,5.1878,5.1599,5.1114,5.0228,4.9987,5.004,5.0384,5.0165,5.0183,5.1359,5.0824,5.0145,5.056,5.0571,5.0274,4.9317,4.9593,4.9796,4.912,5.0737,5.2113,0.0,0.0,0.0,0.0,0.0,5.3337,5.3816,0.0,0.0,5.3349,5.3443,5.3767,5.4489,5.668,0.0,0.0,0.0,0.0,5.9437,0.0,6.274,6.4865,6.5087,6.5228,6.5301,6.5301,6.4971,6.4347,6.5815,6.6549,6.6659,6.7357,6.8568,7.0073,7.0954,7.2716,7.4918,7.4918,7.5879,7.731,7.7384,7.7928,7.8699,7.2838,7.2322,7.1703,7.109,0.0,0.0,0.0,6.8493,6.7788,6.7444,6.8268,6.8605,6.7797,6.7247,6.7173,6.765,6.7247,6.6843,6.6512,6.5584,6.4662,6.3858,6.2386,6.1157,6.0267,5.977,5.945,0.0,0.0,0.0,0.0,0.0,0.0,0.0,0.0,5.9322,5.9834,5.9381,5.9184,5.9184,5.9184,5.8731,5.8033,5.8547,5.8437,5.796,5.7629,5.7005,5.6359,5.6493,5.5281,5.3611,5.3405,5.3387,5.3071,5.1129,5.0739,5.1002,5.1352,5.1052,5.1049,5.2873,5.266,5.2153,5.2788,5.2429,5.1728,5.0819,5.0699,5.0676,5.0371,5.1677,5.2812,0.0,0.0,0.0,0.0,0.0,0.0,5.3478,0.0,5.2329,5.2794,5.323,5.3941,5.5029,0.0,0.0,0.0,0.0,0.0,5.8421,0.0,6.2248,6.4047,6.5364,6.6256,6.6733,6.6733,6.6549,6.6256,6.6916,6.7467,6.7981,6.8274,6.9339,7.0844,7.1174,7.2716,7.4918,7.4918,7.5879,7.742,7.8442,7.9029,7.9538,7.0785,0.0,6.9323,0.0,6.8697,6.8334,6.8274,6.759,6.7012,6.6752,6.7414,6.7777,6.7437,6.6869,6.6733,6.7283,6.6623,6.6035,6.5815,6.5264,6.4567,6.3759,6.2585,0.0,6.1219,6.061,6.0099,5.96,6.0427,0.0,0.0,0.0,0.0,0.0,5.9223,5.943,6.0015,5.9441,5.9184,5.9184,5.9184,5.8731,5.807,5.8621,5.851,5.796,5.774,5.7299,5.6763,5.6483,5.5994,5.5411,5.4773,5.484,5.4724,5.2458,5.188,5.2004,5.2455,5.1997,5.1865,5.4028,5.3958,5.3493,5.4167,5.3566,5.2557,5.1583,5.1133,5.0947,5.1183,5.2213,5.3238,5.3818,0.0,0.0,0.0,0.0,0.0,0.0,5.2706,5.2375,5.2743,5.3279,5.4231,5.5674,0.0,0.0,0.0,0.0,0.0,0.0,0.0,0.0,0.0,6.573,6.6769,6.7357,6.7357,6.7357,6.7357,6.7834,6.8348,6.8935,6.9412,7.0257,7.1293,7.155,7.2826,7.4588,7.4808,7.5763,7.7157,7.8809,7.9612,8.0079,6.9781,6.8586,6.7651,6.7628,6.7628,6.7568,6.7416,6.7256,6.6741,6.5768,6.5582,6.5837,6.6611,6.6591,6.6512,6.6512,6.5778,6.4971,6.4163,6.4127,6.3723,0.0,0.0,6.2401,6.1594,6.1594,6.0823,5.9221,0.0,0.0,5.9221,0.0,6.0382,6.0346,5.9551,5.9184,5.9184,5.9184,5.9184,5.9184,5.9184,5.8731,5.7997,5.7997,5.7997,5.7886,5.7116,5.6822,5.6653,5.5733,5.6012,5.6571,5.5361,5.5292,5.5359,5.4118,5.3202,5.2749,5.3576,5.2897,5.2466,5.4426,5.4055,5.3344,5.3793,5.3286,5.2315,5.0891,5.0354,5.0338,5.1082,5.2151,5.3378,5.4839,0.0,0.0,0.0,0.0,0.0,5.3841,5.2394,5.1897,5.3084,5.3205,0.0,0.0,0.0,0.0,0.0,0.0,0.0,6.0127,6.3335,0.0,6.6252,6.6423,6.6512,6.6512,6.6512,6.6512,6.6586,6.8164,6.8898,6.9009,7.0587,7.1256,7.1329,7.2165,7.2973,7.378,7.4588,7.5395,7.6313,7.8002,7.9228,8.0124,6.7243,6.6398,6.5872,6.6467,6.6095,6.5918,6.6613,6.6035,6.5473,6.5351,6.5059,6.4979,6.5238,6.5518,6.5888,0.0,6.5778,6.4971,0.0,6.4129,6.3762,6.2842,6.288,6.2794,6.2438,6.2438,6.1924,6.086,0.0,0.0,0.0,6.0015,6.0126,5.9588,5.9905,6.0015,5.9979,5.9404,5.9184,5.9148,5.8621,5.8217,5.7997,5.7997,5.7997,5.796,5.7703,5.7217,5.6635,5.6424,5.6475,5.6598,5.6333,5.6514,5.6536,5.5038,5.443,5.4305,5.4526,5.4091,5.3851,5.5014,5.5033,5.4811,5.4968,5.3634,5.2179,5.148,5.1381,5.1508,5.1928,5.3575,5.4905,5.5107,5.5483,0.0,0.0,0.0,0.0,0.0,5.3211,5.2764,5.3148,5.3703,0.0,0.0,0.0,0.0,0.0,0.0,0.0,0.0,6.2668,0.0,6.5616,6.6743,6.732,6.732,6.732,6.7614,6.8164,6.9229,7.0036,7.0587,7.1073,7.1615,7.2165,7.2386,7.2973,7.378,7.4588,7.5726,7.7121,7.8809,8.0,8.0966,6.5571,6.5008,6.4741,6.5597,6.5299,6.5158,6.5836,6.5322,6.4762,6.4621,6.4322,6.4248,6.4581,6.4771,0.0,6.5599,6.485,6.4189,6.3725,6.3726,6.3493,6.299,6.2978,6.2953,6.288,6.2536,0.0,6.1153,6.086,6.0199,5.9184,5.9698,5.9661,5.9184,5.9428,5.9501,5.9465,5.8951,5.8767,5.8731,5.8217,5.7997,5.7997,5.7997,5.7997,5.796,5.7666,5.7363,5.7061,5.6461,5.6658,5.7098,5.6827,5.7128,5.74,5.6237,5.5688,5.5444,5.5418,5.5008,5.4719,5.5326,5.5507,5.5437,5.5121,5.3898,5.2715,5.2252,5.2274,5.2488,5.2997,5.4409,5.5604,5.574,5.6116,5.6393,5.6339,0.0,0.0,0.0,0.0,0.0,0.0,5.5398,5.5883,0.0,0.0,0.0,0.0,0.0,0.0,6.042,6.3379,0.0,6.6182,6.688,6.7393,6.7687,6.7687,6.7944,6.8495,6.9596,7.0367,7.0881,7.1505,7.2202,7.2936,7.2936,7.3413,7.4221,7.5028,7.5983,7.7047,7.8736,7.9774,8.0542,6.4591,6.4264,6.4118,0.0,6.5052,0.0,6.5089,6.489,6.4433,6.3713,6.3511,6.3678,6.4456,6.4291,6.4144,6.4144,0.0,0.0,0.0,6.3002,6.3075,6.3171,6.3075,6.3002,6.3002,6.2145,6.13,6.0493,5.9661,5.9258,5.9258,5.9148,5.9148,5.9148,5.8364,5.7997,5.7997,5.7997,5.7997,5.7997,5.7997,5.7997,5.7997,5.7997,5.7997,5.7886,5.7152,5.7336,5.7643,5.6099,5.6621,5.7753,5.6965,5.7317,5.8,5.7571,5.6891,5.6284,5.6214,5.5648,5.5155,5.5443,5.5507,5.5297,5.4489,5.408,5.3694,5.3003,5.2949,5.3274,5.4119,5.4827,5.5649,5.6804,5.6938,5.6887,5.6757,0.0,0.0,0.0,0.0,0.0,0.0,5.781,5.8185,0.0,0.0,0.0,0.0,0.0,6.1652,6.278,6.5228,6.688,6.7687,6.6953,6.6953,6.7687,6.7787,6.776,6.7834,6.9449,7.0183,7.0257,7.1835,7.2973,7.3707,7.3707,7.4184,7.4992,7.5799,7.613,7.6387,7.8075,7.8842,7.9335,0.0,0.0,6.3766,6.3952,6.3989,6.3989,6.3989,6.3922,6.3825,6.3616,6.3579,6.3631,6.3794,6.3585,6.3418,6.3418,6.3628,6.3553,6.3039,6.3099,6.3147,6.3194,6.3147,6.3099,6.3002,6.2696,6.2144,6.13,6.0529,6.0126,6.0089,5.8877,5.8621,5.9148,5.8364,5.7997,5.7997,5.7997,5.7997,5.7997,5.7997,5.7997,5.7997,5.7997,5.7997,5.796,5.7776,5.74,5.6965,5.7267,5.7194,5.7001,5.751,5.823,5.8781,5.8064,5.7521,5.7109,5.7091,5.6501,5.5849,5.595,5.5735,5.5297,5.4489,5.408,5.3664,5.2892,5.3541,5.4386,5.4838,5.6037,5.7158,5.7666,5.7486,5.7289,5.7264,5.7438,0.0,0.0,5.7774,5.7889,5.772,5.7899,5.8119,0.0,0.0,0.0,0.0,6.3254,6.3768,6.2817,6.5228,6.688,6.7687,6.7504,6.7504,6.7714,6.8311,6.8605,6.8678,7.0293,7.1027,7.1064,7.2092,7.2973,7.3707,7.3707,7.4184,7.4992,7.5799,7.6497,7.7231,7.8883,7.9595,8.0032,6.3419,6.3511,6.3602,6.3602,6.3602,6.3602,6.3602,6.3602,6.3602,6.3602,6.3602,6.3602,6.3602,6.3419,6.3242,6.3231,6.3395,6.3394,6.3112,6.3099,6.3147,6.3265,6.3171,6.3075,6.3002,6.2512,6.1667,6.0493,6.0419,6.0236,5.9832,5.8951,5.8804,5.9148,5.8364,5.7997,5.7997,5.7997,5.7997,5.7997,5.7997,5.7997,5.7997,5.7997,5.7997,5.7997,5.7997,5.7914,5.7794,5.7937,5.7914,5.7794,5.7937,5.8547,5.9111,5.8694,5.8406,5.8191,5.7983,5.734,5.6582,5.6209,5.5793,5.5472,5.5367,5.5115,5.4892,5.4909,5.547,5.5979,5.6212,5.7085,5.7834,5.7973,5.8267,5.8283,5.7607,5.876,0.0,5.8664,5.939,5.9729,5.9105,5.9556,5.9687,5.927,6.1031,0.0,6.2867,6.4779,6.5452,6.453,6.6145,6.7247,6.7687,6.7687,6.7687,6.7714,6.8128,6.8348,6.8421,7.0036,7.077,7.0807,7.1982,7.3156,7.4258,7.4258,7.4955,7.6026,7.6497,7.7157,7.8002,7.8919,7.9564,8.0155,6.3379,6.3493,6.3602,6.3602,6.3602,6.3602,6.3602,6.3602,6.3602,6.3602,6.3602,6.3602,6.3602,6.3488,6.3336,6.3218,6.2978,6.2929,6.3147,6.3051,6.3123,6.3336,6.3234,6.3113,6.3002,6.2218,6.1043,5.9551,6.0272,6.0236,5.9551,5.9441,5.9368,5.9331,5.8547,5.8107,5.7997,5.7997,5.7997,5.7997,5.7997,5.7997,5.7997,5.7997,5.807,5.818,5.818,5.8694,5.9258,5.8584,5.8841,5.9258,5.8584,5.8914,5.9515,5.9404,5.9478,5.9467,5.9005,5.8335,5.7576,5.675,5.6283,5.6206,5.687,5.6772,5.6799,5.7588,5.7762,5.7801,5.7899,5.8066,5.818,5.818,5.8954,5.9109,5.786,0.0,6.1043,5.9719,6.0973,6.1642,6.0792,6.1724,6.1891,6.0711,6.2867,6.4008,6.3591,6.5543,6.6706,6.6659,6.732,6.7687,6.7687,6.7687,6.7687,6.7687,6.7687,6.776,6.7907,6.9412,7.0183,7.0367,7.1835,7.3413,7.4918,7.4918,7.5842,7.7273,7.7273,7.7855,7.8589,7.8589,7.9197,8.002,6.4081,6.3864,6.3602,6.3602,6.3602,6.3602,6.3602,6.3602,6.3602,6.3602,6.3602,6.3602,6.3602,6.3488,6.3382,6.3359,6.3123,6.3002,6.3026,6.3026,6.3075,6.3218,6.3738,6.3702,6.3002,6.2769,6.2181,6.1227,6.1337,6.1337,6.119,6.0529,6.0236,6.0199,5.9368,5.8657,5.7997,5.7997,5.7997,5.7997,5.7997,5.7997,5.7997,5.7997,5.8437,5.9001,5.9001,5.9538,6.0199,6.0089,6.0126,6.0199,6.0089,6.0566,6.108,6.0419,6.0713,6.108,6.031,5.9773,5.932,5.8844,5.868,5.8661,5.8769,5.8752,5.8771,5.8906,5.921,5.9449,5.9474,5.9225,5.9001,5.9001,5.8685,5.8348,5.8148,0.0,6.0836,6.0609,6.2175,6.3106,6.2633,6.296,6.3308,6.3541,6.3947,6.4745,6.6058,6.65,6.6964,6.7494,6.7614,6.7687,6.7687,6.7687,6.7687,6.7687,6.7687,6.8054,6.8752,6.9669,7.0477,7.1174,7.2092,7.3413,7.4918,7.4918,7.5842,7.7273,7.7273,7.7855,7.8589,7.8589,7.9134,7.9937,6.4119,6.3881,6.3602,6.3602,6.3602,6.3602,6.3602,6.3602,6.3602,6.3602,6.3602,6.3602,6.3602,6.3534,6.3488,6.3382,6.3289,6.3147,6.3026,6.2929,6.2953,6.3075,6.3395,6.337,6.3002,6.2953,6.2475,6.1594,6.1594,6.1594,6.1557,6.0786,6.0639,6.1006,5.9758,5.8964,5.8621,5.818,5.7997,5.8033,5.8474,5.8657,5.8694,5.9134,5.9538,5.9771,5.9368,6.0015,6.0896,6.0052,6.0346,6.097,6.0529,6.0933,6.152,6.1153,6.13,6.141,6.0639,6.0443,6.0295,5.9687,5.9366,5.9312,5.968,5.9655,5.9635,6.0069,6.0129,6.0114,6.0114,5.9639,5.9478,6.0346,5.9697,0.0,0.0,6.1855,6.2858,6.2276,6.4058,6.5085,6.4401,6.4416,6.4558,6.4892,6.5322,6.5874,6.6648,6.7204,6.7557,6.7714,6.7687,6.7687,6.7687,6.7687,6.7687,6.7714,6.8128,6.8531,6.8935,7.0183,7.0954,7.1394,7.2606,7.3817,7.4918,7.4918,7.5842,7.7237,7.6827,7.7708,7.925,7.925,8.0021,8.1117,6.416,6.3824,6.3488,6.3442,6.3544,6.3618,6.3525,6.3636,6.3711,6.3616,6.3788,6.3825,6.3616,6.3765,6.3742,6.3465,6.3382,6.3265,6.3051,6.2929,6.288,6.3002,6.3026,6.31,6.3297,6.3113,6.2549,6.1594,6.1777,6.1777,6.1594,6.1153,6.119,6.1557,6.0309,5.9625,5.9441,5.8841,5.8547,5.8621,5.9245,5.9478,5.9551,6.0162,6.0419,6.0309,5.9698,6.0382,6.141,6.0162,6.0713,6.1777,6.1153,6.1374,6.1924,6.2108,6.2291,6.223,6.1104,6.1138,6.1277,6.0632,6.0254,6.0187,6.0738,6.0653,6.0668,6.1287,6.1334,6.119,6.1006,6.0432,6.0382,6.141,0.0,0.0,0.0,6.3511,6.439,6.3822,6.5643,6.6666,6.5888,6.5871,6.593,6.6007,6.6743,6.7111,6.6927,6.783,6.8136,6.7767,6.7898,6.7981,6.7981,6.7981,6.7871,6.7714,6.8531,6.9009,6.9229,7.066,7.1309,7.1479,7.3025,7.4088,7.4768,7.5042,7.6019,7.7237,7.6864,7.7965,7.98,7.98,8.0791,8.2109,6.4629,6.392,6.3147,6.2904,6.3379,6.3661,6.3294,6.3763,6.3996,6.3668,6.4248,6.4433,6.3653,6.427,6.4396,6.3653,6.3373,6.3231,6.3171,6.3051,6.3002,6.3002,6.3123,6.3468,6.4082,6.337,6.2549,6.1594,6.2365,6.2328,6.1594,6.2291,6.2254,6.1594,6.1484,6.1006,6.0309,6.0236,6.0236,6.0236,6.0309,6.0309,6.0309,6.0382,6.0419,6.0382,6.0346,6.086,6.1557,6.1447,6.1998,6.267,6.2633,6.2633,6.2879,6.3686,6.442,6.4574,6.2599,6.2354,6.2645,6.2608,6.2547,6.2558,6.2595,6.2583,6.2608,6.2682,6.3294,6.3576,6.2768,6.256,6.2328,6.1704,0.0,0.0,6.1865,6.2891,6.3822,6.4596,6.6097,6.7013,6.6814,6.7351,6.7663,6.753,6.8301,6.8412,6.7677,6.8546,6.8673,6.7899,6.8502,6.8825,6.8825,6.8825,6.8458,6.7714,6.8531,6.9302,7.0036,7.0917,7.1428,7.1732,7.3127,7.3873,7.4269,7.5507,7.6533,7.7347,7.8112,7.8956,7.98,7.98,8.0791,8.2076,6.4028,6.38,6.3576,6.3539,6.4072,6.4537,6.4672,6.4918,6.5103,6.5153,6.5422,6.5496,6.5199,6.4916,6.4656,6.4359,6.3808,6.3349,6.3099,6.2953,6.2978,6.3242,6.3289,6.339,6.3578,6.3283,6.2855,6.2365,6.2658,6.2658,6.2365,6.2658,6.2658,6.2328,6.1814,6.141,6.1117,6.0603,6.0419,6.0456,6.0933,6.1153,6.119,6.1704,6.1887,6.1814,6.1337,6.1667,6.2291,6.1777,6.2144,6.278,6.278,6.3172,6.3709,6.4254,6.4835,6.505,6.3993,6.3669,6.3613,6.3613,6.3209,6.2952,6.3466,6.3613,6.3613,6.3613,6.4273,6.4751,6.442,6.3943,6.3833,6.453,0.0,6.2744,6.466,6.4857,6.5125,6.6134,6.7111,6.7899,6.8328,6.8531,6.8803,6.9183,6.9926,7.0036,6.9229,6.9144,6.9188,6.9372,6.965,6.9495,6.8898,6.8898,6.9009,6.9192,6.9486,7.0073,7.0881,7.1688,7.2343,7.3001,7.3985,7.4792,7.5373,7.5886,7.657,7.731,7.7671,7.8626,7.9837,8.0351,8.1232,8.215,6.3866,6.3782,6.3732,6.3758,6.4466,6.5213,6.5764,6.5826,6.5952,6.6415,6.6344,6.616,6.5901,6.5447,6.4992,6.4523,6.3896,6.3419,6.3197,6.3302,6.3294,6.3231,6.3359,6.3396,6.3194,6.3194,6.3051,6.278,6.278,6.278,6.278,6.278,6.278,6.278,6.2218,6.1998,6.1924,6.1226,6.0957,6.0993,6.1542,6.1787,6.186,6.2535,6.2658,6.2365,6.1777,6.1961,6.2365,6.1777,6.2328,6.3209,6.3209,6.398,6.4846,6.4811,6.5394,6.5846,6.5031,6.4835,6.4787,6.453,6.3833,6.3429,6.4273,6.4494,6.4494,6.4494,6.5118,6.5595,6.5375,6.5044,6.5118,6.5999,6.4765,6.44,6.6427,6.6338,6.6489,6.7654,6.803,6.8505,6.9173,6.8947,6.8914,6.933,7.033,7.0807,7.0533,7.0073,6.9944,7.0293,7.0754,7.0588,6.9669,6.9412,6.9449,6.9743,6.9963,7.0513,7.1329,7.2386,7.3069,7.3537,7.4749,7.5489,7.5879,7.6289,7.6827,7.7347,7.7892,7.8772,7.991,8.0975,8.1741,8.2251,6.4388,6.3957,6.352,6.3256,6.4361,6.5547,6.6296,6.627,6.6465,6.7221,6.6876,6.629,6.5481,6.5677,6.5341,6.3931,6.3483,6.3375,6.3583,6.4166,6.3984,6.2828,6.3326,6.3465,6.3194,6.3194,6.3051,6.278,6.278,6.278,6.278,6.278,6.278,6.278,6.278,6.278,6.2755,6.2344,6.2185,6.2185,6.2185,6.2185,6.2212,6.2629,6.2266,6.1594,6.1594,6.1594,6.1594,6.1594,6.2695,6.409,6.409,6.5191,6.6329,6.5558,6.6439,6.7357,6.5742,6.5888,6.6329,6.5521,6.4714,6.431,6.5154,6.5301,6.5301,6.5301,6.5962,6.6256,6.5485,6.5999,6.6256,6.5448,6.5338,6.5647,6.6548,6.6948,6.7661,6.9136,6.8816,6.8651,6.9088,6.8378,6.7847,6.7751,6.9229,7.0533,7.148,7.1377,7.101,7.033,7.1736,7.2129,7.1293,7.0513,6.9706,6.8935,6.9743,7.055,7.1394,7.2973,7.3433,7.3047,7.5184,7.5781,7.5406,7.6758,7.7273,7.7457,7.914,7.9764,7.9984,8.1599,8.2284,8.2375,6.2702,6.2955,6.3354,6.3925,6.4723,6.5678,6.6792,6.6725,6.6725,6.7103,6.67,6.6308,6.609,6.5497,6.5135,6.5067,6.4466,6.412,6.4284,6.393,6.3494,6.3012,6.3675,6.364,6.278,6.3051,6.3051,6.278,6.25,6.237,6.237,6.237,6.2212,6.1906,6.2238,6.2212,6.1878,6.174,6.172,6.172,6.172,6.172,6.1712,6.1823,6.1733,6.1571,6.1901,6.2006,6.2058,6.2338,6.3172,6.4273,6.5411,6.6109,6.6549,6.688,6.732,6.7577,6.71,6.6733,6.6439,6.6219,6.5558,6.5154,6.5962,6.6145,6.6145,6.6145,6.7247,6.7944,6.7136,6.765,6.7907,6.71,6.699,6.6946,6.6856,6.7417,6.8,6.8595,6.8483,6.8978,7.0643,7.0072,7.0018,7.0991,7.1505,7.1937,7.2186,7.1728,7.1323,7.101,7.1507,7.1369,7.0477,7.077,7.1101,7.1431,7.1101,7.1651,7.301,7.3487,7.4235,7.5184,7.5812,7.6332,7.6721,7.7138,7.7273,7.7384,7.8516,7.9286,7.991,8.0975,8.1806,8.2334,6.2565,6.2637,6.2981,6.4243,6.4789,6.5533,6.7062,6.6836,6.6727,6.7273,6.6608,6.6028,6.6028,6.5256,6.4832,6.5064,6.4838,6.4563,6.4339,6.439,6.4087,6.338,6.4139,6.3872,6.237,6.2567,6.2541,6.2281,6.2051,6.1942,6.1942,6.1942,6.1776,6.1487,6.1804,6.1776,6.1487,6.1286,6.1228,6.1228,6.1228,6.1377,6.1657,6.1537,6.1702,6.1947,6.194,6.1942,6.2033,6.2788,6.3925,6.5264,6.6549,6.6953,6.7063,6.754,6.7687,6.7687,6.7687,6.732,6.6953,6.6953,6.6366,6.5999,6.6769,6.721,6.7467,6.7467,6.8238,6.8752,6.8274,6.8311,6.8385,6.8201,6.7991,6.7879,6.7848,6.8186,6.8631,6.9179,6.8734,6.907,7.079,7.0248,7.0487,7.2349,7.2202,7.2312,7.2936,7.2582,7.2324,7.2239,7.2324,7.2104,7.1505,7.2018,7.2349,7.2496,7.1688,7.2165,7.3707,7.4037,7.4698,7.5652,7.6313,7.6864,7.7273,7.7273,7.7273,7.7384,7.8259,7.9066,7.9869,8.0414,8.1424,8.2392,6.3214,6.2669,6.2515,6.4171,6.4555,6.518,6.6962,6.6603,6.648,6.7433,6.6406,6.5568,6.5568,6.4977,6.4528,6.435,6.4885,6.4903,6.4177,6.5248,6.53,6.3902,6.4609,6.4101,6.204,6.2059,6.194,6.1623,6.1638,6.1645,6.1645,6.1573,6.1545,6.1588,6.1473,6.1437,6.1451,6.0938,6.0722,6.0722,6.0722,6.1183,6.1818,6.152,6.1882,6.2462,6.1796,6.1573,6.1839,6.3175,6.4885,6.6623,6.743,6.7724,6.7797,6.7797,6.7861,6.7934,6.7934,6.7861,6.7824,6.7824,6.721,6.6806,6.7504,6.8311,6.8898,6.8825,6.8999,6.9073,6.8825,6.8412,6.8228,6.8825,6.8536,6.8509,6.9146,6.9157,6.9394,7.0325,6.9322,6.9007,7.0127,6.9623,7.011,7.2267,7.1908,7.2202,7.3523,7.367,7.3707,7.3707,7.3707,7.3707,7.3817,7.3817,7.3413,7.2606,7.1872,7.2386,7.3927,7.4588,7.4992,7.5212,7.665,7.7273,7.7273,7.7273,7.7273,7.7384,7.8185,7.9029,7.9827,7.9878,8.1028,8.2505,6.1122,6.1574,6.224,6.3266,6.4068,6.4943,6.5971,6.5711,6.551,6.5717,6.5049,6.4533,6.4533,6.411,6.4111,6.4731,6.5641,6.6127,6.5947,6.5695,6.5317,6.4837,6.4279,6.3596,6.2724,6.3343,6.3342,6.2594,6.2707,6.2847,6.2969,6.2175,6.1965,6.2184,6.1351,6.1077,6.1305,6.0575,6.0231,6.0231,6.0231,6.0723,6.1322,6.0674,6.1235,6.2393,6.1955,6.222,6.2979,6.4628,6.5797,6.6623,6.743,6.8128,6.8641,6.8641,6.9164,6.9696,6.9587,6.9228,6.8767,6.8669,6.8017,6.7467,6.765,6.8311,6.8742,6.8252,6.964,7.0349,6.8462,6.953,7.0285,6.9082,6.9329,6.9456,6.8853,6.957,7.0071,6.9981,6.9446,6.9652,7.1038,7.16,7.1821,7.1719,7.3214,7.3744,7.2826,7.334,7.3707,7.3707,7.3707,7.4001,7.4625,7.4661,7.4258,7.345,7.3266,7.4037,7.5542,7.5102,7.5586,7.6796,7.7127,7.7273,7.7273,7.7273,7.7273,7.731,7.7494,7.8541,7.9872,7.9277,8.0271,8.1911,6.1152,6.1541,6.2174,6.3465,6.3879,6.4263,6.5141,6.5114,6.4944,6.4944,6.4568,6.4287,6.418,6.4001,6.4145,6.4876,6.5732,6.63,6.6391,6.6446,6.6265,6.5779,6.55,6.4827,6.3733,6.446,6.4158,6.2801,6.2951,6.3101,6.32,6.2549,6.2181,6.1923,6.1305,6.0924,6.0704,6.0282,6.0317,6.0668,6.0668,6.1371,6.2319,6.1511,6.1932,6.2879,6.2332,6.2959,6.4199,6.5075,6.6397,6.7724,6.8128,6.8825,6.9486,6.9486,6.989,7.0266,7.0165,6.989,6.9566,6.9036,6.8862,6.8641,6.7871,6.8605,6.9256,6.8609,6.9777,7.0403,6.8783,6.9483,7.0165,6.9587,6.9913,7.0244,7.0092,7.0428,7.0681,7.0717,7.021,7.0426,7.1855,7.2022,7.2353,7.3059,7.3516,7.356,7.3083,7.345,7.3891,7.4258,7.4258,7.4478,7.4918,7.5285,7.5065,7.4258,7.3891,7.4331,7.5506,7.5102,7.5359,7.6173,7.6943,7.7273,7.7341,7.7402,7.7433,7.75,7.7928,7.8682,7.9473,7.9157,7.9964,8.1281,6.1812,6.1849,6.23,6.3834,6.3764,6.3729,6.4532,6.4637,6.4672,6.4672,6.4498,6.4358,6.4251,6.4251,6.4463,6.4912,6.5542,6.6021,6.6238,6.7004,6.7167,6.6518,6.6849,6.6379,6.4836,6.5319,6.4738,6.2997,6.3268,6.3403,6.3435,6.3067,6.2617,6.2088,6.1679,6.1195,6.0668,6.0423,6.0774,6.1476,6.1336,6.2213,6.3512,6.2705,6.2986,6.3688,6.288,6.3712,6.5166,6.519,6.6794,6.8788,6.8871,6.9559,7.0293,7.0293,7.0515,7.0735,7.0569,7.0542,7.033,6.9513,6.9706,6.9743,6.8385,6.9229,7.0064,6.9272,6.9988,7.0431,6.9299,6.9446,6.9861,7.0248,7.0639,7.1035,7.1635,7.1427,7.1295,7.1646,7.1138,7.1085,7.2018,7.1782,7.2333,7.4177,7.345,7.3083,7.345,7.3634,7.4001,7.4698,7.4698,7.4771,7.4918,7.5579,7.5616,7.5102,7.4294,7.4404,7.5322,7.5175,7.5175,7.5395,7.6723,7.7273,7.7341,7.7493,7.7694,7.7878,7.8684,7.9106,7.9246,7.9311,7.9937,8.0802,6.1257,6.202,6.2646,6.2889,6.3552,6.4147,6.4393,6.4428,6.4498,6.4672,6.4498,6.4393,6.4358,6.4533,6.4637,6.4706,6.5247,6.5704,6.6021,6.6315,6.6469,6.6482,6.656,6.631,6.5625,6.5824,6.5371,6.4166,6.4711,6.5062,6.5125,6.4122,6.3956,6.445,6.2945,6.2564,6.3021,6.1687,6.1581,6.2178,6.1546,6.2213,6.3512,6.2705,6.3302,6.446,6.3688,6.4301,6.5526,6.593,6.7059,6.8356,6.8788,6.9926,7.1138,7.1138,7.1848,7.2567,7.2251,7.1848,7.1397,7.1084,7.055,7.0036,6.9816,7.0477,7.0762,6.9355,7.0991,7.1931,6.9546,7.0954,7.2171,7.1276,7.1741,7.2116,7.1738,7.2048,7.2137,7.1738,7.161,7.1305,7.0671,7.1858,7.2475,7.2005,7.3582,7.4037,7.2716,7.3303,7.3744,7.3854,7.3854,7.4184,7.4918,7.5028,7.5359,7.5946,7.5139,7.5542,7.6943,7.6276,7.6313,7.698,7.72,7.7273,7.7341,7.7493,7.8025,7.8682,7.8906,7.9535,8.0237,7.9677,7.9985,8.0728,6.191,6.2637,6.3264,6.3373,6.3757,6.4212,6.4845,6.4566,6.4637,6.5653,6.5373,6.5057,6.5057,6.4743,6.4778,6.5338,6.5785,6.6264,6.6856,6.7153,6.7227,6.7014,6.6916,6.6643,6.6088,6.6021,6.5716,6.5173,6.5433,6.5611,6.564,6.4959,6.4581,6.4442,6.3506,6.3021,6.288,6.2178,6.2354,6.3021,6.2705,6.3231,6.4179,6.3828,6.4109,6.4671,6.4355,6.4798,6.5539,6.5764,6.7148,6.8895,6.9099,7.0462,7.1982,7.1982,7.2675,7.3369,7.27,7.2712,7.2641,7.157,7.1394,7.1321,7.0881,7.1394,7.1533,7.0082,7.1102,7.1746,7.0099,7.1138,7.2088,7.1386,7.1982,7.2409,7.2167,7.2351,7.2409,7.2167,7.2222,7.2235,7.2206,7.2576,7.2972,7.3353,7.3516,7.345,7.3193,7.3083,7.323,7.367,7.3707,7.3854,7.4221,7.4698,7.5102,7.5432,7.5542,7.5946,7.6644,7.6276,7.6276,7.6644,7.709,7.7273,7.7304,7.7614,7.7924,7.836,7.9512,8.025,8.0531,7.9771,7.9985,8.0765]}]]